[[{"header":{"parameterUnit":"m.s-1","parameterCategory":1,"la1":30.6,"la2":29.2853,"lo1":-89.7004,"lo2":-87.6739,"dy":0.0162,"dx":0.0183,"nx":112,"ny":82,"refTime":"2023-09-04T12:00:00:Z","depth":0,"parameterNumber":2,"parameterNumberName":"U-component_of_WINDS"},"data":[0.0,0.0,0.0,0.0,0.0,0.0,0.0,0.0,0.0,0.0,0.0,0.0,0.0,0.0,0.0,0.0,0.0,0.0,0.0,0.0,0.0,0.0,0.0,0.0,0.0,0.0,0.0,0.0,0.0,0.0,0.0,0.0,0.0,0.0,0.0,0.0,0.0,0.0,0.0,0.0,0.0,0.0,0.0,0.0,0.0,0.0,0.0,0.0,0.0,0.0,0.0,0.0,0.0,0.0,0.0,0.0,0.0,0.0,0.0,0.0,0.0,0.0,0.0,0.0,0.0,0.0,0.0,0.0,0.0,0.0,0.0,0.0,0.0,0.0,0.0,0.0,0.0,0.0,0.0,0.0,0.0,0.0,0.0,0.0,0.0,0.0,0.0,0.0,0.0,0.0,0.0,-3.7223,-3.8694,-3.9185,-3.8034,-3.8376,-3.7625,-3.5252,0.0,0.0,0.0,0.0,0.0,0.0,0.0,0.0,0.0,0.0,0.0,0.0,0.0,0.0,0.0,0.0,0.0,0.0,0.0,0.0,0.0,0.0,0.0,0.0,0.0,0.0,0.0,0.0,0.0,0.0,0.0,0.0,0.0,0.0,0.0,0.0,0.0,0.0,0.0,0.0,0.0,0.0,0.0,0.0,0.0,0.0,0.0,0.0,0.0,0.0,0.0,0.0,0.0,0.0,0.0,0.0,0.0,0.0,0.0,0.0,0.0,0.0,0.0,0.0,0.0,0.0,0.0,0.0,0.0,0.0,0.0,0.0,0.0,0.0,0.0,0.0,0.0,0.0,0.0,0.0,0.0,0.0,0.0,0.0,0.0,0.0,0.0,0.0,0.0,0.0,0.0,0.0,0.0,0.0,0.0,0.0,0.0,0.0,0.0,0.0,0.0,0.0,0.0,0.0,-3.674,-3.8723,-3.9194,-3.9283,-3.9068,-3.8335,-3.7321,-3.6004,0.0,0.0,0.0,0.0,0.0,0.0,0.0,0.0,0.0,0.0,0.0,0.0,0.0,0.0,0.0,0.0,0.0,0.0,0.0,0.0,0.0,0.0,0.0,0.0,0.0,0.0,0.0,0.0,0.0,0.0,0.0,0.0,0.0,0.0,0.0,0.0,0.0,0.0,0.0,0.0,0.0,0.0,0.0,0.0,0.0,0.0,0.0,0.0,0.0,0.0,0.0,0.0,0.0,0.0,0.0,0.0,0.0,0.0,0.0,0.0,0.0,0.0,0.0,0.0,0.0,0.0,0.0,0.0,0.0,0.0,0.0,0.0,0.0,0.0,0.0,0.0,0.0,0.0,0.0,0.0,0.0,0.0,0.0,0.0,0.0,0.0,0.0,0.0,0.0,0.0,0.0,0.0,0.0,0.0,0.0,0.0,0.0,0.0,0.0,0.0,0.0,0.0,0.0,-3.5719,-3.7053,-3.8785,-3.9359,-3.9378,-3.8774,-3.7878,-3.6928,-3.5894,-3.5546,0.0,0.0,0.0,0.0,0.0,0.0,0.0,0.0,0.0,0.0,0.0,0.0,0.0,0.0,0.0,0.0,0.0,0.0,0.0,0.0,0.0,0.0,0.0,0.0,0.0,0.0,0.0,0.0,0.0,0.0,0.0,0.0,0.0,0.0,0.0,0.0,0.0,0.0,0.0,0.0,0.0,0.0,0.0,0.0,0.0,0.0,0.0,0.0,0.0,0.0,0.0,0.0,0.0,0.0,0.0,0.0,0.0,0.0,0.0,0.0,0.0,0.0,0.0,0.0,0.0,0.0,0.0,0.0,0.0,0.0,0.0,0.0,0.0,0.0,0.0,0.0,0.0,0.0,0.0,0.0,0.0,0.0,0.0,0.0,0.0,0.0,0.0,0.0,0.0,0.0,0.0,0.0,0.0,0.0,0.0,0.0,0.0,0.0,0.0,0.0,0.0,0.0,-3.6396,-3.7368,-3.8447,-3.9293,-3.9425,-3.8536,-3.7632,-3.6753,-3.599,-3.5299,0.0,0.0,0.0,0.0,0.0,0.0,0.0,0.0,0.0,0.0,0.0,0.0,0.0,0.0,0.0,0.0,0.0,0.0,0.0,0.0,0.0,0.0,0.0,0.0,0.0,0.0,0.0,0.0,0.0,0.0,0.0,0.0,0.0,0.0,0.0,0.0,0.0,0.0,0.0,0.0,0.0,0.0,0.0,0.0,0.0,0.0,0.0,0.0,0.0,0.0,0.0,0.0,0.0,0.0,0.0,0.0,0.0,0.0,0.0,0.0,0.0,0.0,0.0,0.0,0.0,0.0,0.0,0.0,0.0,0.0,0.0,0.0,0.0,0.0,0.0,0.0,0.0,0.0,0.0,0.0,0.0,0.0,0.0,0.0,0.0,0.0,0.0,0.0,0.0,0.0,0.0,0.0,0.0,0.0,0.0,0.0,0.0,0.0,0.0,0.0,0.0,0.0,-3.6335,-3.7384,-3.8155,-3.8894,-3.9309,-3.9232,-3.7914,-3.706,-3.7011,-3.5694,0.0,0.0,0.0,0.0,0.0,0.0,0.0,0.0,0.0,0.0,0.0,0.0,0.0,0.0,0.0,0.0,0.0,0.0,0.0,0.0,0.0,0.0,0.0,0.0,0.0,0.0,0.0,0.0,0.0,0.0,0.0,0.0,0.0,0.0,0.0,0.0,0.0,0.0,0.0,0.0,0.0,0.0,0.0,0.0,0.0,0.0,0.0,0.0,0.0,0.0,0.0,0.0,0.0,0.0,0.0,0.0,0.0,0.0,0.0,0.0,0.0,0.0,0.0,0.0,0.0,0.0,0.0,0.0,0.0,0.0,0.0,0.0,0.0,0.0,0.0,0.0,0.0,0.0,0.0,0.0,0.0,0.0,0.0,0.0,0.0,0.0,0.0,0.0,0.0,0.0,0.0,0.0,0.0,0.0,0.0,0.0,0.0,0.0,0.0,0.0,0.0,0.0,-3.646,-3.7369,0.0,-3.9133,-3.9299,-3.9299,-3.7947,-3.7026,-3.6873,0.0,0.0,0.0,0.0,0.0,0.0,0.0,0.0,0.0,0.0,0.0,0.0,0.0,0.0,0.0,0.0,0.0,0.0,0.0,0.0,0.0,0.0,0.0,0.0,0.0,0.0,0.0,0.0,0.0,0.0,0.0,0.0,0.0,0.0,0.0,0.0,0.0,0.0,0.0,0.0,0.0,0.0,0.0,0.0,0.0,0.0,0.0,0.0,0.0,0.0,0.0,0.0,0.0,0.0,0.0,0.0,0.0,0.0,0.0,0.0,0.0,0.0,0.0,0.0,0.0,0.0,0.0,0.0,0.0,0.0,0.0,0.0,0.0,0.0,0.0,0.0,0.0,0.0,0.0,0.0,0.0,0.0,0.0,0.0,0.0,0.0,0.0,0.0,0.0,0.0,0.0,0.0,0.0,0.0,0.0,0.0,0.0,0.0,0.0,0.0,0.0,0.0,-3.5768,-3.6466,-3.736,0.0,-3.8941,-3.905,-3.9282,-3.7715,-3.6727,-3.6701,0.0,0.0,0.0,0.0,0.0,0.0,0.0,0.0,0.0,0.0,0.0,0.0,0.0,0.0,0.0,0.0,0.0,0.0,0.0,0.0,0.0,0.0,0.0,0.0,0.0,0.0,0.0,0.0,0.0,0.0,0.0,0.0,0.0,0.0,0.0,0.0,0.0,0.0,0.0,0.0,0.0,0.0,0.0,0.0,0.0,0.0,0.0,0.0,0.0,0.0,0.0,0.0,0.0,0.0,0.0,0.0,0.0,0.0,0.0,0.0,0.0,0.0,0.0,0.0,0.0,0.0,0.0,0.0,0.0,0.0,0.0,0.0,0.0,0.0,0.0,0.0,0.0,0.0,0.0,0.0,0.0,0.0,0.0,0.0,0.0,0.0,0.0,0.0,0.0,0.0,0.0,0.0,0.0,0.0,0.0,0.0,0.0,0.0,0.0,0.0,0.0,0.0,-3.5114,-3.6293,-3.7384,-3.8129,-3.8195,-3.8477,-3.9216,-3.7251,-3.6183,0.0,0.0,0.0,0.0,0.0,0.0,0.0,0.0,0.0,0.0,0.0,0.0,0.0,0.0,0.0,0.0,0.0,0.0,0.0,0.0,0.0,0.0,0.0,0.0,0.0,0.0,0.0,0.0,0.0,0.0,0.0,0.0,0.0,0.0,0.0,0.0,0.0,0.0,0.0,0.0,0.0,0.0,0.0,0.0,0.0,0.0,0.0,0.0,0.0,0.0,0.0,0.0,0.0,0.0,0.0,0.0,0.0,0.0,0.0,0.0,0.0,0.0,0.0,0.0,0.0,0.0,0.0,0.0,0.0,0.0,0.0,0.0,0.0,0.0,0.0,0.0,0.0,0.0,0.0,0.0,0.0,0.0,0.0,0.0,0.0,0.0,0.0,0.0,0.0,0.0,0.0,0.0,0.0,0.0,0.0,0.0,0.0,0.0,0.0,0.0,0.0,0.0,0.0,-3.5104,-3.5867,-3.6622,-3.7367,-3.7433,-3.7516,-3.7731,-3.6671,-3.5968,-3.5931,0.0,0.0,0.0,0.0,0.0,0.0,0.0,0.0,0.0,0.0,0.0,0.0,0.0,0.0,0.0,0.0,0.0,0.0,0.0,0.0,0.0,0.0,0.0,0.0,0.0,0.0,0.0,0.0,0.0,0.0,0.0,0.0,0.0,0.0,0.0,0.0,0.0,0.0,0.0,0.0,0.0,0.0,0.0,0.0,0.0,0.0,0.0,0.0,0.0,0.0,0.0,0.0,0.0,0.0,0.0,0.0,0.0,0.0,0.0,0.0,0.0,0.0,0.0,0.0,0.0,0.0,0.0,0.0,0.0,0.0,0.0,0.0,0.0,0.0,0.0,0.0,0.0,0.0,0.0,0.0,0.0,0.0,0.0,0.0,0.0,0.0,0.0,0.0,0.0,0.0,0.0,0.0,0.0,0.0,0.0,0.0,0.0,0.0,0.0,0.0,0.0,0.0,-3.43,-3.5309,-3.6173,-3.6605,-3.6671,-3.6787,-3.7069,-3.6158,-3.558,-3.5603,0.0,0.0,0.0,0.0,0.0,0.0,0.0,0.0,0.0,0.0,0.0,0.0,0.0,0.0,0.0,0.0,0.0,0.0,0.0,0.0,0.0,0.0,0.0,0.0,0.0,0.0,0.0,0.0,0.0,0.0,0.0,0.0,0.0,0.0,0.0,0.0,0.0,0.0,0.0,0.0,0.0,0.0,0.0,0.0,0.0,0.0,0.0,0.0,0.0,0.0,0.0,0.0,0.0,0.0,0.0,0.0,0.0,0.0,0.0,0.0,0.0,0.0,0.0,0.0,0.0,0.0,0.0,0.0,0.0,0.0,0.0,0.0,0.0,0.0,0.0,0.0,0.0,0.0,0.0,0.0,0.0,0.0,0.0,0.0,0.0,0.0,0.0,0.0,0.0,0.0,0.0,0.0,0.0,0.0,0.0,0.0,0.0,0.0,0.0,0.0,0.0,0.0,-3.3028,-3.47,-3.5911,-3.5901,-3.5909,-3.6174,-3.6837,-3.5678,-3.5068,-3.5464,0.0,0.0,0.0,0.0,0.0,0.0,0.0,0.0,0.0,0.0,0.0,0.0,0.0,0.0,0.0,0.0,0.0,0.0,0.0,0.0,0.0,0.0,0.0,0.0,0.0,0.0,0.0,0.0,0.0,0.0,0.0,0.0,0.0,0.0,0.0,0.0,0.0,0.0,0.0,0.0,0.0,0.0,0.0,0.0,0.0,0.0,0.0,0.0,0.0,0.0,0.0,0.0,0.0,0.0,0.0,0.0,0.0,0.0,0.0,0.0,-3.5365,0.0,0.0,0.0,0.0,0.0,0.0,0.0,0.0,0.0,0.0,0.0,0.0,0.0,0.0,0.0,0.0,0.0,0.0,0.0,0.0,0.0,0.0,0.0,0.0,0.0,0.0,0.0,0.0,0.0,0.0,0.0,0.0,0.0,0.0,0.0,0.0,0.0,0.0,0.0,0.0,0.0,-3.2622,-3.4097,-3.5129,-3.5131,-3.5131,-3.5197,-3.5363,-3.5081,-3.4851,-3.4732,-3.4235,0.0,0.0,0.0,0.0,0.0,0.0,0.0,0.0,0.0,0.0,0.0,0.0,0.0,0.0,0.0,0.0,0.0,0.0,0.0,0.0,0.0,0.0,0.0,0.0,0.0,0.0,0.0,0.0,0.0,0.0,0.0,0.0,0.0,0.0,0.0,0.0,0.0,0.0,0.0,0.0,0.0,0.0,0.0,0.0,0.0,0.0,0.0,0.0,0.0,0.0,0.0,0.0,0.0,0.0,0.0,0.0,0.0,0.0,0.0,0.0,-3.6076,0.0,0.0,0.0,0.0,0.0,0.0,0.0,0.0,0.0,0.0,0.0,0.0,0.0,0.0,0.0,0.0,0.0,0.0,0.0,0.0,0.0,0.0,0.0,0.0,0.0,0.0,0.0,0.0,0.0,0.0,0.0,0.0,0.0,0.0,0.0,0.0,0.0,0.0,0.0,0.0,-3.1972,-3.3697,-3.4899,-3.4899,-3.4899,-3.4899,-3.4899,-3.4899,-3.4826,-3.4703,-3.4327,0.0,0.0,0.0,0.0,0.0,0.0,0.0,0.0,0.0,0.0,0.0,0.0,0.0,0.0,0.0,0.0,0.0,0.0,0.0,0.0,0.0,0.0,0.0,0.0,0.0,0.0,0.0,0.0,0.0,0.0,0.0,0.0,0.0,0.0,0.0,0.0,0.0,0.0,0.0,0.0,0.0,0.0,0.0,0.0,0.0,0.0,0.0,0.0,0.0,0.0,0.0,0.0,0.0,-3.8982,-3.9032,-3.9666,-3.9392,-3.9095,-3.8765,-3.8211,-3.7739,-3.7345,-3.7357,0.0,0.0,0.0,0.0,0.0,0.0,0.0,0.0,0.0,0.0,0.0,0.0,0.0,0.0,0.0,0.0,0.0,0.0,0.0,0.0,0.0,0.0,0.0,0.0,-3.3419,-3.3835,0.0,0.0,0.0,0.0,0.0,0.0,0.0,0.0,0.0,0.0,0.0,0.0,-3.1665,-3.3567,-3.4899,-3.4899,-3.4899,-3.4899,-3.4899,-3.4899,-3.4899,-3.4899,-3.4453,-3.378,0.0,0.0,0.0,0.0,0.0,0.0,0.0,0.0,0.0,0.0,0.0,0.0,0.0,0.0,0.0,0.0,0.0,0.0,0.0,0.0,0.0,0.0,0.0,0.0,0.0,0.0,0.0,0.0,0.0,0.0,0.0,0.0,-4.0888,-4.0812,0.0,0.0,0.0,0.0,0.0,0.0,0.0,0.0,0.0,0.0,0.0,0.0,0.0,-4.159,-4.0392,-4.0984,-4.1334,-4.1465,-4.1353,-4.1394,-4.1547,-4.1487,-4.0806,-3.9641,-3.9543,0.0,-3.677,-3.7327,0.0,0.0,0.0,0.0,0.0,0.0,0.0,0.0,0.0,0.0,0.0,0.0,0.0,0.0,0.0,0.0,0.0,0.0,0.0,0.0,0.0,0.0,-3.4643,-3.4009,-3.4,-3.4066,0.0,-3.344,-3.2839,-3.205,-3.1842,0.0,0.0,0.0,0.0,0.0,0.0,0.0,-3.2707,-3.3998,-3.4899,-3.4899,-3.4899,-3.4899,-3.4899,-3.4899,-3.4899,-3.4899,-3.3683,-3.3057,-3.3386,-3.1687,0.0,0.0,0.0,0.0,0.0,0.0,0.0,0.0,0.0,0.0,0.0,0.0,0.0,0.0,0.0,0.0,0.0,0.0,0.0,0.0,0.0,0.0,0.0,0.0,0.0,0.0,0.0,0.0,0.0,-4.0916,-4.0873,-4.0812,-4.0806,-4.0809,0.0,0.0,0.0,0.0,0.0,0.0,0.0,0.0,0.0,-4.1655,-4.179,-4.1729,-4.1455,-4.0793,-4.0926,-4.1851,-4.1397,-4.1429,-4.1892,-4.1892,-4.146,-4.0708,-4.0633,-3.9699,-3.8246,-3.7793,-3.7184,-3.6611,0.0,0.0,0.0,0.0,-3.6023,-3.5915,-3.5611,-3.5469,0.0,-3.5423,0.0,0.0,0.0,0.0,0.0,0.0,0.0,0.0,0.0,0.0,-3.3977,-3.4084,-3.4101,-3.4101,-3.4101,-3.4118,-3.3864,0.0,-3.2128,-3.1388,-3.0582,0.0,0.0,0.0,0.0,-3.2975,-3.291,-3.4079,-3.4899,-3.4899,-3.4899,-3.4899,-3.4899,-3.4899,-3.4717,-3.4303,-3.3694,-3.3063,-3.2445,-3.1594,-3.0973,0.0,0.0,0.0,0.0,0.0,0.0,0.0,0.0,0.0,0.0,0.0,0.0,0.0,0.0,0.0,0.0,0.0,0.0,0.0,0.0,0.0,0.0,0.0,0.0,0.0,0.0,0.0,0.0,-4.1114,-4.1106,-4.0832,-4.0988,-4.1029,0.0,0.0,0.0,0.0,0.0,0.0,-4.2299,-4.2543,-4.2733,-4.2895,-4.2517,-4.2343,-4.2442,-4.1297,-4.1223,-4.2238,-4.1651,-4.1558,-4.1938,-4.2163,-4.1927,-4.1369,-4.128,-4.0471,-3.9176,-3.8383,-3.7666,-3.7106,-3.7236,-3.7302,-3.7247,-3.6437,-3.6092,-3.592,-3.5616,-3.552,-3.552,-3.552,-3.5514,-3.5446,-3.5205,0.0,0.0,0.0,0.0,-3.3614,-3.4068,-3.3926,-3.3732,-3.3841,-3.3866,-3.3866,-3.3866,-3.4068,-3.4143,0.0,-3.2907,-3.2201,-3.1899,0.0,0.0,0.0,0.0,-3.3518,-3.3421,-3.4273,-3.4899,-3.4899,-3.4899,-3.4899,-3.4899,-3.4741,-3.4376,-3.3829,-3.346,-3.2818,-3.1913,-3.1517,-3.1115,-3.0719,0.0,0.0,0.0,0.0,0.0,0.0,0.0,0.0,0.0,0.0,0.0,0.0,0.0,0.0,0.0,0.0,0.0,0.0,0.0,0.0,0.0,0.0,0.0,0.0,0.0,0.0,0.0,0.0,0.0,-4.0904,-4.1472,0.0,0.0,0.0,0.0,-4.1874,-4.1932,-4.2318,-4.3189,-4.4014,-4.3898,-4.2658,-4.4168,-4.4414,-4.3156,-4.3872,-4.39,-4.3238,-4.32,-4.2755,-4.2023,-4.2862,-4.2534,-4.1308,-4.1305,-4.0139,-3.8317,-3.9008,-3.8845,-3.8086,-3.765,-3.7265,-3.688,-3.6451,-3.6002,-3.5622,-3.56,-3.56,-3.56,-3.56,-3.5549,-3.5383,-3.48,-3.4536,0.0,0.0,-3.4447,-3.4358,-3.4382,-3.4682,-3.4699,-3.3537,-3.3251,-3.3251,-3.3251,-3.2868,-3.2964,0.0,-3.4771,-3.4363,-3.321,0.0,-3.4321,-3.3129,-3.4004,-3.4809,-3.4785,-3.4842,-3.4899,-3.4899,-3.4899,-3.4899,-3.4899,-3.4273,-3.3831,-3.3798,-3.25,-3.1995,-3.2619,-3.13,-3.078,-3.1248,-3.053,0.0,0.0,0.0,0.0,0.0,0.0,0.0,0.0,0.0,0.0,0.0,0.0,0.0,0.0,0.0,0.0,0.0,0.0,0.0,0.0,0.0,0.0,0.0,0.0,0.0,0.0,0.0,0.0,-4.0846,-4.1511,0.0,-4.0874,-4.1777,-4.2299,-4.2028,-4.2512,-4.3227,-4.4091,-4.442,-4.4241,-4.3473,-4.353,-4.3213,-4.2447,-4.2742,-4.2755,-4.2474,-4.3031,-4.3144,-4.2862,-4.3163,-4.2851,-4.2102,-4.2622,-4.1629,-3.9695,-4.0003,-3.9043,-3.7504,-3.8381,-3.8133,-3.7246,-3.6821,-3.643,-3.6002,-3.5694,-3.56,-3.56,-3.56,-3.5577,-3.5509,-3.5316,-3.5195,-3.5118,-3.5165,-3.5008,-3.4866,-3.4977,-3.4488,-3.3977,-3.3869,-3.3588,-3.3397,-3.3697,-3.3917,-3.4193,-3.4787,-3.4618,-3.4243,-3.3835,-3.4389,-3.4633,-3.3868,-3.4406,-3.4899,-3.4899,-3.4899,-3.4899,-3.4899,-3.4899,-3.47,-3.422,-3.3945,-3.3381,-3.2437,-3.19,-3.1518,-3.1288,-3.077,-3.0596,-3.0775,-3.0525,-3.0011,0.0,0.0,0.0,0.0,0.0,0.0,0.0,0.0,0.0,0.0,0.0,0.0,0.0,0.0,0.0,0.0,0.0,0.0,0.0,0.0,0.0,0.0,0.0,0.0,0.0,0.0,-4.1568,-4.1275,-4.2208,-4.2544,-4.1725,-4.2647,-4.3053,-4.2473,-4.2976,-4.3556,-4.413,-4.4149,-4.396,-4.3512,-4.2986,-4.2634,-4.2449,-4.2436,-4.2436,-4.2436,-4.3013,-4.3144,-4.2881,-4.3163,-4.3019,-4.253,-4.3065,-4.2399,-4.0872,-4.0601,-3.9441,-3.7901,-3.868,-3.8295,-3.7265,-3.6997,-3.6557,-3.6023,-3.5711,-3.56,-3.56,-3.56,-3.56,-3.56,-3.56,-3.5571,-3.552,-3.552,-3.5406,-3.5274,-3.5337,-3.4602,-3.3901,-3.4136,-3.3783,-3.3465,-3.3739,-3.4234,-3.4618,-3.4618,-3.4497,-3.4374,-3.4374,-3.4667,-3.478,-3.4423,-3.4667,-3.4899,-3.4899,-3.4899,-3.4899,-3.4899,-3.4899,-3.4601,-3.3856,-3.3789,-3.3176,-3.1697,-3.1596,-3.1286,-3.0522,-3.0506,-3.0506,-3.0506,-3.0506,-3.0112,-2.9319,0.0,0.0,0.0,0.0,0.0,0.0,0.0,0.0,0.0,0.0,0.0,0.0,0.0,0.0,0.0,0.0,0.0,0.0,0.0,0.0,0.0,0.0,0.0,-4.0951,-4.2343,-4.3053,-4.2239,-4.3563,-4.4208,-4.3343,-4.3285,-4.3305,-4.3305,-4.3324,-4.3343,-4.3382,-4.3382,-4.3181,-4.2746,-4.2737,-4.2916,-4.327,-4.3294,-4.3294,-4.3257,-4.3294,-4.2862,-4.2079,-4.2905,-4.3005,-4.2495,-4.253,-4.2199,-4.1596,-4.0818,-4.0075,-3.9315,-3.8553,-3.7685,-3.69,-3.69,-3.6333,-3.56,-3.56,-3.56,-3.56,-3.56,-3.56,-3.56,-3.56,-3.56,-3.56,-3.56,-3.56,-3.5577,-3.5537,-3.5088,-3.4602,-3.4268,-3.3793,-3.3397,-3.3219,-3.3681,-3.4126,-3.4126,-3.4546,-3.4899,-3.4899,-3.4899,-3.4899,-3.4899,-3.4899,0.0,-3.4899,-3.4899,-3.4899,-3.4899,-3.4899,-3.4584,-3.3822,-3.3756,-3.3143,-3.1664,-3.1574,-3.1245,-3.0543,-3.0506,-3.0506,-3.0506,-3.0489,-3.02,-2.9608,0.0,0.0,0.0,0.0,0.0,0.0,0.0,0.0,0.0,0.0,0.0,0.0,0.0,0.0,0.0,0.0,0.0,0.0,0.0,0.0,0.0,0.0,-4.1992,-4.1922,-4.2232,-4.2602,-4.3001,-4.3401,-4.3324,-4.2511,-4.295,-4.3305,-4.3305,-4.3885,-4.4504,-4.5084,-4.5104,-4.4643,-4.3607,-4.3578,-4.3186,-4.2374,-4.2975,-4.2975,-4.2361,-4.2994,-4.3163,-4.2943,-4.2983,-4.2824,-4.2514,-4.2923,-4.2228,-4.08,-4.0583,-4.0075,-3.9369,-3.9152,-3.8168,-3.69,-3.69,-3.6333,-3.56,-3.56,-3.56,-3.56,-3.56,-3.56,-3.56,-3.56,-3.56,-3.56,-3.56,-3.5571,-3.552,-3.5571,-3.5142,-3.4511,-3.3728,-3.3877,-3.3989,-3.3231,-3.3909,-3.4667,-3.4667,-3.4804,-3.4899,-3.4899,-3.4899,-3.4899,-3.4899,-3.4899,0.0,-3.4899,-3.4899,-3.4899,-3.4899,-3.4899,-3.4369,-3.3116,-3.3017,-3.2365,-3.0903,-3.08,-3.0717,-3.0506,-3.0506,-3.0506,-3.0506,-3.0366,-3.0049,0.0,0.0,0.0,0.0,0.0,0.0,0.0,0.0,0.0,0.0,0.0,0.0,0.0,0.0,0.0,0.0,0.0,0.0,0.0,0.0,0.0,0.0,-4.2379,-4.2634,-4.3301,-4.3307,-4.3394,-4.3848,-4.4188,-4.4202,-4.3705,-4.4072,-4.4214,-4.3866,-4.4305,-4.4634,-4.4755,-4.4776,-4.4384,-4.3503,-4.3426,-4.3191,-4.2725,-4.3163,-4.3294,-4.313,-4.3638,-4.3856,-4.3787,-4.3523,-4.3265,-4.3012,-4.3223,-4.2613,-4.1452,-4.0782,-4.0239,0.0,0.0,0.0,0.0,0.0,-3.6032,-3.56,-3.56,-3.56,-3.56,-3.56,-3.56,-3.56,-3.56,-3.56,-3.56,-3.56,-3.5571,-3.5566,-3.5577,-3.5171,-3.4631,-3.4249,-3.4314,-3.4382,-3.3908,-3.4371,-3.4899,-3.4899,-3.4899,0.0,-3.4899,-3.4899,-3.4899,-3.4899,-3.4899,-3.4899,-3.4899,-3.4899,-3.4899,-3.4899,-3.4899,-3.4286,-3.2834,-3.2984,0.0,0.0,0.0,-3.082,-3.0506,-3.0506,0.0,0.0,0.0,-3.0205,-2.9989,0.0,0.0,0.0,-2.7953,-2.761,0.0,0.0,0.0,0.0,0.0,0.0,0.0,0.0,0.0,0.0,0.0,0.0,0.0,0.0,0.0,0.0,-4.2627,-4.3241,-4.4823,-4.4997,-4.4908,-4.4769,-4.5344,-4.5725,-4.5685,-4.5575,-4.5265,-4.4665,-4.4595,-4.4312,-4.3621,0.0,0.0,0.0,0.0,-4.3255,-4.3843,-4.3693,-4.3995,-4.4706,-4.4712,-4.4632,-4.4496,-4.4214,-4.3936,-4.3679,-4.339,-4.3124,-4.2792,-4.1162,-4.0366,-3.9986,-3.815,-3.7209,-3.6801,-3.592,-3.56,-3.56,-3.56,0.0,0.0,-3.56,-3.56,-3.56,-3.56,-3.56,-3.56,-3.56,-3.5532,-3.5498,-3.5583,-3.5157,-3.4811,-3.5111,-3.4857,-3.4602,-3.4776,-3.4857,-3.4923,-3.4947,-3.4923,-3.4923,-3.4923,-3.4923,-3.4899,-3.4899,-3.4899,-3.4899,-3.4899,-3.4899,-3.4899,-3.4899,0.0,0.0,-3.2834,-3.3315,-3.2762,-3.0621,-3.1118,-3.1184,-3.0522,-3.0506,-3.0506,-3.0506,-3.0506,-3.0506,-3.0506,-3.007,-2.9875,-2.9853,-2.8551,-2.8012,0.0,0.0,0.0,0.0,0.0,0.0,0.0,0.0,0.0,0.0,0.0,0.0,0.0,0.0,0.0,-4.3318,-4.4036,-4.4834,-4.58,-4.5896,-4.582,-4.5731,-4.5214,-4.486,-4.4918,-4.4228,-4.4021,-4.464,-4.4621,-4.4821,-4.5364,-4.5415,-4.5297,-4.5019,-4.4806,-4.4722,-4.4745,-4.4461,-4.4476,-4.4858,0.0,0.0,-4.4627,-4.4162,-4.3836,-4.3679,-4.3178,-4.2939,-4.2792,-4.1162,-3.9554,-3.8007,-3.7295,-3.6978,-3.6801,-3.592,-3.56,-3.56,-3.56,-3.56,-3.56,-3.56,-3.56,-3.56,-3.56,-3.56,0.0,-3.56,-3.5182,-3.4844,-3.5447,-3.4992,-3.4404,-3.441,-3.4718,-3.4828,-3.4299,-3.4649,-3.5088,-3.5198,-3.5152,-3.5065,-3.5065,-3.497,-3.4899,-3.4899,-3.4899,-3.4899,-3.4899,-3.4899,-3.4899,-3.4899,-3.4899,-3.4286,-3.2834,-3.2834,-3.2216,-3.0605,-3.0638,-3.0638,-3.0506,-3.0506,-3.0506,-3.0506,-3.0506,-3.0506,-3.0506,-3.0405,-3.0363,-3.0342,-2.8888,-2.8255,0.0,0.0,0.0,0.0,0.0,0.0,0.0,0.0,0.0,0.0,0.0,-4.3051,0.0,0.0,-4.334,-4.4204,-4.4715,-4.5277,-4.6094,-4.6167,-4.6134,-4.6065,-4.5584,-4.526,-4.5299,-4.4879,-4.4802,-4.526,-4.5298,-4.5473,-4.5886,-4.5937,-4.5867,-4.565,-4.5407,-4.5285,-4.5243,-4.496,-4.4858,-4.4991,-4.4931,-4.4877,-4.477,-4.4188,-4.3849,-4.3775,-4.3232,-4.2957,-4.2792,-4.1162,-3.9463,-3.7792,-3.7151,-3.6779,-3.6516,-3.5849,-3.56,-3.56,-3.56,-3.56,-3.56,-3.56,-3.56,-3.56,-3.56,-3.56,-3.56,-3.56,-3.5329,-3.5148,-3.5498,-3.5267,-3.4914,-3.4875,-3.4761,-3.453,-3.418,-3.4334,-3.4601,-3.4733,-3.4994,-3.5175,-3.5111,-3.5041,-3.497,-3.4923,-3.4899,-3.4899,-3.4899,-3.4899,-3.4899,-3.4899,-3.4899,-3.4286,-3.2834,-3.2017,-3.1288,-3.0555,-3.0506,-3.0506,-3.0506,-3.0506,-3.0506,-3.0506,-3.0506,-3.0506,-3.0506,-3.0506,-3.0506,-3.0468,-2.9496,-2.8904,0.0,0.0,0.0,0.0,0.0,0.0,0.0,0.0,-4.379,-4.4139,-4.4072,-4.3958,-4.3944,-4.3946,-4.4183,-4.4893,-4.5148,-4.5471,-4.6132,-4.6191,-4.6099,-4.5901,-4.5901,-4.591,-4.5893,-4.5906,-4.5918,-4.5932,-4.5974,-4.5986,-4.5923,-4.5966,-4.5943,-4.5827,-4.5566,-4.5436,-4.5531,-4.5208,-4.5091,-4.5136,-4.5114,-4.5038,-4.4919,-4.4256,-4.3865,-4.3655,-4.2936,-4.2486,-4.214,-4.0836,-3.9477,-3.8123,-3.7339,-3.6761,-3.6346,-3.5805,-3.56,-3.56,-3.56,-3.56,-3.56,-3.56,-3.56,-3.56,-3.56,-3.56,-3.56,-3.56,-3.5498,-3.5414,-3.5566,-3.5459,-3.5386,-3.5441,-3.4907,-3.4331,-3.4191,-3.4074,-3.4034,-3.422,-3.4711,-3.5101,-3.5182,-3.5111,-3.5041,-3.4923,-3.4899,-3.4899,-3.4899,-3.4899,-3.4899,-3.4899,-3.4899,-3.4286,-3.2834,-3.1487,-3.0654,-3.0506,-3.0506,-3.0506,-3.0506,-3.0506,-3.0506,-3.0506,-3.0506,-3.0506,-3.0506,-3.0506,-3.0506,-3.0489,-3.0113,-2.9639,-4.4838,-4.5098,-4.539,-4.5561,-4.506,-4.4796,0.0,0.0,-4.505,-4.5845,-4.5398,-4.4852,-4.4854,-4.4854,-4.4893,-4.4971,-4.5656,-4.6184,-4.6287,-4.6187,-4.5833,-4.5121,-4.5592,-4.5964,-4.5917,-4.5899,-4.5918,-4.598,-4.6008,-4.5997,-4.5991,-4.6,-4.5969,-4.588,-4.5623,-4.5526,-4.5588,-4.5145,-4.5038,-4.5286,-4.5159,-4.5103,-4.5049,-4.4517,-4.3762,-4.2854,-4.159,-4.0594,-3.9871,-3.969,-3.9057,-3.814,-3.7632,-3.7189,-3.6721,-3.5898,-3.56,-3.56,-3.56,-3.56,-3.56,-3.56,-3.56,-3.56,-3.56,-3.56,-3.56,-3.56,-3.5131,-3.4776,-3.543,-3.5026,-3.46,-3.517,-3.5155,-3.4812,-3.4162,-3.4012,-3.408,-3.4337,-3.4343,-3.4566,-3.5328,-3.5268,-3.5041,-3.4923,-3.4899,-3.4899,-3.4899,-3.4899,-3.4899,-3.4899,-3.4899,-3.4286,-3.2834,-3.1951,-3.1201,-3.0539,-3.0506,-3.0506,-3.0506,-3.0506,-3.0506,-3.0506,-3.0506,-3.0506,-3.0506,-3.0506,-3.0506,-3.0506,-3.0464,-2.9962,-4.5011,-4.5205,0.0,0.0,-4.5376,-4.5344,-4.5935,-4.5815,-4.5724,-4.6197,-4.5617,-4.5148,-4.5656,-4.5343,-4.5168,0.0,-4.6066,-4.6302,-4.6308,-4.5781,-4.5258,-4.4883,-4.4666,-4.4714,-4.5151,-4.5243,-4.5467,-4.5956,-4.6,-4.6,-4.6,-4.5991,-4.5991,-4.5964,-4.5745,-4.5621,-4.5657,-4.5301,-4.5192,-4.5297,-4.5235,-4.5213,-4.5192,-4.4565,-4.3867,-4.3113,-4.2479,-4.1756,-4.1042,-4.0449,-3.998,-3.9512,-3.8062,-3.7531,-3.7471,-3.6396,-3.5827,-3.56,-3.56,-3.56,-3.56,-3.56,-3.56,-3.56,-3.56,-3.5295,-3.4962,-3.4962,-3.4438,-3.4032,-3.4776,-3.4682,-3.4587,-3.5318,-3.507,-3.4622,-3.4353,-3.4259,-3.4275,-3.4435,-3.4751,-3.511,-3.5441,-3.5337,-3.5175,-3.5058,-3.4947,-3.4899,-3.4899,-3.4899,-3.4899,-3.4899,-3.4518,-3.3822,-3.2801,-3.2034,-3.1283,-3.0555,-3.0506,-3.0506,-3.0506,-3.0506,-3.0506,-3.0506,-3.0506,-3.0506,-3.0506,-3.0506,-3.0506,-3.0506,-3.0506,-3.0135,-4.5045,0.0,0.0,-4.55,-4.5611,-4.5744,-4.5964,-4.6049,-4.6069,-4.5961,-4.5441,-4.5129,-4.5519,-4.507,-4.4933,-4.5792,-4.5948,-4.5931,-4.5937,-4.5311,-4.468,-4.4177,-4.3543,-4.3363,-4.3956,-4.4461,-4.5107,-4.5931,-4.6011,-4.6002,-4.6002,-4.6002,-4.6002,-4.6002,-4.5787,-4.5708,-4.5708,-4.5429,-4.5307,-4.5307,-4.5307,-4.5307,-4.5267,-4.4391,-4.3661,-4.3082,-4.2774,-4.2207,-4.1473,-4.0718,-4.0249,-3.9872,-3.8294,-3.7714,-3.7652,-3.6786,-3.6092,-3.56,-3.56,-3.56,-3.56,-3.56,-3.56,-3.56,-3.56,-3.5081,-3.4539,-3.4742,-3.4269,-3.388,-3.4607,-3.4793,-3.4945,-3.5459,-3.5121,-3.4661,-3.4469,-3.4462,-3.4549,-3.4623,-3.5172,-3.5663,-3.5837,-3.5761,-3.5655,-3.5566,-3.5385,-3.5171,-3.4947,-3.4899,-3.4899,-3.4899,-3.4419,-3.3707,-3.2785,-3.2216,-3.1499,-3.0555,-3.0506,-3.0506,-3.0506,-3.0506,-3.0506,-3.0506,-3.0506,-3.0506,-3.0506,-3.0506,-3.0506,-3.0506,-3.0506,-3.0321,-4.4812,0.0,-4.5484,-4.5796,-4.5892,-4.5969,-4.6238,-4.6298,-4.6044,-4.5205,-4.501,-4.4758,-4.3938,-4.3764,-4.4016,-4.4894,-4.5049,-4.5031,-4.5031,-4.4901,-4.4204,-4.2573,-4.2307,-4.2242,0.0,-4.3756,-4.5052,-4.5938,-4.6002,-4.6002,-4.6002,-4.6002,-4.6002,-4.6002,-4.5787,-4.5708,-4.5708,-4.5429,-4.5307,-4.5307,-4.5307,-4.5307,-4.5248,-4.387,-4.2895,-4.2304,-4.1499,-4.0661,-3.9847,-3.9692,-3.9154,-3.8363,-3.8225,-3.7667,-3.6935,-3.6898,-3.635,-3.56,-3.56,-3.56,-3.56,-3.56,-3.56,-3.56,-3.56,-3.5081,-3.4641,-3.5363,-3.5047,-3.4641,-3.538,-3.5566,-3.556,-3.5498,-3.5475,-3.5233,-3.4382,-3.4515,-3.4843,-3.4947,-3.5332,-3.5871,-3.67,-3.6744,-3.6666,-3.6646,-3.6361,-3.5847,-3.5001,-3.4899,-3.4899,-3.4899,-3.4883,-3.427,-3.2834,-3.2685,-3.205,-3.0588,-3.0506,-3.0506,-3.0506,-3.0506,-3.0506,-3.0506,-3.0506,-3.0506,-3.0506,-3.0506,-3.0506,-3.0506,-3.0506,-3.0489,-4.5085,0.0,-4.5457,-4.5645,-4.578,-4.5865,-4.5992,-4.6102,-4.595,-4.5162,-4.4543,-4.4055,-4.3743,-4.3235,-4.3118,-4.3997,-4.4621,-4.499,-4.499,-4.4921,-4.4445,-4.3299,-4.2594,0.0,0.0,0.0,0.0,-4.5084,-4.52,-4.5433,-4.5963,-4.6002,-4.6002,-4.6002,-4.5787,-4.5708,-4.5708,-4.5429,-4.5307,-4.5307,-4.5307,-4.5087,-4.4695,-4.4197,-4.3379,-4.2286,-4.2011,-4.1444,-4.0606,-3.9993,-3.9853,-3.9911,-3.8723,-3.8257,-3.8123,-3.723,-3.6557,-3.6023,-3.5711,-3.56,-3.56,-3.56,-3.56,-3.56,-3.56,-3.5081,-3.4438,-3.4218,-3.3964,-3.3829,-3.4083,-3.4506,-3.5062,-3.5856,-3.6041,-3.602,-3.6001,-3.6099,-3.62,-3.6257,-3.6359,-3.6564,-3.6847,-3.6783,-3.6669,-3.6571,-3.6361,-3.6041,-3.5621,-3.5571,-3.5571,-3.5571,-3.5362,-3.4839,-3.3835,-3.3567,-3.2796,-3.1317,-3.1234,-3.1002,-3.0522,-3.0506,-3.0506,-3.0506,-3.0506,-3.0506,-3.0506,-3.0506,-3.0506,-3.0506,-3.0506,-3.0506,-4.5118,-4.5332,-4.5448,-4.5635,-4.5734,-4.5822,-4.5878,-4.574,-4.5379,-4.4626,-4.3799,-4.3103,-4.2824,-4.2318,-4.222,-4.3099,-4.3977,-4.4543,-4.4543,-4.4746,-4.4585,-4.3708,-4.3045,0.0,0.0,0.0,0.0,-4.4695,-4.5064,-4.5453,-4.5963,-4.6002,-4.6002,-4.6002,-4.5787,-4.5708,-4.5708,-4.5429,-4.5307,-4.5307,-4.5307,-4.4976,-4.4397,-4.4397,-4.3789,-4.2708,-4.2415,-4.1846,-4.104,-4.017,-3.99,-3.9939,-3.8755,-3.8378,-3.8365,-3.746,-3.6761,-3.6237,-3.5761,-3.56,-3.56,-3.56,-3.5414,-3.5267,-3.5515,-3.4726,-3.3711,-3.3778,-3.3609,-3.3457,-3.3728,-3.4465,-3.5271,-3.5752,-3.5973,-3.6157,-3.6418,-3.6575,-3.6777,-3.706,-3.7246,-3.7357,-3.7357,-3.7283,-3.719,-3.702,-3.6902,-3.6643,-3.6172,-3.6045,-3.6041,-3.6109,-3.5916,-3.547,-3.464,-3.428,-3.3534,-3.2262,-3.1795,-3.1383,-3.0903,-3.0638,-3.0506,-3.0506,-3.0506,-3.0506,-3.0506,-3.0506,-3.0506,-3.0506,-3.0506,-3.0506,-4.4985,-4.5211,-4.5475,-4.5734,-4.5793,-4.5796,-4.5828,-4.5239,-4.4453,-4.3599,-4.2822,-4.2045,-4.1236,-4.1087,-4.1379,-4.2259,-4.3138,-4.3725,-4.3762,-4.4452,-4.4642,0.0,0.0,0.0,0.0,0.0,0.0,-4.4734,0.0,-4.5963,-4.6002,-4.6002,-4.6002,-4.6002,-4.5787,-4.5708,-4.5708,-4.5429,-4.5307,-4.5307,-4.5307,-4.4976,-4.4397,-4.4397,-4.4031,-4.3331,-4.2561,-4.1772,-4.0912,-4.0079,-3.926,-3.8494,-3.8354,-3.807,-3.7721,-3.7578,-3.7017,-3.6284,-3.5827,-3.5644,-3.56,-3.56,-3.5131,-3.4692,-3.538,-3.4134,-3.275,-3.4159,-3.4041,-3.363,-3.4333,-3.539,-3.6063,-3.5304,-3.5449,-3.5776,-3.576,-3.6094,-3.6613,-3.7399,-3.7898,-3.8209,-3.8209,-3.8209,-3.8141,-3.7934,-3.7899,-3.7577,-3.6671,-3.6385,-3.634,-3.6531,-3.6551,-3.6174,-3.5278,-3.4881,-3.4279,-3.3355,-3.2288,-3.1669,-3.162,-3.0907,-3.0506,-3.0506,-3.0506,-3.0506,-3.0506,-3.0506,-3.0506,-3.0506,-3.0506,-3.0506,-4.5222,-4.5371,-4.5504,-4.5618,-4.5643,-4.551,-4.4976,-4.4699,-4.4155,-4.2757,-4.2294,-4.191,-4.1162,-4.1037,-4.1323,-4.2254,-4.3138,0.0,-4.4582,-4.5351,0.0,-4.4662,0.0,-4.421,-4.3563,-4.4093,0.0,0.0,-4.4986,-4.5375,-4.5963,-4.6002,-4.6002,-4.6002,-4.5787,-4.5708,-4.5708,-4.5429,-4.5307,-4.5307,-4.5307,-4.4976,-4.4397,-4.4397,-4.3416,-4.1699,-4.1515,-4.06,-3.9279,-3.9061,-3.886,-3.8643,-3.8451,-3.8302,-3.8152,-3.7685,-3.7377,-3.7114,-3.6721,-3.6139,-3.56,-3.56,-3.5464,-3.5346,-3.5532,-3.5194,-3.4791,-3.497,-3.4861,-3.4661,-3.4603,-3.5211,-3.5731,-3.5223,-3.6095,-3.6969,-3.6716,-3.7229,-3.7767,-3.7966,-3.8123,-3.8209,-3.8209,-3.8209,-3.8192,-3.8141,-3.8004,-3.7757,-3.7375,-3.7281,-3.7262,-3.7301,-3.7092,-3.6849,-3.6617,-3.6104,-3.5465,-3.4669,-3.3457,-3.2576,-3.206,-3.1054,-3.0506,-3.0506,-3.0506,-3.0506,-3.0506,-3.0506,-3.0506,-3.0506,-3.0506,-3.0506,-4.5371,-4.5476,-4.5513,-4.5577,-4.5306,-4.5024,-4.4986,-4.4411,-4.3759,-4.3251,-4.2549,0.0,-4.1594,-4.1244,0.0,0.0,0.0,0.0,-4.4367,-4.5448,-4.6027,0.0,-4.5398,0.0,-4.4637,-4.5045,-4.5336,0.0,-4.5336,-4.5511,-4.5982,-4.6002,-4.6002,-4.6002,-4.5787,-4.5632,-4.5531,-4.538,-4.5307,-4.5307,-4.5307,-4.4863,-4.4044,-4.3925,-4.2911,-4.1248,0.0,-4.0065,-3.9203,-3.8854,-3.8707,-3.8673,-3.8512,-3.843,-3.835,-3.7983,-3.7703,-3.7469,-3.7246,-3.6741,-3.6182,-3.6182,-3.5958,-3.5752,-3.6057,-3.5717,-3.5228,-3.5404,-3.5183,-3.4838,-3.4649,-3.5273,-3.5827,-3.5224,-3.6217,-3.7232,-3.7036,-3.7357,-3.7774,-3.8136,-3.8209,-3.8209,-3.8209,-3.8209,-3.8209,-3.8209,-3.8089,-3.7986,-3.7881,-3.7775,-3.7757,-3.7846,-3.7685,-3.7558,-3.7466,-3.698,-3.6474,-3.6013,-3.4455,-3.3339,-3.2887,-3.1489,-3.0692,-3.0589,-3.0526,-3.0526,-3.0589,-3.0526,-3.0531,-3.0589,-3.0526,-3.0506,-4.5485,-4.5504,-4.5522,-4.5586,-4.5037,-4.4643,-4.5287,-4.4297,-4.3453,-4.4163,0.0,-4.2098,-4.2167,-4.1617,-4.1178,-4.1259,0.0,-4.3606,-4.384,-4.5116,-4.6066,-4.6183,-4.608,-4.6002,-4.6002,-4.6002,-4.6002,-4.6002,-4.6002,-4.6002,-4.6002,-4.6002,-4.5997,-4.5986,-4.58,-4.5584,-4.5338,-4.5317,-4.5307,-4.5307,-4.5182,-4.4587,-4.3594,-4.3195,-4.2413,-4.1286,-4.0317,0.0,-3.968,-3.9001,-3.8707,-3.8692,-3.8559,-3.8462,-3.8399,-3.8322,-3.8001,-3.7596,-3.7596,-3.7429,-3.7214,-3.7097,-3.6638,-3.6217,-3.6865,-3.6166,-3.5254,-3.5853,-3.5466,-3.485,-3.4905,-3.5652,-3.6184,-3.538,-3.6188,-3.7122,-3.7013,-3.7085,-3.7375,-3.8064,-3.8209,-3.8209,-3.8209,-3.8209,-3.8209,-3.8209,-3.8209,-3.8209,-3.8209,-3.8056,-3.8021,-3.8192,-3.8209,-3.8141,-3.7951,-3.7506,-3.7162,-3.7045,-3.5093,-3.3837,-3.3616,-3.1964,-3.0938,-3.0733,-3.0609,-3.0609,-3.0733,-3.0609,-3.0609,-3.0712,-3.0609,-3.0568,-4.5495,-4.5531,-4.5586,-4.5594,-4.5498,-4.5229,-4.4662,-4.4297,0.0,0.0,-4.3107,-4.2724,-4.2208,-4.1995,0.0,-4.2149,0.0,0.0,0.0,0.0,-4.5398,0.0,0.0,0.0,0.0,0.0,0.0,0.0,0.0,-4.6002,-4.6002,-4.6002,-4.5969,-4.5925,-4.5783,-4.5616,-4.5467,-4.535,-4.5307,-4.5288,-4.4571,-4.4005,-4.3576,-4.258,-4.1533,-4.0484,-4.0078,0.0,-3.8909,-3.8762,-3.8707,-3.8692,-3.8559,-3.8476,-3.8478,-3.8338,-3.8239,-3.8138,-3.8088,-3.847,-3.8852,-3.8141,-3.7797,-3.773,-3.785,-3.7712,-3.7455,-3.7268,-3.663,-3.6096,-3.6477,-3.6737,-3.668,-3.5869,-3.6857,-3.781,-3.714,-3.752,-3.8028,-3.8172,-3.8209,-3.8209,-3.8209,-3.8209,-3.8209,-3.8209,-3.8209,-3.8209,-3.8209,-3.8175,-3.8175,-3.8192,-3.8209,-3.8192,-3.8158,-3.7321,-3.6789,-3.6771,-3.4818,-3.349,-3.3154,-3.197,-3.1181,-3.0871,-3.0851,-3.0851,-3.0871,-3.0851,-3.0851,-3.0871,-3.0851,-3.0831,-4.5675,-4.5914,-4.6163,-4.571,-4.5267,-4.494,-4.4979,0.0,0.0,0.0,-4.4047,-4.3528,-4.2895,0.0,0.0,0.0,0.0,0.0,0.0,0.0,0.0,0.0,0.0,0.0,0.0,0.0,0.0,0.0,0.0,-4.6002,-4.6002,-4.6002,-4.5958,-4.59,-4.5769,-4.5643,-4.5504,-4.537,-4.5307,-4.5288,-4.4418,-4.3706,-4.3151,-4.1995,-4.0898,-3.9864,-3.961,0.0,-3.8707,-3.8707,-3.8707,-3.8692,-3.8624,-3.8834,-3.917,-3.9108,-3.9296,-3.9592,-3.9526,-3.9746,-4.0075,-3.9998,-3.9685,-3.9274,-3.8881,-3.8774,-3.865,-3.8043,-3.7287,-3.6709,-3.6946,-3.6995,-3.6904,-3.6508,-3.7323,-3.81,-3.772,-3.7937,-3.8209,-3.8209,-3.8209,-3.8209,-3.8209,-3.8209,-3.8209,-3.8209,-3.8209,-3.8209,-3.8209,-3.8209,-3.8209,-3.8209,-3.8209,-3.8209,-3.8209,-3.7763,-3.7315,-3.6882,-3.5429,-3.4266,-3.3547,-3.2313,-3.1545,-3.1257,-3.1015,-3.0912,-3.0952,-3.0912,-3.0932,-3.0952,-3.0912,-3.0892,-4.5787,-4.6105,-4.6471,-4.5768,-4.5094,-4.4759,-4.5441,-4.5075,0.0,0.0,-4.5056,-4.4384,-4.3768,0.0,0.0,0.0,0.0,0.0,0.0,0.0,0.0,0.0,0.0,0.0,0.0,0.0,0.0,0.0,0.0,0.0,-4.6002,-4.6002,-4.5989,-4.5912,-4.5783,-4.566,-4.5549,-4.5207,-4.501,-4.501,-4.3959,-4.3138,-4.2478,-4.1358,-4.039,-3.9575,-3.9232,0.0,0.0,-3.8977,-3.9056,-3.9221,-3.9221,-3.9577,-4.0081,-4.0065,-4.0397,-4.0823,-4.0739,-4.0831,-4.1051,-4.1579,-4.118,-4.0383,-3.9804,-3.9532,-3.9224,-3.8426,-3.7738,-3.7267,-3.7267,-3.7267,-3.7267,-3.7267,-3.7738,-3.8209,-3.8209,-3.8209,-3.8209,-3.8209,-3.8209,-3.8209,-3.8209,-3.8209,-3.8209,-3.8209,-3.8209,-3.8209,-3.8209,-3.8209,-3.8209,-3.8209,-3.8209,-3.8209,-3.8209,-3.8046,-3.7665,-3.7049,-3.5925,-3.4916,-3.4025,-3.2756,-3.1967,-3.175,-3.1295,-3.1114,-3.1157,-3.1015,-3.0992,-3.1035,-3.0992,-3.0972,-4.5614,-4.5671,-4.571,-4.5614,-4.5537,-4.5498,-4.5575,0.0,0.0,-4.5575,-4.5537,-4.5271,-4.4602,-4.3825,-4.3056,0.0,0.0,-4.1498,0.0,0.0,0.0,0.0,0.0,0.0,0.0,0.0,0.0,0.0,0.0,0.0,-4.6002,-4.6002,-4.5997,-4.5991,-4.5807,-4.568,-4.5692,-4.4643,-4.4121,-4.4102,-4.2507,-4.1686,-4.159,-4.0503,-3.9968,-3.9829,-3.9324,0.0,0.0,-3.9878,-4.0212,-4.0875,-4.0875,-4.093,-4.0969,-4.0903,-4.0924,-4.0963,-4.0842,-4.123,-4.1796,-4.1851,-4.1252,-4.0474,-4.042,-3.993,-3.9224,-3.8426,-3.8154,-3.81,-3.81,-3.81,-3.81,-3.81,-3.8154,-3.8209,-3.8209,-3.8209,-3.8209,-3.8209,-3.8209,-3.8209,-3.8209,-3.8209,-3.8209,-3.8209,-3.8209,-3.8209,-3.8209,-3.8209,-3.8209,-3.8209,-3.8209,-3.8209,-3.8209,-3.7538,-3.7085,-3.6995,-3.5532,-3.4472,-3.4023,-3.3174,-3.2568,-3.2231,-3.1841,-3.1638,-3.1621,-3.1312,-3.1171,-3.1171,-3.1171,-3.1171,-4.5748,-4.597,-4.6259,-4.5729,-4.5594,-4.5594,-4.5594,0.0,-4.5594,-4.5594,-4.5594,-4.5406,-4.4719,-4.3942,-4.3173,-4.2518,-4.1674,0.0,0.0,0.0,0.0,0.0,0.0,0.0,0.0,0.0,0.0,0.0,0.0,0.0,-4.6002,-4.6002,-4.6002,-4.6002,-4.5311,-4.4917,-4.4917,-4.3828,-4.3291,-4.3271,-4.2068,-4.1495,-4.1476,-4.0548,-4.0048,-3.9911,-4.0191,0.0,0.0,-4.0766,-4.104,-4.132,-4.1174,-4.1389,-4.1811,-4.1794,-4.1777,-4.176,-4.1676,-4.1479,-4.1208,-4.0701,-3.994,-3.9308,-3.973,-3.9278,-3.8517,-3.7701,-3.7828,-3.8209,-3.8209,-3.8209,-3.8209,-3.8209,-3.8209,-3.8209,-3.8209,-3.8209,-3.8209,-3.8209,-3.8209,-3.8209,-3.8209,-3.8209,-3.8209,-3.8209,-3.8209,-3.8209,-3.8209,-3.8209,-3.8209,-3.8209,-3.8209,-3.8209,-3.8209,-3.7919,-3.7321,-3.6345,-3.5693,-3.4816,-3.37,-3.3102,-3.2731,-3.2601,-3.2248,-3.195,-3.1695,-3.1564,-3.1389,-3.119,-3.119,-3.119,-4.5768,-4.6047,-4.6374,-4.5748,-4.5594,-4.5594,0.0,0.0,-4.5594,-4.5594,-4.5637,-4.5526,-4.5079,-4.4341,-4.3596,-4.2893,-4.2045,-4.1381,0.0,0.0,0.0,0.0,0.0,0.0,0.0,0.0,0.0,0.0,0.0,0.0,0.0,-4.6002,-4.5885,-4.5652,-4.4846,-4.428,-4.4029,-4.2955,-4.2412,-4.2412,-4.1552,-4.1151,-4.1132,-4.0807,-4.0558,-4.0416,-4.1168,0.0,0.0,-4.1875,-4.1992,-4.1967,-4.197,-4.214,-4.2437,-4.2595,-4.2506,-4.2288,-4.2238,-4.149,-4.0451,-3.982,-3.8747,-3.777,-3.8238,-3.797,-3.7392,-3.6814,-3.723,-3.7901,-3.8136,-3.8209,-3.8209,-3.8209,-3.8209,-3.8209,-3.8209,-3.8209,-3.8209,-3.8209,-3.8209,-3.8209,-3.8209,-3.8209,-3.8209,-3.8209,-3.8209,-3.8209,-3.8209,-3.8209,-3.8209,-3.8209,-3.8209,-3.8209,-3.8209,-3.8209,-3.7612,-3.6236,-3.5931,-3.517,-3.381,-3.324,-3.2988,-3.2988,-3.2536,-3.2162,-3.1878,-3.1657,-3.1428,-3.119,-3.119,-3.119,-4.5622,-4.5614,-4.5614,-4.5594,-4.5594,-4.5594,0.0,-4.5594,-4.5594,-4.5594,-4.5715,-4.5828,-4.5878,-4.528,-4.454,-4.3816,-4.2962,0.0,0.0,0.0,0.0,0.0,0.0,0.0,0.0,0.0,0.0,0.0,0.0,0.0,0.0,-4.6002,-4.5633,-4.4831,-4.453,-4.399,-4.3122,-4.2054,-4.1514,-4.1495,-4.0711,-4.0301,-4.0339,-4.1132,-4.1495,0.0,0.0,0.0,0.0,-4.3295,-4.3144,-4.3132,-4.374,-4.3451,-4.2758,-4.3286,-4.2983,-4.2304,-4.2304,-4.1156,-3.9719,-3.9701,-3.8029,-3.6018,-3.6036,-3.5975,-3.5914,-3.5835,-3.6381,-3.7194,-3.7991,-3.8209,-3.8209,-3.8209,-3.8209,-3.8209,-3.8209,-3.8209,-3.8209,-3.8209,-3.8209,-3.8209,-3.8209,-3.8209,-3.8209,-3.8209,-3.8209,-3.8209,-3.8209,-3.8209,-3.8209,-3.8209,-3.8209,-3.8209,-3.8209,-3.8209,-3.7846,-3.7049,-3.6236,-3.5442,-3.4609,-3.3828,-3.3393,-3.3393,-3.2685,-3.23,-3.23,-3.1562,-3.121,-3.119,-3.119,-3.119,-4.5612,-4.564,-4.5648,-4.5603,-4.564,-4.5648,-4.5622,-4.564,-4.5648,-4.5622,-4.5715,-4.5809,-4.5883,-4.4813,-4.3877,-4.3718,-4.2474,0.0,0.0,0.0,0.0,0.0,0.0,0.0,0.0,0.0,0.0,0.0,0.0,0.0,0.0,-4.4617,-4.4443,-4.4792,-4.4046,-4.3201,-4.2293,-4.1256,-4.1004,-4.1495,-4.1246,-4.1437,-4.203,-4.2278,-4.2049,0.0,0.0,0.0,0.0,-4.2465,-4.2566,-4.2548,-4.2565,-4.2403,-4.217,-4.2346,-4.1907,-4.1096,-4.037,-3.9486,-3.8463,-3.7178,-3.6311,-3.5678,-3.5089,-3.5022,-3.5275,-3.5896,-3.6518,-3.713,-3.7644,-3.8107,-3.8449,-3.8621,-3.8686,-3.8686,-3.8686,-3.8686,-3.8686,-3.8686,-3.8686,-3.8686,-3.8686,-3.8686,-3.8624,-3.8433,-3.8417,-3.837,-3.8225,-3.8209,-3.8209,-3.8209,-3.8209,-3.8209,-3.8209,-3.8209,-3.7865,-3.7049,-3.6236,-3.5442,-3.4643,-3.3828,-3.3393,-3.3393,-3.318,-3.2928,-3.2634,-3.2401,-3.2021,-3.1543,-3.1543,-3.1428,0.0,-4.5676,-4.5701,-4.5646,-4.5673,0.0,0.0,-4.5648,-4.5648,-4.5614,-4.5723,-4.5756,-4.5456,-4.4663,-4.3885,-4.329,-4.2298,0.0,0.0,0.0,0.0,0.0,0.0,0.0,0.0,0.0,0.0,0.0,0.0,0.0,0.0,-4.3976,-4.3607,-4.3802,-4.3164,-4.2524,-4.195,-4.1243,-4.1285,-4.2067,-4.1686,-4.1781,-4.2316,-4.2316,-4.2011,0.0,0.0,0.0,0.0,-4.2354,-4.2289,-4.2001,-4.2038,-4.187,-4.1619,-4.1835,-4.1177,-4.0114,-3.9453,-3.8346,-3.7064,-3.5899,-3.5385,-3.5154,-3.4595,-3.4519,-3.4797,-3.5693,-3.6421,-3.7044,-3.759,-3.8247,-3.8789,-3.8913,-3.8942,-3.8927,-3.8906,-3.891,-3.891,-3.891,-3.891,-3.891,-3.891,-3.891,-3.8833,-3.8664,-3.8649,-3.8621,-3.8483,-3.837,-3.8305,-3.8305,-3.8241,-3.8082,-3.7774,-3.7756,-3.7538,-3.7031,-3.5965,-3.5116,-3.4609,-3.3828,-3.3393,-3.3393,-3.3256,-3.3052,-3.2795,-3.2666,-3.2368,-3.1932,-3.1932,-3.1805,0.0,-4.5709,0.0,0.0,0.0,0.0,-4.5682,-4.561,0.0,-4.5516,-4.5673,-4.553,-4.4676,-4.4686,-4.4288,-4.2669,0.0,0.0,0.0,0.0,0.0,0.0,0.0,0.0,0.0,0.0,0.0,0.0,0.0,0.0,0.0,-4.3782,-4.2966,-4.2214,-4.202,-4.1955,-4.2007,-4.1817,-4.2151,-4.2988,-4.1991,-4.1543,-4.159,-4.159,-4.1533,0.0,0.0,0.0,0.0,-4.2526,-4.2087,-4.1456,-4.1963,-4.1654,-4.1014,-4.1519,-4.0666,-3.9276,-3.9177,-3.7662,-3.5743,-3.5686,-3.5171,-3.4551,-3.4551,-3.4434,-3.4461,-3.5233,-3.6104,-3.6957,-3.7686,-3.8545,-3.9192,-3.909,-3.9063,-3.904,-3.8989,-3.8964,-3.8964,-3.8964,-3.8964,-3.8964,-3.8979,-3.8979,-3.8964,-3.895,-3.895,-3.8935,-3.8921,-3.8691,-3.8554,-3.8554,-3.8314,-3.7842,-3.7114,-3.7011,-3.6977,-3.6922,-3.5457,-3.4606,-3.4606,-3.3828,-3.3393,-3.3393,-3.3019,-3.2827,-3.2827,-3.2536,-3.2368,-3.2351,-3.2351,-3.2334,-4.5785,0.0,-4.5692,-4.57,-4.5237,-4.4932,0.0,-4.5173,-4.4707,-4.4746,0.0,-4.4671,-4.3892,-4.3351,-4.2884,0.0,0.0,0.0,0.0,0.0,0.0,0.0,0.0,0.0,0.0,0.0,0.0,0.0,0.0,0.0,0.0,-4.1976,-4.1723,-4.2194,-4.1514,-4.1435,-4.1987,-4.1957,-4.2293,-4.2988,-4.208,-4.1942,-4.2488,-4.2488,-4.18,0.0,0.0,0.0,-3.989,-3.989,-4.0177,-4.0587,-4.0721,-4.0243,-3.9509,-3.9632,-3.9003,-3.7975,-3.717,-3.6633,-3.6196,-3.553,-3.5188,-3.5044,-3.5044,-3.4725,-3.4439,-3.4795,-3.5814,-3.6918,-3.7389,-3.8505,-3.9532,-3.967,-3.9693,-3.9682,-3.9677,-3.9665,-3.9665,-3.9665,-3.9665,-3.9658,-3.967,-3.9658,-3.9599,-3.9452,-3.9439,-3.9357,-3.9163,-3.9077,-3.9049,-3.9049,-3.826,-3.7662,-3.7492,-3.7182,-3.6741,-3.6127,-3.515,-3.4606,-3.4606,-3.3828,-3.3393,-3.3393,-3.3319,-3.3256,-3.3256,-3.3178,-3.299,-3.2682,-3.2682,-3.2535,-4.581,-4.5769,-4.5654,-4.5248,-4.5106,-4.5055,-4.5093,0.0,0.0,0.0,0.0,0.0,0.0,0.0,0.0,0.0,0.0,0.0,0.0,0.0,0.0,0.0,0.0,0.0,0.0,0.0,0.0,0.0,0.0,0.0,0.0,-4.163,-4.1144,-4.1592,-4.1183,-4.132,-4.2089,-4.1631,-4.159,-4.1935,-4.0965,-4.0712,-4.1101,-4.0663,-3.9966,0.0,0.0,0.0,-3.84,-3.84,-3.8686,-3.9107,-3.9107,-3.882,-3.84,-3.84,-3.7865,-3.7064,-3.6481,-3.6117,-3.5832,-3.5354,-3.5209,-3.5209,-3.5209,-3.499,-3.4803,-3.4898,-3.5769,-3.6807,-3.7386,-3.8439,-3.944,-3.9889,-3.9994,-3.9965,-3.9911,-3.99,-3.99,-3.99,-3.99,-3.99,-3.9892,-3.99,-3.9867,-3.9747,-3.9735,-3.9682,-3.9537,-3.9433,-3.9221,-3.8827,-3.8162,-3.744,-3.6703,-3.6342,-3.6085,-3.5849,-3.4743,-3.4238,-3.4588,-3.3828,-3.3393,-3.3393,-3.3393,-3.3393,-3.3393,-3.3393,-3.3286,-3.3083,-3.3083,-3.299,-4.5425,-4.5425,-4.5276,-4.4655,-4.4804,-4.4951,-4.4341,0.0,0.0,0.0,0.0,0.0,0.0,0.0,0.0,0.0,0.0,0.0,0.0,0.0,0.0,0.0,0.0,0.0,0.0,0.0,0.0,0.0,0.0,0.0,0.0,-4.1574,-4.0785,-4.0716,-4.0653,-4.0945,-4.1601,-4.0915,-4.0548,-4.0492,-3.9453,-3.8966,-3.8923,-3.8109,-3.7677,-3.7553,0.0,0.0,-3.7521,-3.7521,-3.7597,-3.7693,-3.7693,-3.7617,-3.7521,-3.7521,-3.7005,-3.629,-3.629,-3.5812,-3.5209,-3.5209,-3.5209,-3.5209,-3.5209,-3.5209,-3.5209,-3.5209,-3.5908,-3.6806,-3.7368,-3.8343,-3.9308,-3.9814,-4.0041,-4.0106,-3.9994,-3.9954,-3.9954,-3.9954,-3.9954,-3.9954,-3.9954,-3.9954,-3.9954,-3.9954,-3.9954,-3.9954,-3.9954,-3.969,-3.9241,-3.8494,-3.7932,-3.7056,-3.5656,-3.5237,-3.5197,-3.5536,-3.4269,-3.3804,-3.4419,-3.3785,-3.3422,-3.3422,-3.3422,-3.3422,-3.3422,-3.3422,-3.3422,-3.3422,-3.3422,-3.3422,-4.3692,-4.373,-4.3897,-4.4387,-4.347,-4.2618,-4.3169,-4.2163,0.0,0.0,0.0,0.0,0.0,0.0,0.0,0.0,0.0,0.0,0.0,0.0,0.0,0.0,0.0,0.0,0.0,0.0,0.0,0.0,0.0,0.0,0.0,-4.0035,-3.9894,-3.9877,-3.9221,-3.8919,-3.898,-3.9552,-3.9805,-3.9677,-3.8772,-3.8313,-3.8254,-3.804,-3.7548,-3.6853,0.0,-3.6676,-3.6672,-3.6672,-3.7101,-3.7693,-3.7693,-3.7273,-3.6672,-3.6672,-3.6137,-3.5392,-3.5392,-3.5297,-3.5209,-3.5209,-3.5209,-3.5209,-3.5209,-3.5209,-3.5209,-3.5209,-3.6317,-3.7387,-3.6825,-3.8372,-3.9938,-3.9308,-3.9728,-4.0253,-4.0244,-4.0234,-4.0234,-4.0234,-4.0234,-4.0234,-4.0234,-4.0234,-4.0234,-4.0234,-4.0234,-4.0234,-4.0234,-3.9567,-3.9042,-3.8909,-3.7384,-3.6214,-3.5784,-3.4894,-3.4264,-3.405,-3.3747,-3.3632,-3.3745,-3.3617,-3.3577,-3.3577,-3.3577,-3.3577,-3.3577,-3.3577,-3.3577,-3.3577,-3.3577,-3.3577,-4.3305,-4.2944,-4.2686,-4.3099,-4.2943,-4.2685,-4.2589,-4.1938,0.0,0.0,0.0,0.0,0.0,0.0,0.0,0.0,0.0,0.0,0.0,0.0,0.0,0.0,0.0,0.0,0.0,0.0,0.0,0.0,0.0,0.0,0.0,0.0,-3.9048,-3.9059,-3.8238,-3.7553,-3.7053,-3.7446,-3.7595,-3.7492,-3.7051,-3.6823,-3.6802,-3.6721,-3.6485,-3.6101,0.0,-3.5953,-3.5902,-3.5867,-3.6048,-3.6356,-3.6356,-3.6126,-3.5793,-3.5793,-3.5545,-3.5209,-3.5209,-3.5209,-3.5209,-3.5209,-3.5209,-3.5209,-3.5209,-3.5209,-3.5209,-3.5209,-3.5744,-3.6375,-3.6462,-3.7379,-3.8372,-3.8877,-3.9317,-3.9728,-4.0205,-4.0301,-4.0301,-4.0301,-4.0301,-4.0301,-4.0301,-4.0301,-4.0301,-4.0301,-4.0301,-4.0301,-4.0301,-3.9546,-3.882,-3.8343,-3.7117,-3.6093,-3.5524,-3.491,-3.4333,-3.3739,-3.3647,-3.3605,-3.3605,-3.3605,-3.3605,-3.3605,-3.3605,-3.3605,-3.3605,-3.3605,-3.3605,-3.3605,-3.3605,-3.3605,-4.2402,-4.1893,-4.1332,-4.1241,0.0,-4.2557,-4.1942,-4.1621,0.0,0.0,0.0,0.0,0.0,0.0,0.0,0.0,0.0,0.0,0.0,0.0,0.0,0.0,0.0,0.0,0.0,0.0,0.0,0.0,0.0,0.0,0.0,-3.8535,-3.8103,-3.7925,-3.7264,-3.6596,-3.5919,-3.5899,-3.5872,-3.5827,-3.5761,-3.5757,-3.5757,-3.5693,-3.5657,-3.5648,-3.5585,-3.5518,-3.5437,-3.5369,-3.5327,-3.527,-3.5242,-3.5218,-3.5209,-3.5209,-3.5209,-3.5209,-3.5209,-3.5209,-3.5209,-3.5209,-3.5209,-3.5209,-3.5209,-3.5209,-3.5209,-3.5209,-3.5209,-3.5354,-3.6023,-3.6634,-3.736,-3.8438,-3.9011,-3.9431,-3.99,-4.0148,-4.0244,-4.0034,-4.0148,-4.0301,-4.0301,-4.0129,-3.9995,-3.9995,-3.9995,-3.9919,-3.9709,-3.9107,-3.8362,-3.7502,-3.67,-3.591,-3.5189,-3.4936,-3.4548,-3.3928,-3.3788,-3.3712,-3.3643,-3.3661,-3.3661,-3.3661,-3.3661,-3.3661,-3.3661,-3.3661,-3.3661,-3.3661,-3.3661,-3.3661,-3.9801,-3.9771,-3.9578,-3.8772,-3.9656,-4.0742,-4.0863,-4.0211,0.0,-3.9699,0.0,0.0,0.0,0.0,0.0,0.0,0.0,0.0,0.0,0.0,0.0,0.0,0.0,0.0,0.0,0.0,0.0,0.0,0.0,0.0,-3.7418,-3.7323,-3.6952,-3.6208,-3.6111,-3.6024,-3.5906,-3.5903,-3.5892,-3.5883,-3.5887,-3.5897,-3.5897,-3.5872,-3.5833,-3.5775,-3.5713,-3.5655,-3.5587,-3.5512,-3.5476,-3.5464,-3.5342,-3.5242,-3.5209,-3.5209,-3.5209,-3.5209,-3.5209,-3.5209,-3.5209,-3.5209,-3.5209,-3.5209,-3.5209,-3.5209,-3.5209,-3.5209,-3.5209,-3.5209,-3.5286,-3.7063,-3.8648,-3.796,-3.903,-3.9995,-3.926,-3.9728,-4.0053,-3.926,-3.9747,-4.0301,-4.0301,-3.9642,-3.9088,-3.9088,-3.9088,-3.8801,-3.798,-3.7827,-3.7483,-3.6672,-3.5812,-3.52,-3.4945,-3.4684,-3.4508,-3.4453,-3.4255,-3.4049,-3.3807,-3.3793,-3.3793,-3.3793,-3.3793,-3.3793,-3.3793,-3.3793,-3.3793,-3.3793,-3.3793,-3.3793,-3.8777,-3.8777,-3.871,-3.8376,-3.8662,0.0,0.0,-3.9875,-3.9614,-3.97,-3.9475,0.0,0.0,0.0,0.0,0.0,0.0,0.0,0.0,0.0,0.0,0.0,0.0,0.0,0.0,0.0,0.0,0.0,0.0,0.0,0.0,-3.6416,-3.6262,-3.6014,-3.5996,-3.5992,-3.5965,-3.5952,-3.596,-3.5953,-3.5929,-3.5908,-3.5908,-3.5931,-3.5951,-3.5925,-3.5852,-3.5794,-3.571,-3.566,-3.5605,-3.5565,-3.5504,-3.5475,-3.5456,-3.5457,-3.5445,-3.5438,-3.5391,-3.5397,-3.5397,-3.5397,-3.5397,-3.5397,-3.5397,-3.5397,-3.5397,-3.5397,-3.5397,-3.5362,-3.5231,-3.5916,-3.67,-3.691,-3.7455,-3.7971,-3.8151,-3.8457,-3.8744,-3.8954,-3.9279,-3.9652,-4.0205,-3.9584,-3.9011,-3.9011,-3.9011,-3.8877,-3.8553,-3.8037,-3.7578,-3.7273,-3.6031,-3.5176,-3.5089,-3.4981,-3.4889,-3.4763,-3.4526,-3.4279,-3.4061,-3.4049,-3.3972,-3.3788,-3.3807,-3.3807,-3.3807,-3.3807,-3.3807,-3.3807,-3.3807,-3.3807,-3.7945,-3.7926,-3.7852,-3.7572,0.0,0.0,-3.8736,-3.9343,-3.9769,-4.0143,-3.978,0.0,0.0,0.0,0.0,0.0,0.0,0.0,0.0,0.0,0.0,0.0,0.0,0.0,0.0,0.0,0.0,0.0,0.0,0.0,0.0,-3.5914,-3.5923,-3.5964,-3.5973,-3.5976,-3.5996,-3.6009,-3.6002,-3.6002,-3.5946,-3.5935,-3.5937,-3.5988,-3.5992,-3.5991,-3.5947,-3.5909,-3.5858,-3.579,-3.5709,-3.564,-3.564,-3.5616,-3.5602,-3.5605,-3.5595,-3.559,-3.5552,-3.5535,-3.5535,-3.5537,-3.5525,-3.5525,-3.5507,-3.5501,-3.5501,-3.5501,-3.5501,-3.5406,-3.5,-3.5281,-3.5829,-3.6403,-3.6739,-3.7009,-3.7262,-3.7521,-3.7808,-3.8151,-3.8419,-3.8782,-3.9374,-3.8782,-3.8209,-3.8209,-3.8209,-3.8113,-3.7846,-3.7521,-3.7215,-3.6948,-3.5668,-3.4827,-3.4827,-3.4579,-3.4465,-3.4611,-3.4434,-3.4319,-3.4302,-3.4279,-3.4215,-3.4012,-3.4012,-3.3992,-3.3921,-3.3921,-3.3881,-3.3807,-3.3807,-3.366,-3.7105,-3.7095,-3.6887,0.0,0.0,0.0,-3.6993,-3.8422,-3.9859,-4.0879,0.0,0.0,0.0,0.0,0.0,0.0,0.0,0.0,0.0,0.0,0.0,0.0,0.0,0.0,0.0,0.0,0.0,0.0,0.0,0.0,0.0,-3.5897,-3.5907,-3.59,-3.5901,-3.5934,-3.5991,-3.5996,-3.5995,-3.5995,-3.6002,-3.5992,-3.5992,-3.5992,-3.5992,-3.5992,-3.5992,-3.5992,-3.5989,-3.5931,-3.582,-3.5706,-3.5706,-3.5654,-3.5592,-3.5592,-3.5592,-3.5592,-3.5592,-3.5592,-3.5582,-3.559,-3.5593,-3.5582,-3.5519,-3.5501,-3.5482,-3.5482,-3.5482,-3.5289,-3.4428,-3.5489,-3.6736,-3.6606,-3.7249,-3.7613,-3.6687,-3.712,-3.7445,-3.6653,-3.7139,-3.7693,-3.7693,-3.7024,-3.65,-3.65,-3.65,-3.6194,-3.5316,-3.5965,-3.6156,-3.5286,-3.4483,-3.3995,-3.3995,-3.3215,-3.3081,-3.3956,-3.4014,-3.4153,-3.4492,-3.4508,-3.4508,-3.4508,-3.4508,-3.4405,-3.4197,-3.4197,-3.4061,-3.3807,-3.3807,-3.3366,-3.6276,-3.6296,0.0,-3.5947,0.0,0.0,0.0,-3.7494,0.0,0.0,0.0,0.0,0.0,0.0,0.0,0.0,0.0,0.0,0.0,0.0,0.0,0.0,0.0,0.0,0.0,0.0,0.0,0.0,0.0,0.0,0.0,-3.5892,-3.5894,-3.5907,-3.5892,-3.5907,-3.5934,-3.597,-3.5995,-3.5995,-3.5995,-3.6006,-3.5992,-3.5992,-3.5992,-3.5992,-3.5992,-3.5992,-3.5991,-3.5981,-3.5949,-3.5914,-3.5914,-3.5892,-3.5885,-3.5828,-3.58,-3.5719,-3.511,-3.4906,-3.4902,-3.4892,-3.4908,-3.5005,-3.5601,-3.5344,-3.487,-3.487,-3.4424,-3.3895,-3.3638,-3.4378,-3.5137,-3.4962,-3.5579,-3.6131,-3.5854,-3.595,-3.6178,-3.6504,-3.672,-3.7043,-3.7597,-3.7024,-3.65,-3.65,-3.65,-3.6405,-3.6156,-3.6347,-3.5946,-3.4503,-3.4147,-3.3995,-3.3995,-3.3757,-3.3968,-3.4789,-3.4846,-3.4833,-3.4793,-3.4773,-3.4684,-3.4508,-3.436,-3.4262,-3.4197,-3.4011,-3.3868,-3.3807,-3.3807,-3.3678,-3.5953,-3.5973,0.0,-3.5949,-3.5938,-3.6075,-3.6543,0.0,0.0,0.0,0.0,0.0,0.0,0.0,0.0,0.0,0.0,0.0,0.0,0.0,0.0,0.0,0.0,0.0,0.0,0.0,0.0,0.0,0.0,0.0,0.0,-3.5908,-3.5908,-3.5908,-3.5892,-3.5728,-3.5396,-3.5446,-3.5319,-3.4968,-3.4979,-3.498,-3.4974,-3.5335,-3.5485,-3.5504,-3.5856,-3.5992,-3.5992,-3.5992,-3.5992,-3.5992,-3.5992,-3.5992,-3.5952,-3.5571,-3.5412,-3.5293,-3.4419,-3.4123,-3.412,-3.4111,-3.4126,-3.4223,-3.472,-3.4503,-3.4072,-3.4072,-3.3707,-3.3225,-3.2914,-3.368,-3.449,-3.4311,-3.495,-3.5562,-3.5507,-3.5464,-3.5571,-3.6072,-3.613,-3.6251,-3.6738,-3.6404,-3.6058,-3.6058,-3.6018,-3.5984,-3.5984,-3.5698,-3.5114,-3.4106,-3.3398,-3.3024,-3.3038,-3.2732,-3.3019,-3.4167,-3.4244,-3.4483,-3.5043,-3.5027,-3.4945,-3.4784,-3.4663,-3.4567,-3.448,-3.3967,-3.3641,-3.348,-3.3135,-3.274,-3.6005,0.0,0.0,-3.5992,0.0,0.0,0.0,0.0,0.0,0.0,0.0,0.0,0.0,0.0,0.0,0.0,0.0,0.0,0.0,0.0,0.0,0.0,0.0,0.0,0.0,0.0,0.0,0.0,0.0,0.0,0.0,-3.5772,-3.5752,-3.5675,-3.5733,-3.5363,-3.4508,-3.454,-3.4184,-3.3406,-3.3408,-3.3356,-3.3317,-3.4174,-3.457,-3.4627,-3.5504,-3.5875,-3.5895,-3.5973,-3.5992,-3.5992,-3.5992,-3.5953,-3.5797,-3.4998,-3.4647,-3.4452,-3.3572,-3.3279,-3.3278,-3.328,-3.3333,-3.3388,-3.3327,-3.332,-3.3281,-3.3203,-3.3122,-3.2927,-3.2265,-3.3237,-3.4357,-3.4307,-3.4972,-3.5577,-3.5438,-3.5415,-3.5409,-3.5409,-3.5461,-3.5513,-3.5513,-3.5451,-3.5422,-3.5422,-3.53,-3.5203,-3.5127,-3.4469,-3.3953,-3.3804,-3.2422,-3.1536,-3.1583,-3.0861,-3.1136,-3.2816,-3.2912,-3.3621,-3.5231,-3.5239,-3.5218,-3.5218,-3.5182,-3.5098,-3.4898,-3.4027,-3.3389,-3.3018,-3.2139,-3.1246,-3.6005,-3.5999,0.0,0.0,0.0,0.0,0.0,0.0,0.0,0.0,0.0,0.0,0.0,0.0,0.0,0.0,0.0,0.0,0.0,0.0,0.0,0.0,0.0,0.0,0.0,0.0,0.0,0.0,0.0,0.0,-3.4876,-3.4876,-3.4586,-3.3963,-3.4547,-3.4489,-3.367,-3.3678,-3.3585,0.0,-3.3404,-3.3045,-3.2402,-3.3281,-3.3682,-3.3728,-3.4608,-3.4979,-3.5037,-3.5719,-3.5992,-3.5992,-3.5992,-3.5582,-3.4959,-3.4764,-3.4276,-3.3552,-3.2675,-3.2383,-3.2383,-3.2379,-3.2846,-3.3391,-3.3388,-3.3386,-3.323,-3.2549,-3.1876,-3.1453,-3.198,-3.2374,-3.2781,-3.3384,-3.4195,-3.4831,-3.4802,-3.4742,-3.4725,-3.4725,-3.519,-3.5577,-3.5577,-3.5581,-3.5565,-3.5565,-3.5494,-3.5181,-3.4507,-3.4215,-3.3568,-3.2266,-3.1787,-3.1576,-3.1602,-3.1436,-3.203,-3.3705,-3.382,-3.4261,-3.525,-3.5293,-3.5285,-3.5285,-3.5111,-3.5025,-3.4981,-3.3961,-3.3409,-3.33,-3.2425,-3.1907,-3.6001,0.0,0.0,0.0,0.0,0.0,0.0,0.0,0.0,0.0,0.0,0.0,0.0,0.0,0.0,0.0,0.0,0.0,0.0,0.0,0.0,0.0,0.0,0.0,0.0,0.0,0.0,0.0,0.0,-3.4606,-3.4606,-3.4235,-3.3826,-3.3417,-3.3807,-3.3612,-3.2793,-3.2774,-3.2579,-3.2167,-3.2169,-3.1911,-3.1516,-3.238,-3.2773,-3.283,-3.3704,-3.4072,-3.411,-3.4571,-3.4763,-3.4763,-3.4763,-3.4489,-3.4022,-3.3612,-3.3163,-3.2656,-3.1777,-3.1485,-3.1485,-3.1485,-3.1777,-3.2167,-3.2167,-3.2167,-3.2069,-3.1602,-3.1148,-3.0906,-3.1355,-3.1798,-3.2219,-3.2631,-3.3371,-3.3974,-3.3974,-3.3954,-3.3936,-3.3936,-3.4577,-3.4983,-3.4575,-3.447,-3.4432,-3.4361,-3.4327,-3.4135,-3.3671,-3.3255,-3.2644,-3.173,-3.1301,-3.1052,-3.1028,-3.1021,-3.1584,-3.2878,-3.2954,-3.3312,-3.4119,-3.4157,-3.4335,-3.4721,-3.4209,-3.3952,-3.3933,-3.3007,-3.2496,-3.238,-3.15,-3.104,-3.5995,0.0,0.0,0.0,0.0,0.0,0.0,0.0,0.0,0.0,0.0,0.0,0.0,0.0,0.0,0.0,0.0,0.0,0.0,0.0,0.0,0.0,0.0,0.0,0.0,0.0,0.0,0.0,0.0,-3.4391,-3.4391,-3.3612,-3.3105,-3.2969,-3.3105,-3.2754,-3.1878,-3.1878,-3.1505,-3.0801,-3.0801,-3.0798,-3.0825,-3.1547,-3.1887,-3.191,-3.2793,-3.3183,-3.3182,-3.3332,-3.3405,-3.3405,-3.3405,-3.3308,-3.3093,-3.2372,-3.2,-3.1762,-3.106,-3.0804,-3.08,-3.08,-3.0898,-3.0995,-3.0859,-3.0917,-3.0995,-3.0839,-3.08,-3.0839,-3.0995,-3.1446,-3.1914,-3.2052,-3.2496,-3.2915,-3.3054,-3.3093,-3.3093,-3.3093,-3.3795,-3.4162,-3.3444,-3.3273,-3.3206,-3.3095,-3.3055,-3.3003,-3.2852,-3.2243,-3.1732,-3.1541,-3.0917,-3.0487,-3.0433,-3.0428,-3.0808,-3.1651,-3.1728,-3.2069,-3.2872,-3.2776,-3.3019,-3.3669,-3.3112,-3.2818,-3.2818,-3.2012,-3.1529,-3.1356,-3.0478,-3.0061,0.0,0.0,0.0,0.0,0.0,0.0,0.0,0.0,0.0,0.0,0.0,0.0,0.0,0.0,0.0,0.0,0.0,0.0,0.0,0.0,0.0,0.0,0.0,0.0,0.0,0.0,0.0,0.0,-3.445,-3.3553,-3.3553,-3.2735,-3.1936,-3.1171,-3.1875,-3.1858,-3.0977,-3.0977,-3.0918,-3.0801,-3.0801,-3.0804,-3.0808,-3.0912,-3.0963,-3.1011,-3.1892,-3.2263,-3.2322,-3.3085,-3.3398,-3.3398,-3.3398,-3.2948,-3.2264,-3.2147,-3.1621,-3.0954,-3.0837,-3.0793,-3.08,-3.08,-3.1309,-3.1797,-3.1036,-3.1328,-3.1777,-3.1015,-3.08,-3.0976,-3.1738,-3.1446,-3.1153,-3.1914,-3.1619,-3.1342,-3.2104,-3.226,-3.226,-3.226,-3.2961,-3.3527,-3.341,-3.3388,-3.3363,-3.334,-3.3305,-3.2984,-3.2227,-3.1981,-3.1588,-3.0828,-3.0653,-3.0571,-3.0564,-3.0564,-3.0916,-3.1738,-3.1791,-3.2116,-3.2878,-3.2237,-3.1904,-3.2013,-3.259,-3.2897,-3.2878,-3.209,-3.1674,-3.1636,-3.0752,-3.074,-3.5994,0.0,0.0,0.0,0.0,0.0,0.0,0.0,0.0,0.0,0.0,0.0,0.0,0.0,0.0,0.0,0.0,0.0,0.0,0.0,0.0,0.0,0.0,0.0,0.0,0.0,0.0,0.0,-3.4079,-3.3183,-3.2696,-3.1856,-3.1191,-3.0801,-3.1171,-3.1191,-3.0801,-3.0801,-3.0801,-3.0801,-3.0801,-3.0801,-3.0801,-3.0801,-3.08,-3.0825,-3.1211,-3.1372,-3.1393,-3.1791,-3.193,-3.193,-3.193,-3.1715,-3.1363,-3.1363,-3.1131,-3.08,-3.08,-3.0801,-3.08,-3.08,-3.1054,-3.1308,-3.0917,-3.1073,-3.1288,-3.0917,-3.0798,-3.0892,-3.1263,-3.1081,-3.0898,-3.1289,-3.1075,-3.0898,-3.1289,-3.1368,-3.1524,-3.2013,-3.2012,-3.2108,-3.2597,-3.2265,-3.1932,-3.1932,-3.1921,-3.1753,-3.1386,-3.1291,-3.1111,-3.0695,-3.0653,-3.0639,-3.06,-3.0593,-3.0754,-3.1103,-3.1137,-3.1276,-3.1598,-3.1269,-3.1076,-3.1076,-3.1358,-3.15,-3.15,-3.1135,-3.0962,-3.0962,-3.1077,-3.1327,0.0,0.0,0.0,0.0,0.0,0.0,0.0,0.0,0.0,0.0,0.0,0.0,0.0,0.0,0.0,0.0,0.0,0.0,0.0,0.0,0.0,0.0,0.0,0.0,0.0,0.0,0.0,0.0,-3.3534,-3.2793,-3.2131,-3.1271,-3.0801,-3.0801,-3.0801,-3.0801,-3.0801,-3.0801,-3.0801,-3.0801,-3.0801,-3.0801,-3.0801,-3.0774,-3.0774,-3.0801,-3.0792,-3.0803,-3.0803,-3.08,-3.0806,-3.0806,-3.0806,-3.0806,-3.0806,-3.0806,-3.0809,-3.0793,-3.0793,-3.0795,-3.0797,-3.0797,-3.0797,-3.0797,-3.0797,-3.0797,-3.0797,-3.0797,-3.08,-3.0801,-3.0801,-3.0797,-3.0808,-3.0792,-3.0807,-3.08,-3.08,-3.08,-3.0995,-3.1641,-3.1231,-3.1015,-3.166,-3.1231,-3.08,-3.08,-3.08,-3.08,-3.08,-3.08,-3.0774,-3.073,-3.0726,-3.0711,-3.067,-3.0645,-3.0639,-3.0623,-3.0623,-3.0614,-3.0597,-3.0593,-3.0593,-3.0593,-3.0501,-3.0444,-3.0431,-3.0421,-3.0404,-3.0423,-3.1288,-3.1814,0.0,0.0,0.0,0.0,0.0,0.0,0.0,0.0,0.0,0.0,0.0,0.0,0.0,0.0,0.0,0.0,0.0,0.0,0.0,0.0,0.0,0.0,0.0,0.0,0.0,0.0,0.0,0.0,-3.2657,-3.215,-3.2092,-3.1271,-3.0801,-3.0801,-3.0801,-3.0801,-3.0801,-3.0801,-3.0801,-3.0801,-3.0801,-3.0801,-3.0799,-3.0737,-3.0739,-3.0801,-3.0804,-3.0804,-3.0804,-3.0806,-3.0806,-3.0806,-3.0806,-3.0806,-3.0806,-3.0806,-3.081,-3.0795,-3.0795,-3.0806,-3.0797,-3.0797,-3.0797,-3.0797,-3.0797,-3.0797,-3.0797,-3.0797,-3.0797,-3.0797,-3.0797,-3.0801,-3.08,-3.0799,-3.0798,-3.08,-3.08,-3.08,-3.08,-3.0859,-3.0839,-3.08,-3.0859,-3.0839,-3.08,-3.08,-3.08,-3.08,-3.08,-3.08,-3.08,-3.0799,-3.0799,-3.0798,-3.0796,-3.0796,-3.0765,-3.0709,-3.0687,-3.0661,-3.0597,-3.0593,-3.0593,-3.0593,-3.0586,-3.0564,-3.0492,-3.0422,-3.0404,-3.0423,-3.1288,-3.2102,0.0,0.0,0.0,0.0,0.0,0.0,0.0,0.0,0.0,0.0,0.0,0.0,0.0,0.0,0.0,0.0,0.0,0.0,0.0,0.0,0.0,0.0,0.0,0.0,0.0,0.0,0.0,0.0,0.0,-3.1725,-3.118,-3.0847,-3.0706,-3.0799,-3.0801,-3.0801,-3.0801,-3.0801,-3.0801,-3.0801,-3.0764,-3.0737,-3.0737,-3.0707,-3.0717,-3.0746,-3.0746,-3.0739,-3.0737,-3.0774,-3.0772,-3.0739,-3.0774,-3.0801,-3.0801,-3.0801,-3.0791,-3.0802,-3.0802,-3.081,-3.0799,-3.0799,-3.0799,-3.0799,-3.0799,-3.0799,-3.0799,-3.0799,-3.0792,-3.0804,-3.0804,-3.0795,-3.08,-3.0797,-3.08,-3.08,-3.0797,-3.0808,-3.08,-3.08,-3.08,-3.08,-3.08,-3.08,-3.08,-3.08,-3.08,-3.08,-3.08,-3.08,-3.08,-3.08,-3.08,-3.08,-3.08,-3.08,-3.0796,-3.0767,-3.0767,-3.0741,-3.0726,-3.0726,-3.0726,-3.0726,-3.0697,-3.063,-3.0552,-3.0539,-3.051,-3.05,-3.189,-3.2681,-3.5992,0.0,0.0,0.0,0.0,0.0,0.0,0.0,0.0,0.0,0.0,0.0,0.0,0.0,0.0,0.0,0.0,0.0,0.0,0.0,0.0,0.0,0.0,0.0,0.0,0.0,0.0,0.0,0.0,0.0,-3.0591,-3.0572,-3.0628,-3.0734,-3.0737,-3.0745,-3.0801,-3.0772,-3.0769,-3.0767,-3.0719,-3.0707,-3.0704,-3.069,-3.068,-3.0694,-3.068,-3.0674,-3.0707,-3.0748,-3.0745,-3.0707,-3.0748,-3.0776,-3.0776,-3.0764,-3.0769,-3.0769,-3.0796,-3.0801,-3.0801,-3.0801,-3.0801,-3.0801,-3.0801,-3.0801,-3.0801,-3.0801,-3.08,-3.0798,-3.0798,-3.0791,-3.0805,-3.0795,-3.0794,-3.0795,-3.0801,-3.0798,-3.0808,-3.0801,-3.08,-3.08,-3.08,-3.08,-3.08,-3.08,-3.08,-3.08,-3.08,-3.08,-3.08,-3.08,-3.08,-3.08,-3.08,-3.08,-3.08,-3.08,-3.08,-3.08,-3.08,-3.08,-3.08,-3.08,-3.0762,-3.0715,-3.0661,-3.0593,-3.0527,-3.0505,-3.1909,-3.2681,0.0,0.0,0.0,0.0,0.0,0.0,0.0,0.0,0.0,0.0,0.0,0.0,0.0,0.0,0.0,0.0,0.0,0.0,0.0,0.0,0.0,0.0,0.0,0.0,0.0,0.0,0.0,0.0,-3.055,-3.0496,-3.0496,-3.0496,-3.0522,-3.059,-3.059,-3.0662,-3.0794,-3.0731,-3.0697,-3.0697,-3.0685,-3.069,-3.0687,-3.0622,-3.0622,-3.0683,-3.0618,-3.0626,-3.0687,-3.069,-3.0694,-3.069,-3.0694,-3.0694,-3.0697,-3.071,-3.07,-3.0706,-3.0769,-3.0799,-3.0799,-3.0799,-3.0799,-3.0799,-3.0799,-3.0799,-3.0799,-3.0801,-3.0801,-3.0801,-3.0801,-3.0801,-3.08,-3.081,-3.0806,-3.0798,-3.0794,-3.0801,-3.0798,-3.0806,-3.0803,-3.0803,-3.0801,-3.0801,-3.0801,-3.08,-3.08,-3.08,-3.0801,-3.08,-3.08,-3.0801,-3.0801,-3.0801,-3.0801,-3.0801,-3.0801,-3.0801,-3.0801,-3.0801,-3.0801,-3.0801,-3.0801,-3.0801,-3.0801,-3.08,-3.08,-3.0597,-3.0477,-3.0435,-3.1295,-3.2122,-3.5992,0.0,0.0,0.0,0.0,0.0,0.0,0.0,0.0,0.0,0.0,0.0,0.0,0.0,0.0,0.0,0.0,0.0,0.0,0.0,0.0,0.0,0.0,0.0,0.0,0.0,0.0,0.0,-3.0714,-3.0359,-3.0359,-3.0457,-3.0486,-3.0461,-3.0461,-3.0466,-3.0509,-3.0548,-3.0564,-3.0564,-3.0557,-3.0549,-3.0549,-3.0433,-3.0389,-3.0406,-3.0389,-3.0428,-3.0492,-3.063,-3.0676,-3.063,-3.068,-3.0694,-3.0694,-3.0704,-3.0707,-3.0707,-3.0717,-3.072,-3.072,-3.072,-3.072,-3.0724,-3.0728,-3.0734,-3.0737,-3.0796,-3.0801,-3.0801,-3.0801,-3.0801,-3.0806,-3.0806,-3.0804,-3.0808,-3.0796,-3.0805,-3.0793,-3.08,-3.0801,-3.0801,-3.0797,-3.0796,-3.0794,-3.0803,-3.08,-3.0822,-3.0865,-3.0823,-3.0822,-3.0865,-3.0866,-3.0866,-3.0866,-3.087,-3.0871,-3.0871,-3.0871,-3.0871,-3.0871,-3.0871,-3.0871,-3.0871,-3.0871,-3.0825,-3.0726,-3.0728,-3.065,-3.0559,-3.1337,-3.1814,0.0,0.0,0.0,0.0,0.0,0.0,-3.5532,-3.5451,0.0,0.0,0.0,0.0,0.0,0.0,0.0,0.0,0.0,0.0,0.0,0.0,0.0,0.0,0.0,0.0,0.0,-3.2701,-3.2196,-3.164,-3.0765,-3.026,-3.0222,-3.0297,-3.0331,-3.0321,-3.0321,-3.0332,-3.0402,-3.0414,-3.0424,-3.0424,-3.0419,-3.0425,-3.0406,-3.0336,-3.0292,-3.0292,-3.0292,-3.0324,-3.0365,-3.0491,-3.0554,-3.06,-3.0629,-3.0661,-3.0665,-3.0661,-3.0665,-3.0668,-3.0687,-3.0694,-3.0694,-3.0694,-3.0694,-3.0697,-3.0698,-3.0701,-3.0707,-3.0745,-3.0767,-3.0767,-3.0767,-3.0767,-3.0767,-3.0767,-3.0767,-3.0756,-3.0762,-3.0769,-3.0769,-3.0793,-3.0794,-3.0794,-3.0799,-3.0779,-3.0759,-3.0762,-3.078,-3.0818,-3.0858,-3.0853,-3.0851,-3.0858,-3.0875,-3.0876,-3.082,-3.0878,-3.0896,-3.0859,-3.0877,-3.0894,-3.0894,-3.0894,-3.0894,-3.0894,-3.0894,-3.0851,-3.078,-3.0776,-3.0704,-3.0614,-3.1037,-3.1223,0.0,0.0,0.0,0.0,0.0,0.0,-3.4887,-3.4626,-3.4308,0.0,0.0,0.0,0.0,0.0,0.0,0.0,0.0,0.0,0.0,0.0,0.0,0.0,0.0,0.0,-3.2888,-3.2094,-3.1538,-3.1443,-3.0758,-3.0324,-3.0242,-3.0235,-3.0221,-3.0177,-3.0183,-3.0222,-3.0334,-3.0294,-3.0277,-3.0271,-3.0286,-3.0273,-3.0273,-3.026,-3.0253,-3.0253,-3.0253,-3.026,-3.0273,-3.0273,-3.0385,-3.0574,-3.0574,-3.0579,-3.0569,-3.0572,-3.0593,-3.0606,-3.0665,-3.0676,-3.0668,-3.0668,-3.0665,-3.0661,-3.0665,-3.0672,-3.068,-3.071,-3.0694,-3.0694,-3.0694,-3.0694,-3.0694,-3.0694,-3.0694,-3.0694,-3.0694,-3.0694,-3.0719,-3.0781,-3.0782,-3.0792,-3.0795,-3.0746,-3.0696,-3.07,-3.0744,-3.0794,-3.0794,-3.084,-3.0859,-3.0795,-3.0839,-3.0839,-3.0703,-3.0816,-3.0859,-3.0796,-3.0859,-3.0896,-3.0895,-3.0895,-3.0895,-3.0895,-3.0895,-3.0895,-3.0895,-3.0777,-3.0661,-3.0611,-3.0602,-3.0571,0.0,0.0,0.0,0.0,0.0,0.0,-3.4731,-3.4161,-3.3418,0.0,0.0,0.0,0.0,0.0,0.0,0.0,0.0,0.0,0.0,0.0,0.0,0.0,0.0,0.0,-3.0945,-3.1264,-3.1228,-3.0539,-3.0944,-3.1221,-3.1146,-3.1146,-3.0799,-3.0068,-3.0049,-3.0023,-3.0004,-3.0085,-3.014,-3.014,-3.0145,-3.0138,-3.0138,-3.0034,-2.9969,-2.9969,-2.9969,-3.0049,-3.0138,-3.0138,-3.024,-3.0368,-3.0368,-3.0396,-3.0444,-3.0436,-3.052,-3.0592,-3.0606,-3.055,-3.0456,-3.0456,-3.0428,-3.0377,-3.0375,-3.0452,-3.0558,-3.0668,-3.0694,-3.0694,-3.0694,-3.0694,-3.0694,-3.0694,-3.0694,-3.0694,-3.0694,-3.0694,-3.0704,-3.0716,-3.0719,-3.0725,-3.0721,-3.0701,-3.0709,-3.0696,-3.0707,-3.0728,-3.0719,-3.0731,-3.0734,-3.0719,-3.0725,-3.0723,-3.0708,-3.0716,-3.0768,-3.0804,-3.0808,-3.0835,-3.0898,-3.0898,-3.0898,-3.0898,-3.0898,-3.0898,-3.0898,-3.0761,-3.0696,-3.0687,-3.0634,-3.0581,0.0,0.0,0.0,-3.5958,0.0,0.0,0.0,-3.3373,-3.2508,0.0,0.0,0.0,0.0,0.0,0.0,0.0,0.0,0.0,0.0,0.0,0.0,0.0,0.0,0.0,-3.0989,-3.0919,-3.0655,-3.0195,-3.0557,-3.0764,-3.0712,-3.0704,-3.0673,-3.0601,-3.0184,-3.0148,-3.0541,-3.0189,-2.9992,-2.9992,-2.9992,-2.9992,-3.0011,-2.9921,-2.9897,-2.9897,-2.9897,-2.9929,-2.9992,-2.9992,-3.0049,-3.0116,-3.0246,-3.0324,-3.0348,-3.0348,-3.0396,-3.0455,-3.0455,-3.0408,-3.0348,-3.0348,-3.033,-3.0299,-3.0298,-3.0369,-3.0451,-3.052,-3.0604,-3.0649,-3.0649,-3.0649,-3.0649,-3.0649,-3.0649,-3.0649,-3.0649,-3.0649,-3.0649,-3.0649,-3.0649,-3.0649,-3.0655,-3.0651,-3.0648,-3.0656,-3.0647,-3.0645,-3.0656,-3.0687,-3.0694,-3.0639,-3.0682,-3.0694,-3.0652,-3.0681,-3.0709,-3.0706,-3.0728,-3.0767,-3.0801,-3.0831,-3.0877,-3.0898,-3.0898,-3.0898,-3.0898,-3.0835,-3.079,-3.081,-3.0723,-3.0681,0.0,0.0,0.0,0.0,0.0,-3.427,0.0,0.0,0.0,0.0,0.0,0.0,0.0,0.0,0.0,0.0,0.0,0.0,0.0,0.0,0.0,0.0,0.0,0.0,0.0,-3.0669,-3.024,-3.0338,-3.0349,-3.0312,-3.0261,-3.0405,-3.0628,-3.0939,-3.0427,-3.0408,-3.0939,-3.0257,-2.9897,-2.9897,-2.9897,-2.9897,-2.9897,-2.9897,-2.9897,-2.9897,-2.9897,-2.9897,-2.9897,-2.9897,-2.9897,-2.9913,-3.0138,-3.024,-3.026,-3.026,-3.0273,-3.0292,-3.0292,-3.0279,-3.026,-3.026,-3.0246,-3.0233,-3.0253,-3.0299,-3.0346,-3.0364,-3.0474,-3.0554,-3.0554,-3.0588,-3.0593,-3.0579,-3.0453,-3.0395,-3.0501,-3.0443,-3.038,-3.0521,-3.0588,-3.0612,-3.0608,-3.0601,-3.0598,-3.0598,-3.0606,-3.0591,-3.0591,-3.0646,-3.0658,-3.0618,-3.0646,-3.0652,-3.0592,-3.0651,-3.0661,-3.0597,-3.0647,-3.0699,-3.0709,-3.0741,-3.0804,-3.0857,-3.0878,-3.0878,-3.0878,-3.0898,-3.0898,-3.0898,-3.0834,-3.0786,0.0,0.0,0.0,0.0,-3.4703,0.0,0.0,0.0,0.0,0.0,0.0,0.0,0.0,0.0,0.0,0.0,0.0,0.0,0.0,0.0,0.0,0.0,0.0,0.0,0.0,-3.0252,-3.044,-3.1184,-3.1203,-3.1164,-3.1154,-3.183,-3.1539,-3.0086,-3.0692,-3.073,-3.0048,-2.9953,-2.9897,-2.9897,-2.9897,-2.9897,-2.9897,-2.9897,-2.9897,-2.9897,-2.9897,-2.9897,-2.9897,-2.9897,-2.9897,-2.9897,-2.9929,-3.0026,-3.0123,-3.0123,-3.0206,-3.0292,-3.0292,-3.0226,-3.0123,-3.0123,-3.003,-2.9961,-3.0094,-3.013,-3.0166,-3.0279,-3.0379,-3.0409,-3.0409,-3.0505,-3.0559,-3.0449,-2.9931,-2.9612,-3.0207,-2.988,-2.9631,-3.029,-3.051,-3.0598,-3.0602,-3.0602,-3.0598,-3.0598,-3.0607,-3.0597,-3.0597,-3.0606,-3.0606,-3.0597,-3.0606,-3.0601,-3.0598,-3.0621,-3.0606,-3.059,-3.0603,-3.0636,-3.0709,-3.0715,-3.072,-3.0724,-3.0774,-3.0805,-3.0805,-3.0877,-3.0898,-3.0898,-3.0898,-3.0879,0.0,0.0,0.0,0.0,0.0,0.0,-3.4099,0.0,-3.1544,0.0,0.0,0.0,0.0,0.0,0.0,0.0,0.0,0.0,0.0,0.0,0.0,0.0,0.0,0.0,0.0,0.0,0.0,0.0,-3.0559,-3.0527,-3.0479,-3.082,-3.0888,-3.0654,-3.0522,-3.0503,-3.0654,-3.0143,-2.9897,-2.9897,-2.9897,-2.9897,-2.9897,-2.9897,-2.9897,-2.9897,-2.9897,-2.9897,-2.9897,-2.9897,-2.9897,-2.9897,-2.9897,-2.9929,-2.9977,-2.9977,-3.0026,-3.0072,-3.0072,-3.0023,-2.9977,-2.9977,-2.9956,-2.9829,-2.941,-2.9669,-3.0021,-2.9593,-2.9896,-3.0336,-3.0336,-3.0385,-3.0402,-3.0361,-2.9712,-2.9204,-2.9487,-2.9323,-2.9215,-2.9521,-3.0065,-3.049,-3.049,-3.055,-3.0598,-3.0598,-3.0598,-3.0598,-3.0598,-3.0598,-3.0598,-3.0598,-3.0598,-3.0598,-3.0598,-3.0598,-3.0597,-3.0597,-3.0602,-3.0599,-3.0636,-3.0639,-3.0656,-3.0709,-3.0728,-3.0765,-3.08,-3.083,-3.0857,-3.0898,-3.0898,-3.0898,-3.5908,0.0,0.0,0.0,0.0,0.0,0.0,0.0,0.0,0.0,0.0,0.0,0.0,0.0,0.0,0.0,0.0,0.0,0.0,0.0,0.0,0.0,0.0,0.0,0.0,0.0,0.0,-2.9988,-2.9972,-2.9956,-2.9897,-3.0124,-3.0541,-3.1185,-3.0806,-3.0787,-3.1204,-3.0579,-3.0143,-2.9897,-2.9897,-2.9897,-2.9897,-2.9897,-2.9897,-2.9897,-2.9897,-2.9897,-2.9897,-2.9897,-2.9897,-2.9897,-2.9897,-2.9897,-2.9897,-2.9897,-2.9897,-2.9897,-2.9897,-2.9897,-2.9897,-2.9897,-2.9745,-2.9499,-2.9139,-2.9353,-2.9638,-2.9276,-2.9687,-3.0246,-3.0246,-3.0266,-3.0286,-3.0253,-2.943,-2.8689,-2.8881,-2.876,-2.8714,-2.8938,-2.9722,-3.0377,-3.0377,-3.049,-3.0598,-3.0598,-3.0598,-3.0598,-3.0598,-3.0598,-3.0598,-3.0598,-3.0598,-3.0598,-3.0598,-3.0598,-3.0598,-3.0598,-3.0598,-3.0591,-3.0599,-3.0603,-3.0628,-3.0661,-3.0678,-3.0706,-3.0755,-3.0765,-3.0804,-3.0877,-3.0898,-3.0898,0.0,0.0,0.0,-3.5908,0.0,0.0,0.0,0.0,-3.3358,0.0,0.0,0.0,0.0,0.0,0.0,-2.9671,0.0,0.0,0.0,0.0,0.0,0.0,0.0,0.0,0.0,0.0,0.0,-3.0007,-2.994,-2.9897,-2.9897,-3.0692,-3.1166,-3.1204,-3.1924,-3.1962,-3.1204,-3.1166,-3.073,-2.9897,-2.9897,-2.9897,-2.9897,-2.9897,-2.9897,-2.9897,-2.9897,-2.9897,-2.9897,-2.9897,-2.9897,-2.9897,-2.9897,-2.9897,-2.9897,-2.9897,-2.9897,-2.9897,-2.9897,-2.9897,-2.9897,-2.9897,-2.9366,-2.8874,-2.9631,-2.9347,-2.8892,-2.9658,-2.9973,-3.0109,-3.0109,-3.0194,-3.0266,-3.0138,-2.8893,-2.7918,-2.8575,-2.8209,-2.7962,-2.8744,-2.9652,-3.0292,-3.0292,-3.0472,-3.0598,-3.0598,-3.0598,-3.0598,-3.0598,-3.0598,-3.0598,-3.0598,-3.0598,-3.0598,-3.0598,-3.0598,-3.0598,-3.0598,-3.0598,-3.0598,-3.0602,-3.0602,-3.0602,-3.0607,-3.0599,-3.06,-3.0603,-3.0667,-3.0734,-3.0803,-3.0877,-3.0898,0.0,0.0,-3.5908,-3.5908,0.0,0.0,0.0,0.0,0.0,0.0,0.0,0.0,0.0,0.0,-3.0639,-3.0347,-3.0516,0.0,0.0,0.0,0.0,0.0,0.0,0.0,0.0,0.0,0.0,-2.994,-2.9905,-2.9897,-2.9897,-3.0181,-3.0598,-3.1185,-3.0901,-3.0882,-3.1204,-3.0635,-3.02,-2.9897,-2.9897,-2.9897,-2.9888,-2.9725,-2.9644,-2.9635,-2.9447,-2.9368,-2.9378,-2.9513,-2.957,-2.9589,-2.9771,-2.9832,-2.9841,-2.9872,-2.9897,-2.9897,-2.9897,-2.9897,-2.9821,-2.929,-2.893,-2.8532,-2.7706,-2.804,-2.8532,-2.7687,-2.8666,-2.9847,-2.9315,-2.9213,-2.9235,-2.9179,-2.7909,-2.6763,-2.7008,-2.7317,-2.7651,-2.792,-2.916,-3.0166,-3.0166,-3.0305,-3.0414,-3.0449,-3.0545,-3.0598,-3.0598,-3.0598,-3.0598,-3.0598,-3.0598,-3.0598,-3.0598,-3.0598,-3.0598,-3.0598,-3.0598,-3.0598,-3.0598,-3.0598,-3.0598,-3.0598,-3.0591,-3.0599,-3.0597,-3.062,-3.0664,-3.0732,-3.0764,-3.0827,-3.5908,-3.5908,0.0,-3.5897,-3.5894,0.0,-3.5894,0.0,0.0,0.0,0.0,0.0,0.0,0.0,0.0,-3.0642,-3.0644,-3.0657,0.0,-3.0375,0.0,0.0,0.0,0.0,0.0,0.0,-2.9897,-2.9897,-2.9897,-2.9897,0.0,0.0,-3.0294,-3.1166,-3.0654,-3.0635,-3.1185,-3.092,-3.0442,-2.976,-3.0062,-3.0018,-2.9607,-2.9437,-2.9368,-2.9358,-2.9172,-2.9097,-2.9115,-2.9241,-2.9283,-2.9304,-2.9474,-2.9542,-2.957,-2.9813,-2.9855,-2.9786,-2.9786,-2.9616,-2.9284,-2.885,-2.8305,-2.7669,-2.6899,-2.7195,-2.7706,-2.7233,-2.8229,-2.9423,-2.9196,-2.8911,-2.8703,-2.8703,-2.7422,-2.6273,-2.6596,-2.7096,-2.7574,-2.7846,-2.9038,-2.9988,-2.9956,-3.0057,-3.0168,-3.0279,-3.0369,-3.0433,-3.0449,-3.0455,-3.049,-3.0569,-3.0554,-3.0554,-3.0554,-3.0554,-3.0554,-3.0554,-3.0554,-3.0554,-3.0554,-3.0554,-3.0554,-3.0554,-3.0554,-3.0568,-3.056,-3.056,-3.0605,-3.0661,-3.0661,-3.0724]},{"header":{"parameterUnit":"m.s-1","parameterCategory":1,"la1":30.6,"la2":29.2853,"lo1":-89.7004,"lo2":-87.6739,"dy":0.0162,"dx":0.0183,"nx":112,"ny":82,"refTime":"2023-09-04T12:00:00:Z","depth":0,"parameterNumber":3,"parameterNumberName":"V-component_of_WINDS"},"data":[0.0,0.0,0.0,0.0,0.0,0.0,0.0,0.0,0.0,0.0,0.0,0.0,0.0,0.0,0.0,0.0,0.0,0.0,0.0,0.0,0.0,0.0,0.0,0.0,0.0,0.0,0.0,0.0,0.0,0.0,0.0,0.0,0.0,0.0,0.0,0.0,0.0,0.0,0.0,0.0,0.0,0.0,0.0,0.0,0.0,0.0,0.0,0.0,0.0,0.0,0.0,0.0,0.0,0.0,0.0,0.0,0.0,0.0,0.0,0.0,0.0,0.0,0.0,0.0,0.0,0.0,0.0,0.0,0.0,0.0,0.0,0.0,0.0,0.0,0.0,0.0,0.0,0.0,0.0,0.0,0.0,0.0,0.0,0.0,0.0,0.0,0.0,0.0,0.0,0.0,0.0,-2.0953,-2.1119,-2.1442,-2.2014,-2.2436,-2.244,-2.1868,0.0,0.0,0.0,0.0,0.0,0.0,0.0,0.0,0.0,0.0,0.0,0.0,0.0,0.0,0.0,0.0,0.0,0.0,0.0,0.0,0.0,0.0,0.0,0.0,0.0,0.0,0.0,0.0,0.0,0.0,0.0,0.0,0.0,0.0,0.0,0.0,0.0,0.0,0.0,0.0,0.0,0.0,0.0,0.0,0.0,0.0,0.0,0.0,0.0,0.0,0.0,0.0,0.0,0.0,0.0,0.0,0.0,0.0,0.0,0.0,0.0,0.0,0.0,0.0,0.0,0.0,0.0,0.0,0.0,0.0,0.0,0.0,0.0,0.0,0.0,0.0,0.0,0.0,0.0,0.0,0.0,0.0,0.0,0.0,0.0,0.0,0.0,0.0,0.0,0.0,0.0,0.0,0.0,0.0,0.0,0.0,0.0,0.0,0.0,0.0,0.0,0.0,0.0,0.0,-2.213,-2.1631,-2.1669,-2.1831,-2.1935,-2.2077,-2.2149,-2.2063,0.0,0.0,0.0,0.0,0.0,0.0,0.0,0.0,0.0,0.0,0.0,0.0,0.0,0.0,0.0,0.0,0.0,0.0,0.0,0.0,0.0,0.0,0.0,0.0,0.0,0.0,0.0,0.0,0.0,0.0,0.0,0.0,0.0,0.0,0.0,0.0,0.0,0.0,0.0,0.0,0.0,0.0,0.0,0.0,0.0,0.0,0.0,0.0,0.0,0.0,0.0,0.0,0.0,0.0,0.0,0.0,0.0,0.0,0.0,0.0,0.0,0.0,0.0,0.0,0.0,0.0,0.0,0.0,0.0,0.0,0.0,0.0,0.0,0.0,0.0,0.0,0.0,0.0,0.0,0.0,0.0,0.0,0.0,0.0,0.0,0.0,0.0,0.0,0.0,0.0,0.0,0.0,0.0,0.0,0.0,0.0,0.0,0.0,0.0,0.0,0.0,0.0,0.0,-2.303,-2.2818,-2.2393,-2.2609,-2.285,-2.2954,-2.2816,-2.2685,-2.2647,-2.232,0.0,0.0,0.0,0.0,0.0,0.0,0.0,0.0,0.0,0.0,0.0,0.0,0.0,0.0,0.0,0.0,0.0,0.0,0.0,0.0,0.0,0.0,0.0,0.0,0.0,0.0,0.0,0.0,0.0,0.0,0.0,0.0,0.0,0.0,0.0,0.0,0.0,0.0,0.0,0.0,0.0,0.0,0.0,0.0,0.0,0.0,0.0,0.0,0.0,0.0,0.0,0.0,0.0,0.0,0.0,0.0,0.0,0.0,0.0,0.0,0.0,0.0,0.0,0.0,0.0,0.0,0.0,0.0,0.0,0.0,0.0,0.0,0.0,0.0,0.0,0.0,0.0,0.0,0.0,0.0,0.0,0.0,0.0,0.0,0.0,0.0,0.0,0.0,0.0,0.0,0.0,0.0,0.0,0.0,0.0,0.0,0.0,0.0,0.0,0.0,0.0,0.0,-2.3131,-2.3237,-2.3158,-2.3493,-2.3806,-2.4022,-2.3515,-2.3189,-2.315,-2.2272,0.0,0.0,0.0,0.0,0.0,0.0,0.0,0.0,0.0,0.0,0.0,0.0,0.0,0.0,0.0,0.0,0.0,0.0,0.0,0.0,0.0,0.0,0.0,0.0,0.0,0.0,0.0,0.0,0.0,0.0,0.0,0.0,0.0,0.0,0.0,0.0,0.0,0.0,0.0,0.0,0.0,0.0,0.0,0.0,0.0,0.0,0.0,0.0,0.0,0.0,0.0,0.0,0.0,0.0,0.0,0.0,0.0,0.0,0.0,0.0,0.0,0.0,0.0,0.0,0.0,0.0,0.0,0.0,0.0,0.0,0.0,0.0,0.0,0.0,0.0,0.0,0.0,0.0,0.0,0.0,0.0,0.0,0.0,0.0,0.0,0.0,0.0,0.0,0.0,0.0,0.0,0.0,0.0,0.0,0.0,0.0,0.0,0.0,0.0,0.0,0.0,0.0,-2.3372,-2.336,-2.3784,-2.4186,-2.4444,-2.4456,-2.3691,-2.3214,-2.3183,-2.2304,0.0,0.0,0.0,0.0,0.0,0.0,0.0,0.0,0.0,0.0,0.0,0.0,0.0,0.0,0.0,0.0,0.0,0.0,0.0,0.0,0.0,0.0,0.0,0.0,0.0,0.0,0.0,0.0,0.0,0.0,0.0,0.0,0.0,0.0,0.0,0.0,0.0,0.0,0.0,0.0,0.0,0.0,0.0,0.0,0.0,0.0,0.0,0.0,0.0,0.0,0.0,0.0,0.0,0.0,0.0,0.0,0.0,0.0,0.0,0.0,0.0,0.0,0.0,0.0,0.0,0.0,0.0,0.0,0.0,0.0,0.0,0.0,0.0,0.0,0.0,0.0,0.0,0.0,0.0,0.0,0.0,0.0,0.0,0.0,0.0,0.0,0.0,0.0,0.0,0.0,0.0,0.0,0.0,0.0,0.0,0.0,0.0,0.0,0.0,0.0,0.0,0.0,-2.379,-2.3749,0.0,-2.4394,-2.4497,-2.4497,-2.3712,-2.3305,-2.3547,0.0,0.0,0.0,0.0,0.0,0.0,0.0,0.0,0.0,0.0,0.0,0.0,0.0,0.0,0.0,0.0,0.0,0.0,0.0,0.0,0.0,0.0,0.0,0.0,0.0,0.0,0.0,0.0,0.0,0.0,0.0,0.0,0.0,0.0,0.0,0.0,0.0,0.0,0.0,0.0,0.0,0.0,0.0,0.0,0.0,0.0,0.0,0.0,0.0,0.0,0.0,0.0,0.0,0.0,0.0,0.0,0.0,0.0,0.0,0.0,0.0,0.0,0.0,0.0,0.0,0.0,0.0,0.0,0.0,0.0,0.0,0.0,0.0,0.0,0.0,0.0,0.0,0.0,0.0,0.0,0.0,0.0,0.0,0.0,0.0,0.0,0.0,0.0,0.0,0.0,0.0,0.0,0.0,0.0,0.0,0.0,0.0,0.0,0.0,0.0,0.0,0.0,-2.4126,-2.3852,-2.3801,0.0,-2.4333,-2.4342,-2.4487,-2.3567,-2.3229,-2.3777,0.0,0.0,0.0,0.0,0.0,0.0,0.0,0.0,0.0,0.0,0.0,0.0,0.0,0.0,0.0,0.0,0.0,0.0,0.0,0.0,0.0,0.0,0.0,0.0,0.0,0.0,0.0,0.0,0.0,0.0,0.0,0.0,0.0,0.0,0.0,0.0,0.0,0.0,0.0,0.0,0.0,0.0,0.0,0.0,0.0,0.0,0.0,0.0,0.0,0.0,0.0,0.0,0.0,0.0,0.0,0.0,0.0,0.0,0.0,0.0,0.0,0.0,0.0,0.0,0.0,0.0,0.0,0.0,0.0,0.0,0.0,0.0,0.0,0.0,0.0,0.0,0.0,0.0,0.0,0.0,0.0,0.0,0.0,0.0,0.0,0.0,0.0,0.0,0.0,0.0,0.0,0.0,0.0,0.0,0.0,0.0,0.0,0.0,0.0,0.0,0.0,0.0,-2.3629,-2.3401,-2.336,-2.3826,-2.3867,-2.4043,-2.4445,-2.3277,-2.2885,0.0,0.0,0.0,0.0,0.0,0.0,0.0,0.0,0.0,0.0,0.0,0.0,0.0,0.0,0.0,0.0,0.0,0.0,0.0,0.0,0.0,0.0,0.0,0.0,0.0,0.0,0.0,0.0,0.0,0.0,0.0,0.0,0.0,0.0,0.0,0.0,0.0,0.0,0.0,0.0,0.0,0.0,0.0,0.0,0.0,0.0,0.0,0.0,0.0,0.0,0.0,0.0,0.0,0.0,0.0,0.0,0.0,0.0,0.0,0.0,0.0,0.0,0.0,0.0,0.0,0.0,0.0,0.0,0.0,0.0,0.0,0.0,0.0,0.0,0.0,0.0,0.0,0.0,0.0,0.0,0.0,0.0,0.0,0.0,0.0,0.0,0.0,0.0,0.0,0.0,0.0,0.0,0.0,0.0,0.0,0.0,0.0,0.0,0.0,0.0,0.0,0.0,0.0,-2.3678,-2.3126,-2.2884,-2.335,-2.3391,-2.3443,-2.3577,-2.2915,-2.2749,-2.3278,0.0,0.0,0.0,0.0,0.0,0.0,0.0,0.0,0.0,0.0,0.0,0.0,0.0,0.0,0.0,0.0,0.0,0.0,0.0,0.0,0.0,0.0,0.0,0.0,0.0,0.0,0.0,0.0,0.0,0.0,0.0,0.0,0.0,0.0,0.0,0.0,0.0,0.0,0.0,0.0,0.0,0.0,0.0,0.0,0.0,0.0,0.0,0.0,0.0,0.0,0.0,0.0,0.0,0.0,0.0,0.0,0.0,0.0,0.0,0.0,0.0,0.0,0.0,0.0,0.0,0.0,0.0,0.0,0.0,0.0,0.0,0.0,0.0,0.0,0.0,0.0,0.0,0.0,0.0,0.0,0.0,0.0,0.0,0.0,0.0,0.0,0.0,0.0,0.0,0.0,0.0,0.0,0.0,0.0,0.0,0.0,0.0,0.0,0.0,0.0,0.0,0.0,-2.3299,-2.2657,-2.2385,-2.2873,-2.2915,-2.2987,-2.3163,-2.2594,-2.2449,-2.3066,0.0,0.0,0.0,0.0,0.0,0.0,0.0,0.0,0.0,0.0,0.0,0.0,0.0,0.0,0.0,0.0,0.0,0.0,0.0,0.0,0.0,0.0,0.0,0.0,0.0,0.0,0.0,0.0,0.0,0.0,0.0,0.0,0.0,0.0,0.0,0.0,0.0,0.0,0.0,0.0,0.0,0.0,0.0,0.0,0.0,0.0,0.0,0.0,0.0,0.0,0.0,0.0,0.0,0.0,0.0,0.0,0.0,0.0,0.0,0.0,0.0,0.0,0.0,0.0,0.0,0.0,0.0,0.0,0.0,0.0,0.0,0.0,0.0,0.0,0.0,0.0,0.0,0.0,0.0,0.0,0.0,0.0,0.0,0.0,0.0,0.0,0.0,0.0,0.0,0.0,0.0,0.0,0.0,0.0,0.0,0.0,0.0,0.0,0.0,0.0,0.0,0.0,-2.2806,-2.2159,-2.1953,-2.2379,-2.2439,-2.2604,-2.3018,-2.2294,-2.2126,-2.2921,0.0,0.0,0.0,0.0,0.0,0.0,0.0,0.0,0.0,0.0,0.0,0.0,0.0,0.0,0.0,0.0,0.0,0.0,0.0,0.0,0.0,0.0,0.0,0.0,0.0,0.0,0.0,0.0,0.0,0.0,0.0,0.0,0.0,0.0,0.0,0.0,0.0,0.0,0.0,0.0,0.0,0.0,0.0,0.0,0.0,0.0,0.0,0.0,0.0,0.0,0.0,0.0,0.0,0.0,0.0,0.0,0.0,0.0,0.0,0.0,-1.5792,0.0,0.0,0.0,0.0,0.0,0.0,0.0,0.0,0.0,0.0,0.0,0.0,0.0,0.0,0.0,0.0,0.0,0.0,0.0,0.0,0.0,0.0,0.0,0.0,0.0,0.0,0.0,0.0,0.0,0.0,0.0,0.0,0.0,0.0,0.0,0.0,0.0,0.0,0.0,0.0,0.0,-2.3215,-2.2408,-2.1845,-2.1952,-2.1952,-2.1994,-2.2097,-2.1921,-2.1883,-2.2073,-2.1653,0.0,0.0,0.0,0.0,0.0,0.0,0.0,0.0,0.0,0.0,0.0,0.0,0.0,0.0,0.0,0.0,0.0,0.0,0.0,0.0,0.0,0.0,0.0,0.0,0.0,0.0,0.0,0.0,0.0,0.0,0.0,0.0,0.0,0.0,0.0,0.0,0.0,0.0,0.0,0.0,0.0,0.0,0.0,0.0,0.0,0.0,0.0,0.0,0.0,0.0,0.0,0.0,0.0,0.0,0.0,0.0,0.0,0.0,0.0,0.0,-1.6727,0.0,0.0,0.0,0.0,0.0,0.0,0.0,0.0,0.0,0.0,0.0,0.0,0.0,0.0,0.0,0.0,0.0,0.0,0.0,0.0,0.0,0.0,0.0,0.0,0.0,0.0,0.0,0.0,0.0,0.0,0.0,0.0,0.0,0.0,0.0,0.0,0.0,0.0,0.0,0.0,-2.3016,-2.2304,-2.1807,-2.1807,-2.1807,-2.1807,-2.1807,-2.1807,-2.1814,-2.179,-2.1763,0.0,0.0,0.0,0.0,0.0,0.0,0.0,0.0,0.0,0.0,0.0,0.0,0.0,0.0,0.0,0.0,0.0,0.0,0.0,0.0,0.0,0.0,0.0,0.0,0.0,0.0,0.0,0.0,0.0,0.0,0.0,0.0,0.0,0.0,0.0,0.0,0.0,0.0,0.0,0.0,0.0,0.0,0.0,0.0,0.0,0.0,0.0,0.0,0.0,0.0,0.0,0.0,0.0,-1.2244,-1.2213,-1.2412,-1.3133,-1.37,-1.4157,-1.5487,-1.6214,-1.653,-1.7074,0.0,0.0,0.0,0.0,0.0,0.0,0.0,0.0,0.0,0.0,0.0,0.0,0.0,0.0,0.0,0.0,0.0,0.0,0.0,0.0,0.0,0.0,0.0,0.0,-2.3948,-2.3527,0.0,0.0,0.0,0.0,0.0,0.0,0.0,0.0,0.0,0.0,0.0,0.0,-2.2639,-2.2112,-2.1807,-2.1807,-2.1807,-2.1807,-2.1807,-2.1807,-2.1807,-2.1807,-2.2002,-2.1676,0.0,0.0,0.0,0.0,0.0,0.0,0.0,0.0,0.0,0.0,0.0,0.0,0.0,0.0,0.0,0.0,0.0,0.0,0.0,0.0,0.0,0.0,0.0,0.0,0.0,0.0,0.0,0.0,0.0,0.0,0.0,0.0,-0.4478,-0.4966,0.0,0.0,0.0,0.0,0.0,0.0,0.0,0.0,0.0,0.0,0.0,0.0,0.0,-1.0562,-1.2445,-1.2579,-1.2637,-1.2677,-1.2643,-1.2507,-1.2405,-1.2536,-1.3209,-1.4379,-1.4588,0.0,-1.5797,-1.6522,0.0,0.0,0.0,0.0,0.0,0.0,0.0,0.0,0.0,0.0,0.0,0.0,0.0,0.0,0.0,0.0,0.0,0.0,0.0,0.0,0.0,0.0,-2.2176,-2.3102,-2.315,-2.3086,0.0,-2.4018,-2.4411,-2.4096,-2.3886,0.0,0.0,0.0,0.0,0.0,0.0,0.0,-2.2584,-2.2131,-2.1807,-2.1807,-2.1807,-2.1807,-2.1807,-2.1807,-2.1807,-2.1807,-2.1356,-2.1212,-2.1423,-2.009,0.0,0.0,0.0,0.0,0.0,0.0,0.0,0.0,0.0,0.0,0.0,0.0,0.0,0.0,0.0,0.0,0.0,0.0,0.0,0.0,0.0,0.0,0.0,0.0,0.0,0.0,0.0,0.0,0.0,-0.2861,-0.4612,-0.4966,-0.5327,-0.5599,0.0,0.0,0.0,0.0,0.0,0.0,0.0,0.0,0.0,-0.8333,-0.9026,-1.0163,-1.174,-1.2132,-1.2366,-1.2546,-1.2361,-1.2321,-1.2409,-1.2409,-1.3023,-1.4116,-1.4389,-1.4843,-1.5452,-1.6335,-1.6362,-1.5967,0.0,0.0,0.0,0.0,-1.9814,-2.001,-2.0664,-2.0945,0.0,-2.1022,0.0,0.0,0.0,0.0,0.0,0.0,0.0,0.0,0.0,0.0,-2.308,-2.299,-2.3001,-2.3001,-2.3001,-2.2905,-2.3003,0.0,-2.3991,-2.4031,-2.3893,0.0,0.0,0.0,0.0,-2.2294,-2.246,-2.2078,-2.1807,-2.1807,-2.1807,-2.1807,-2.1807,-2.1807,-2.1694,-2.1435,-2.1156,-2.0912,-2.0719,-1.9982,-1.9685,0.0,0.0,0.0,0.0,0.0,0.0,0.0,0.0,0.0,0.0,0.0,0.0,0.0,0.0,0.0,0.0,0.0,0.0,0.0,0.0,0.0,0.0,0.0,0.0,0.0,0.0,0.0,0.0,-0.31,-0.4638,-0.4968,-0.5442,-0.5721,0.0,0.0,0.0,0.0,0.0,0.0,-0.5945,-0.6168,-0.6864,-0.8095,-0.8989,-1.0117,-1.1472,-1.1939,-1.226,-1.2411,-1.219,-1.2162,-1.2323,-1.2389,-1.2968,-1.3993,-1.4315,-1.478,-1.5333,-1.6145,-1.6134,-1.5655,-1.6774,-1.7147,-1.722,-1.8917,-1.9648,-1.9962,-2.0615,-2.0819,-2.0819,-2.0819,-2.0867,-2.0984,-2.131,0.0,0.0,0.0,0.0,-2.3537,-2.2979,-2.3154,-2.3401,-2.3313,-2.3276,-2.3276,-2.3276,-2.2979,-2.2868,0.0,-2.3689,-2.3828,-2.3874,0.0,0.0,0.0,0.0,-2.208,-2.2226,-2.1992,-2.1807,-2.1807,-2.1807,-2.1807,-2.1807,-2.1656,-2.1428,-2.1087,-2.0756,-2.0457,-2.0136,-1.9885,-1.968,-1.9429,0.0,0.0,0.0,0.0,0.0,0.0,0.0,0.0,0.0,0.0,0.0,0.0,0.0,0.0,0.0,0.0,0.0,0.0,0.0,0.0,0.0,0.0,0.0,0.0,0.0,0.0,0.0,0.0,0.0,-0.5022,-0.5506,0.0,0.0,0.0,0.0,-0.5885,-0.5893,-0.5947,-0.607,-0.6235,-0.7248,-0.9262,-0.9489,-1.0612,-1.2681,-1.2736,-1.264,-1.2398,-1.2388,-1.231,-1.21,-1.2291,-1.3055,-1.4173,-1.4122,-1.4609,-1.5433,-1.581,-1.5744,-1.5484,-1.637,-1.7229,-1.8037,-1.8975,-1.9854,-2.0566,-2.0605,-2.0605,-2.0605,-2.0605,-2.0731,-2.1051,-2.1745,-2.2161,0.0,0.0,-2.2264,-2.2472,-2.2435,-2.2042,-2.2052,-2.3647,-2.4047,-2.4047,-2.4047,-2.46,-2.4504,0.0,-2.1939,-2.1997,-2.219,0.0,-2.1918,-2.2136,-2.1977,-2.1804,-2.1842,-2.1825,-2.1807,-2.1807,-2.1807,-2.1807,-2.1807,-2.1261,-2.0935,-2.0915,-1.9819,-1.9559,-2.0333,-1.9606,-1.9515,-2.0341,-1.9544,0.0,0.0,0.0,0.0,0.0,0.0,0.0,0.0,0.0,0.0,0.0,0.0,0.0,0.0,0.0,0.0,0.0,0.0,0.0,0.0,0.0,0.0,0.0,0.0,0.0,0.0,0.0,0.0,-0.5015,-0.5511,0.0,-0.5699,-0.5871,-0.5945,-0.5907,-0.5975,-0.6075,-0.6246,-0.6292,-0.7205,-0.9191,-0.9203,-1.0175,-1.2322,-1.2357,-1.231,-1.2229,-1.2339,-1.2371,-1.2291,-1.2377,-1.3152,-1.4446,-1.4676,-1.5255,-1.6038,-1.6162,-1.5774,-1.5153,-1.5898,-1.6581,-1.7269,-1.8158,-1.9015,-1.9854,-2.0401,-2.0605,-2.0605,-2.0605,-2.0644,-2.076,-2.1011,-2.1252,-2.1415,-2.1339,-2.1558,-2.1787,-2.1645,-2.2344,-2.308,-2.3169,-2.3573,-2.3877,-2.3486,-2.3202,-2.2793,-2.1949,-2.2214,-2.2611,-2.2661,-2.2173,-2.201,-2.2576,-2.2184,-2.1807,-2.1807,-2.1807,-2.1807,-2.1807,-2.1807,-2.1683,-2.1383,-2.116,-2.0808,-2.022,-1.9788,-1.9552,-1.9551,-1.9274,-1.9258,-1.9559,-1.926,-1.9304,0.0,0.0,0.0,0.0,0.0,0.0,0.0,0.0,0.0,0.0,0.0,0.0,0.0,0.0,0.0,0.0,0.0,0.0,0.0,0.0,0.0,0.0,0.0,0.0,0.0,0.0,-0.5058,-0.5205,-0.5604,-0.5885,-0.5818,-0.5994,-0.6051,-0.5969,-0.604,-0.6121,-0.6251,-0.6254,-0.711,-0.91,-0.9039,-0.999,-1.2172,-1.2218,-1.2218,-1.2218,-1.2334,-1.2371,-1.2296,-1.2377,-1.3204,-1.4644,-1.4829,-1.5537,-1.6565,-1.6455,-1.5935,-1.5265,-1.5579,-1.6304,-1.7229,-1.7796,-1.8727,-1.9814,-2.0411,-2.0605,-2.0605,-2.0605,-2.0605,-2.0605,-2.0605,-2.0693,-2.0819,-2.0819,-2.1012,-2.1195,-2.1128,-2.2203,-2.3191,-2.2809,-2.3327,-2.3815,-2.346,-2.2767,-2.2214,-2.2214,-2.2402,-2.259,-2.259,-2.2138,-2.1997,-2.2515,-2.2138,-2.1807,-2.1807,-2.1807,-2.1807,-2.1807,-2.1807,-2.1621,-2.1155,-2.1114,-2.0731,-1.9855,-1.9648,-1.9407,-1.9119,-1.9108,-1.9108,-1.9108,-1.9108,-1.9508,-2.0339,0.0,0.0,0.0,0.0,0.0,0.0,0.0,0.0,0.0,0.0,0.0,0.0,0.0,0.0,0.0,0.0,0.0,0.0,0.0,0.0,0.0,0.0,0.0,-0.444,-0.4824,-0.5143,-0.5514,-0.5784,-0.5967,-0.6092,-0.6083,-0.6086,-0.6086,-0.6089,-0.6092,-0.6097,-0.6097,-0.7032,-0.9037,-0.9084,-1.0155,-1.2356,-1.2414,-1.2414,-1.2404,-1.2414,-1.2291,-1.2116,-1.2354,-1.3251,-1.4684,-1.4644,-1.5516,-1.6859,-1.6543,-1.6191,-1.5884,-1.5528,-1.6484,-1.7997,-1.7997,-1.9116,-2.0605,-2.0605,-2.0605,-2.0605,-2.0605,-2.0605,-2.0605,-2.0605,-2.0605,-2.0605,-2.0605,-2.0605,-2.0644,-2.0829,-2.1502,-2.2203,-2.2574,-2.3279,-2.3877,-2.4024,-2.3475,-2.2964,-2.2964,-2.2327,-2.1807,-2.1807,-2.1807,-2.1807,-2.1807,-2.1807,0.0,-2.1807,-2.1807,-2.1807,-2.1807,-2.1807,-2.1611,-2.1135,-2.1093,-2.071,-1.9834,-1.9349,-1.91,-1.9085,-1.9108,-1.9108,-1.9108,-1.9098,-1.9659,-2.078,0.0,0.0,0.0,0.0,0.0,0.0,0.0,0.0,0.0,0.0,0.0,0.0,0.0,0.0,0.0,0.0,0.0,0.0,0.0,0.0,0.0,0.0,-0.1283,-0.2748,-0.4206,-0.5136,-0.5089,-0.5666,-0.5944,-0.5691,-0.5941,-0.6086,-0.6086,-0.6168,-0.6255,-0.6336,-0.6339,-0.7171,-0.912,-0.9163,-1.0119,-1.2151,-1.2323,-1.2323,-1.2197,-1.2328,-1.2377,-1.2364,-1.2988,-1.376,-1.4691,-1.5411,-1.6051,-1.6536,-1.6448,-1.6191,-1.5906,-1.5818,-1.6695,-1.7997,-1.7997,-1.9116,-2.0605,-2.0605,-2.0605,-2.0605,-2.0605,-2.0605,-2.0605,-2.0605,-2.0605,-2.0605,-2.0605,-2.0693,-2.0819,-2.0693,-2.1377,-2.2092,-2.2008,-2.2422,-2.2818,-2.2786,-2.2444,-2.2138,-2.2138,-2.1959,-2.1807,-2.1807,-2.1807,-2.1807,-2.1807,-2.1807,0.0,-2.1807,-2.1807,-2.1807,-2.1807,-2.1807,-2.1476,-2.0643,-2.0581,-2.0224,-1.9357,-1.9153,-1.9101,-1.9108,-1.9108,-1.9108,-1.9108,-1.9438,-1.9889,0.0,0.0,0.0,0.0,0.0,0.0,0.0,0.0,0.0,0.0,0.0,0.0,0.0,0.0,0.0,0.0,0.0,0.0,0.0,0.0,0.0,0.0,0.0555,-0.0465,-0.1843,-0.3361,-0.4561,-0.5238,-0.567,-0.5868,-0.5899,-0.6096,-0.6214,-0.6165,-0.6128,-0.6174,-0.629,-0.6143,-0.693,-0.8752,-0.9033,-0.9922,-1.1548,-1.1869,-1.2057,-1.2062,-1.2204,-1.2369,-1.2608,-1.3358,-1.411,-1.4863,-1.5785,-1.6411,-1.6748,-1.6477,-1.6309,0.0,0.0,0.0,0.0,0.0,-1.9717,-2.0605,-2.0605,-2.0605,-2.0605,-2.0605,-2.0605,-2.0605,-2.0605,-2.0605,-2.0605,-2.0605,-2.0693,-2.0741,-2.0644,-2.129,-2.1903,-2.1557,-2.1966,-2.2328,-2.2125,-2.1949,-2.1807,-2.1807,-2.1807,0.0,-2.1807,-2.1807,-2.1807,-2.1807,-2.1807,-2.1807,-2.1807,-2.1807,-2.1807,-2.1807,-2.1807,-2.1424,-2.0467,-2.056,0.0,0.0,0.0,-1.9305,-1.9108,-1.9108,0.0,0.0,0.0,-1.9615,-1.9802,0.0,0.0,0.0,-2.2586,-2.3065,0.0,0.0,0.0,0.0,0.0,0.0,0.0,0.0,0.0,0.0,0.0,0.0,0.0,0.0,0.0,0.0,0.0884,-0.0236,-0.1369,-0.2358,-0.3682,-0.5596,-0.5718,-0.5817,-0.6268,-0.6354,-0.6311,-0.6228,-0.602,-0.5932,-0.6082,0.0,0.0,0.0,0.0,-0.9639,-1.0728,-1.1402,-1.1788,-1.1927,-1.198,-1.2273,-1.2759,-1.357,-1.4382,-1.5146,-1.5954,-1.6716,-1.7235,-1.663,-1.6411,-1.6461,-1.6737,-1.7302,-1.8198,-1.9962,-2.0605,-2.0605,-2.0605,0.0,0.0,-2.0605,-2.0605,-2.0605,-2.0605,-2.0605,-2.0605,-2.0605,-2.0566,-2.0546,-2.0595,-2.1125,-2.1542,-2.1201,-2.1728,-2.2203,-2.1783,-2.1728,-2.1769,-2.1731,-2.1769,-2.1769,-2.1769,-2.1769,-2.1807,-2.1807,-2.1807,-2.1807,-2.1807,-2.1807,-2.1807,-2.1807,0.0,0.0,-2.0467,-2.0767,-2.0472,-1.9181,-1.9492,-1.9533,-1.9119,-1.9108,-1.9108,-1.9108,-1.9108,-1.9108,-1.9108,-1.9715,-2.0009,-2.0042,-2.176,-2.2482,0.0,0.0,0.0,0.0,0.0,0.0,0.0,0.0,0.0,0.0,0.0,0.0,0.0,0.0,0.0,0.1891,0.1538,0.0929,-0.02,-0.1402,-0.3003,-0.5109,-0.5652,-0.5806,-0.5664,-0.597,-0.604,-0.5679,-0.5825,-0.5951,-0.6023,-0.5778,-0.6366,-0.7989,-0.8811,-0.9608,-1.0485,-1.1861,-1.2178,-1.134,0.0,0.0,-1.2219,-1.3607,-1.4561,-1.5146,-1.652,-1.7185,-1.7235,-1.663,-1.6485,-1.6723,-1.7441,-1.7836,-1.8198,-1.9962,-2.0605,-2.0605,-2.0605,-2.0605,-2.0605,-2.0605,-2.0605,-2.0605,-2.0605,-2.0605,0.0,-2.0605,-2.0312,-2.0117,-2.0517,-2.0561,-2.0519,-2.0624,-2.1171,-2.1552,-2.107,-2.1285,-2.1502,-2.1359,-2.1436,-2.154,-2.154,-2.1693,-2.1807,-2.1807,-2.1807,-2.1807,-2.1807,-2.1807,-2.1807,-2.1807,-2.1807,-2.1424,-2.0467,-2.0467,-2.0131,-1.917,-1.9191,-1.9191,-1.9108,-1.9108,-1.9108,-1.9108,-1.9108,-1.9108,-1.9108,-1.9231,-1.9297,-1.933,-2.1279,-2.2175,0.0,0.0,0.0,0.0,0.0,0.0,0.0,0.0,0.0,0.0,0.0,0.2162,0.0,0.0,0.1845,0.1737,0.1659,0.1186,-0.005,-0.0655,-0.1863,-0.4131,-0.5194,-0.5758,-0.5763,-0.5809,-0.5799,-0.5758,-0.5612,-0.5634,-0.5787,-0.5539,-0.5937,-0.7179,-0.8262,-0.9008,-0.941,-1.0846,-1.134,-1.0801,-1.1047,-1.1345,-1.1683,-1.3457,-1.4459,-1.4806,-1.6433,-1.7192,-1.7235,-1.663,-1.6245,-1.6188,-1.7472,-1.8287,-1.8807,-2.0128,-2.0605,-2.0605,-2.0605,-2.0605,-2.0605,-2.0605,-2.0605,-2.0605,-2.0605,-2.0605,-2.0605,-2.0605,-2.0449,-2.0293,-2.0546,-2.0516,-2.0463,-2.0645,-2.0835,-2.0954,-2.0741,-2.0937,-2.11,-2.0921,-2.1131,-2.1397,-2.1464,-2.1578,-2.1693,-2.1769,-2.1807,-2.1807,-2.1807,-2.1807,-2.1807,-2.1807,-2.1807,-2.1424,-2.0467,-2.0006,-1.9551,-1.9139,-1.9108,-1.9108,-1.9108,-1.9108,-1.9108,-1.9108,-1.9108,-1.9108,-1.9108,-1.9108,-1.9108,-1.9131,-2.0462,-2.129,0.0,0.0,0.0,0.0,0.0,0.0,0.0,0.0,0.3446,0.2313,0.2069,0.2015,0.1871,0.1823,0.1784,0.1617,0.1577,0.124,0.0151,-0.0252,-0.1157,-0.2958,-0.442,-0.5434,-0.5889,-0.5789,-0.5689,-0.5741,-0.5391,-0.529,-0.5486,-0.5288,-0.5489,-0.6237,-0.7574,-0.8319,-0.8233,-0.9764,-1.0462,-1.0265,-1.0364,-1.0605,-1.1096,-1.3162,-1.4094,-1.4237,-1.6,-1.6843,-1.6919,-1.6447,-1.59,-1.5548,-1.7115,-1.8278,-1.9173,-2.0206,-2.0605,-2.0605,-2.0605,-2.0605,-2.0605,-2.0605,-2.0605,-2.0605,-2.0605,-2.0605,-2.0605,-2.0605,-2.0546,-2.0498,-2.0586,-2.0575,-2.0585,-2.0876,-2.0819,-2.0679,-2.0646,-2.0727,-2.0754,-2.0561,-2.0805,-2.1143,-2.1349,-2.1464,-2.1578,-2.1769,-2.1807,-2.1807,-2.1807,-2.1807,-2.1807,-2.1807,-2.1807,-2.1424,-2.0467,-1.9675,-1.9202,-1.9108,-1.9108,-1.9108,-1.9108,-1.9108,-1.9108,-1.9108,-1.9108,-1.9108,-1.9108,-1.9108,-1.9108,-1.9098,-1.9649,-2.0323,1.1179,1.0256,0.8874,0.686,0.6082,0.5203,0.0,0.0,0.2065,0.1751,0.1685,0.1664,0.1615,0.1615,0.1617,0.162,0.1594,0.1562,0.1414,-0.0655,-0.2051,-0.1773,-0.3188,-0.4578,-0.5536,-0.5839,-0.5689,-0.4985,-0.509,-0.519,-0.524,-0.4987,-0.5085,-0.5684,-0.7226,-0.7925,-0.768,-0.9957,-1.0605,-0.9677,-1.0167,-1.0413,-1.0556,-1.2398,-1.3379,-1.3666,-1.5189,-1.5837,-1.5756,-1.5734,-1.5582,-1.5506,-1.646,-1.7391,-1.8359,-2.0001,-2.0605,-2.0605,-2.0605,-2.0605,-2.0605,-2.0605,-2.0605,-2.0605,-2.0605,-2.0605,-2.0605,-2.0605,-2.0283,-2.0078,-2.0507,-2.0426,-2.0381,-2.1028,-2.128,-2.128,-2.0883,-2.0791,-2.068,-2.0327,-2.0432,-2.0667,-2.0914,-2.1244,-2.1578,-2.1769,-2.1807,-2.1807,-2.1807,-2.1807,-2.1807,-2.1807,-2.1807,-2.1424,-2.0467,-1.9965,-1.9544,-1.9129,-1.9108,-1.9108,-1.9108,-1.9108,-1.9108,-1.9108,-1.9108,-1.9108,-1.9108,-1.9108,-1.9108,-1.9108,-1.9175,-1.9879,1.0547,0.9867,0.0,0.0,0.7035,0.602,0.4271,0.3354,0.2646,0.1765,0.1593,0.1577,0.1594,0.1583,0.1577,0.0,0.1609,0.1566,0.1364,0.005,-0.1185,-0.1862,-0.2977,-0.4109,-0.5194,-0.5255,-0.518,-0.5033,-0.4987,-0.4987,-0.4987,-0.4885,-0.4885,-0.5135,-0.6684,-0.7481,-0.7385,-0.932,-1.0019,-0.9628,-0.9821,-0.992,-1.0019,-1.215,-1.3831,-1.5108,-1.5882,-1.6029,-1.5652,-1.578,-1.5799,-1.5813,-1.6451,-1.7352,-1.8428,-1.9454,-2.0167,-2.0605,-2.0605,-2.0605,-2.0605,-2.0605,-2.0605,-2.0605,-2.0605,-2.0429,-2.0185,-2.0185,-1.9883,-1.9648,-2.0078,-2.0124,-2.0171,-2.07,-2.0813,-2.0649,-2.0337,-2.0382,-2.0392,-2.0082,-2.0317,-2.063,-2.0876,-2.1128,-2.1397,-2.1589,-2.1731,-2.1807,-2.1807,-2.1807,-2.1807,-2.1807,-2.1569,-2.1135,-2.0447,-2.0017,-1.9596,-1.9139,-1.9108,-1.9108,-1.9108,-1.9108,-1.9108,-1.9108,-1.9108,-1.9108,-1.9108,-1.9108,-1.9108,-1.9108,-1.9108,-1.9616,1.04,0.0,0.0,0.8074,0.7173,0.6124,0.4578,0.3624,0.2767,0.1806,0.1587,0.1576,0.159,0.1574,0.1569,0.1599,0.1605,0.1554,0.1353,0.0297,-0.0829,-0.1929,-0.3093,-0.408,-0.4814,-0.4869,-0.489,-0.5081,-0.4887,-0.4784,-0.4784,-0.4784,-0.4784,-0.4784,-0.6384,-0.7188,-0.7188,-0.8779,-0.9579,-0.9579,-0.9579,-0.9579,-0.9673,-1.1895,-1.4028,-1.6001,-1.6099,-1.5886,-1.5506,-1.5681,-1.5753,-1.5806,-1.6206,-1.7187,-1.8415,-1.8794,-1.9648,-2.0605,-2.0605,-2.0605,-2.0605,-2.0605,-2.0605,-2.0605,-2.0605,-2.0254,-1.9941,-2.0059,-1.9785,-1.9561,-1.998,-2.0088,-2.0176,-2.0575,-2.0534,-2.0315,-2.0102,-1.9997,-1.9847,-1.9639,-1.9697,-1.9819,-2.007,-2.0284,-2.043,-2.0586,-2.0895,-2.129,-2.1731,-2.1807,-2.1807,-2.1807,-2.1507,-2.1062,-2.0436,-2.0131,-1.973,-1.9139,-1.9108,-1.9108,-1.9108,-1.9108,-1.9108,-1.9108,-1.9108,-1.9108,-1.9108,-1.9108,-1.9108,-1.9108,-1.9108,-1.9363,1.1121,0.0,0.8276,0.5877,0.5077,0.4325,0.217,0.1667,0.1658,0.1628,0.1621,0.1563,0.1534,0.148,0.1537,0.1568,0.1622,0.1573,0.1573,-0.0392,-0.1737,-0.144,-0.3376,-0.4673,0.0,-0.484,-0.5033,-0.4828,-0.4784,-0.4784,-0.4784,-0.4784,-0.4784,-0.4784,-0.6384,-0.7188,-0.7188,-0.8779,-0.9579,-0.9579,-0.9579,-0.9579,-0.9669,-1.1499,-1.3473,-1.5398,-1.5156,-1.5001,-1.4948,-1.5137,-1.5177,-1.516,-1.5347,-1.6476,-1.8014,-1.8046,-1.9125,-2.0605,-2.0605,-2.0605,-2.0605,-2.0605,-2.0605,-2.0605,-2.0605,-2.0254,-2.0,-2.0468,-2.0234,-2.0,-2.0478,-2.0586,-2.0634,-2.0858,-2.0896,-2.0806,-2.0557,-1.9827,-1.9165,-1.8974,-1.8246,-1.7787,-1.8049,-1.827,-1.8381,-1.8421,-1.8979,-1.9972,-2.1606,-2.1807,-2.1807,-2.1807,-2.1797,-2.1414,-2.0467,-2.0374,-2.0027,-1.916,-1.9108,-1.9108,-1.9108,-1.9108,-1.9108,-1.9108,-1.9108,-1.9108,-1.9108,-1.9108,-1.9108,-1.9108,-1.9108,-1.9098,1.0047,0.0,0.8528,0.7332,0.6434,0.5479,0.4074,0.3173,0.2458,0.1725,0.1555,0.1538,0.1528,0.151,0.1506,0.1536,0.1558,0.162,0.162,-0.0245,-0.1552,-0.137,-0.3212,0.0,0.0,0.0,0.0,-0.4738,-0.4751,-0.4775,-0.478,-0.4784,-0.4784,-0.4784,-0.6384,-0.7188,-0.7188,-0.8779,-0.9579,-0.9579,-0.9579,-1.0306,-1.1663,-1.2309,-1.3625,-1.5391,-1.5291,-1.5135,-1.498,-1.5003,-1.5099,-1.5221,-1.5205,-1.6042,-1.7324,-1.7808,-1.8727,-1.9814,-2.0411,-2.0605,-2.0605,-2.0605,-2.0605,-2.0605,-2.0605,-2.0254,-1.9883,-1.9756,-1.9609,-1.9531,-1.9678,-1.9922,-2.009,-1.9875,-1.9824,-1.9659,-1.8991,-1.8592,-1.8395,-1.8325,-1.8078,-1.7883,-1.7971,-1.8189,-1.8332,-1.8483,-1.8979,-1.962,-2.0411,-2.0537,-2.0537,-2.0537,-2.0934,-2.0933,-2.033,-2.062,-2.0493,-1.9616,-1.9564,-1.9419,-1.9119,-1.9108,-1.9108,-1.9108,-1.9108,-1.9108,-1.9108,-1.9108,-1.9108,-1.9108,-1.9108,-1.9108,0.9899,0.9069,0.8577,0.7637,0.6886,0.6134,0.5024,0.4253,0.3422,0.2339,0.2056,0.1882,0.1542,0.1478,0.1474,0.1505,0.1536,0.1555,0.1555,-0.0195,-0.146,-0.1383,-0.3199,0.0,0.0,0.0,0.0,-0.4698,-0.4736,-0.4777,-0.478,-0.4784,-0.4784,-0.4784,-0.6384,-0.7188,-0.7188,-0.8779,-0.9579,-0.9579,-0.9579,-1.0694,-1.2678,-1.2678,-1.3754,-1.5545,-1.5438,-1.5231,-1.4988,-1.4919,-1.4918,-1.4982,-1.5071,-1.575,-1.6781,-1.7319,-1.8278,-1.942,-2.0284,-2.0605,-2.0605,-2.0605,-2.0498,-2.0361,-2.0556,-2.0049,-1.9463,-1.9502,-1.9404,-1.9316,-1.9473,-1.9599,-1.9601,-1.921,-1.8876,-1.8522,-1.7959,-1.7592,-1.7394,-1.7528,-1.7269,-1.7074,-1.7074,-1.7188,-1.7342,-1.7658,-1.7948,-1.847,-1.9335,-1.9571,-1.962,-1.9453,-1.9806,-1.9966,-1.9648,-2.0192,-2.0299,-1.9722,-1.9772,-1.9658,-1.9357,-1.9191,-1.9108,-1.9108,-1.9108,-1.9108,-1.9108,-1.9108,-1.9108,-1.9108,-1.9108,-1.9108,1.0489,0.9558,0.8428,0.6886,0.6487,0.6182,0.512,0.4755,0.4378,0.3383,0.3041,0.2664,0.1665,0.148,0.149,0.1476,0.1506,0.1479,0.1528,-0.0242,-0.151,0.0,0.0,0.0,0.0,0.0,0.0,-0.4702,0.0,-0.478,-0.4784,-0.4784,-0.4784,-0.4784,-0.6384,-0.7188,-0.7188,-0.8779,-0.9579,-0.9579,-0.9579,-1.0694,-1.2678,-1.2678,-1.383,-1.5718,-1.5491,-1.5204,-1.4941,-1.4885,-1.4679,-1.444,-1.4915,-1.5575,-1.6353,-1.6583,-1.7755,-1.9292,-2.0167,-2.0527,-2.0605,-2.0605,-2.0283,-2.0029,-2.0478,-1.9707,-1.8861,-1.9623,-1.9555,-1.9368,-1.9673,-1.9466,-1.9125,-1.8722,-1.8062,-1.7449,-1.7393,-1.6735,-1.6253,-1.6553,-1.5989,-1.5389,-1.5389,-1.5389,-1.5555,-1.6004,-1.6087,-1.6681,-1.8284,-1.889,-1.9018,-1.8563,-1.8523,-1.8531,-1.8561,-1.9136,-1.9493,-1.9452,-1.9641,-1.9789,-1.9758,-1.9313,-1.9108,-1.9108,-1.9108,-1.9108,-1.9108,-1.9108,-1.9108,-1.9108,-1.9108,-1.9108,0.9509,0.8871,0.8382,0.7736,0.7587,0.731,0.6121,0.5835,0.547,0.4258,0.3979,0.3667,0.2698,0.251,0.2301,0.1614,0.1506,0.0,0.1557,-0.0247,0.0,-0.1511,0.0,-0.4647,-0.4627,-0.4634,0.0,0.0,-0.4728,-0.4769,-0.478,-0.4784,-0.4784,-0.4784,-0.6384,-0.7188,-0.7188,-0.8779,-0.9579,-0.9579,-0.9579,-1.0694,-1.2678,-1.2678,-1.3637,-1.5177,-1.511,-1.4827,-1.4345,-1.4314,-1.424,-1.4208,-1.4664,-1.4943,-1.5269,-1.6288,-1.6984,-1.7504,-1.8359,-1.952,-2.0605,-2.0605,-2.0527,-2.0458,-2.0566,-2.037,-1.9935,-1.9136,-1.8928,-1.8722,-1.787,-1.7796,-1.7718,-1.6706,-1.6688,-1.6653,-1.5774,-1.5564,-1.5644,-1.5726,-1.5548,-1.5389,-1.5389,-1.5389,-1.5431,-1.5555,-1.5888,-1.6368,-1.7082,-1.7286,-1.7326,-1.7196,-1.7642,-1.7923,-1.7909,-1.8795,-1.9206,-1.8873,-1.9316,-1.9429,-1.9074,-1.9076,-1.9108,-1.9108,-1.9108,-1.9108,-1.9108,-1.9108,-1.9108,-1.9108,-1.9108,-1.9108,0.8871,0.8531,0.8333,0.8088,0.7938,0.7736,0.7125,0.6885,0.6491,0.5454,0.5083,0.0,0.3228,0.2929,0.0,0.0,0.0,0.0,0.1549,-0.0248,-0.1607,0.0,-0.3423,0.0,-0.4692,-0.4734,-0.4765,0.0,-0.4765,-0.4783,-0.4782,-0.4784,-0.4784,-0.4784,-0.6384,-0.7534,-0.8233,-0.913,-0.9579,-0.9579,-0.9579,-1.0409,-1.1905,-1.2337,-1.3222,-1.4405,0.0,-1.4583,-1.4269,-1.4142,-1.4088,-1.4124,-1.4447,-1.4608,-1.4817,-1.5684,-1.6296,-1.678,-1.7269,-1.8318,-1.9441,-1.9441,-1.9321,-1.921,-1.9425,-1.9192,-1.8781,-1.8234,-1.8024,-1.7799,-1.7087,-1.6919,-1.6707,-1.5914,-1.5795,-1.5708,-1.5058,-1.5046,-1.5214,-1.536,-1.5389,-1.5389,-1.5389,-1.5389,-1.5389,-1.5389,-1.5631,-1.588,-1.6079,-1.6327,-1.6368,-1.6162,-1.6484,-1.6771,-1.6976,-1.7787,-1.8285,-1.8201,-1.861,-1.8814,-1.8701,-1.8734,-1.8808,-1.8975,-1.9075,-1.9075,-1.8975,-1.9075,-1.9031,-1.8975,-1.9075,-1.9108,0.8482,0.8382,0.8283,0.8038,0.7891,0.7872,0.7934,0.7811,0.7418,0.6699,0.0,0.5542,0.3643,0.3184,0.2744,0.1576,0.0,0.1523,0.1531,-0.0295,-0.1609,-0.1613,-0.3475,-0.4784,-0.4784,-0.4784,-0.4784,-0.4784,-0.4784,-0.4784,-0.4784,-0.4784,-0.4834,-0.4935,-0.6437,-0.7935,-0.943,-0.9529,-0.9579,-0.9579,-0.9604,-1.0038,-1.092,-1.1827,-1.2714,-1.3564,-1.4228,0.0,-1.4442,-1.4195,-1.4088,-1.413,-1.4321,-1.4524,-1.4692,-1.4999,-1.5692,-1.6494,-1.6542,-1.7057,-1.775,-1.7993,-1.782,-1.7615,-1.798,-1.7542,-1.7004,-1.7245,-1.7059,-1.6763,-1.6649,-1.6342,-1.5968,-1.5614,-1.5268,-1.4951,-1.4907,-1.4936,-1.5053,-1.533,-1.5389,-1.5389,-1.5389,-1.5389,-1.5389,-1.5389,-1.5389,-1.5389,-1.5389,-1.5763,-1.5846,-1.5431,-1.5389,-1.5555,-1.5963,-1.6503,-1.6985,-1.7422,-1.764,-1.7944,-1.8395,-1.8269,-1.8361,-1.8741,-1.8942,-1.8942,-1.8741,-1.8942,-1.8942,-1.8774,-1.8942,-1.9008,0.8432,0.8233,0.8038,0.7988,0.7971,0.7924,0.7875,0.7811,0.0,0.0,0.7359,0.6671,0.4623,0.4229,0.0,0.1794,0.0,0.0,0.0,0.0,-0.1685,0.0,0.0,0.0,0.0,0.0,0.0,0.0,0.0,-0.4784,-0.4784,-0.4784,-0.5085,-0.5792,-0.6689,-0.7633,-0.8581,-0.9278,-0.9579,-0.9575,-0.9474,-0.9957,-1.0915,-1.1708,-1.2451,-1.3252,-1.4143,0.0,-1.4162,-1.4108,-1.4088,-1.413,-1.4321,-1.4433,-1.4482,-1.4957,-1.5208,-1.5409,-1.5582,-1.5886,-1.6492,-1.7938,-1.8384,-1.83,-1.841,-1.8292,-1.8016,-1.7082,-1.6597,-1.6166,-1.5437,-1.517,-1.5053,-1.4766,-1.5032,-1.5228,-1.4958,-1.5112,-1.5316,-1.5374,-1.5389,-1.5389,-1.5389,-1.5389,-1.5389,-1.5389,-1.5389,-1.5389,-1.5389,-1.5472,-1.5472,-1.5431,-1.5389,-1.5431,-1.5514,-1.5698,-1.5901,-1.5941,-1.619,-1.6698,-1.7397,-1.7539,-1.7867,-1.8549,-1.8583,-1.8583,-1.8549,-1.8583,-1.8583,-1.8549,-1.8583,-1.8617,0.8208,0.8199,0.814,0.8008,0.7931,0.7874,0.788,0.0,0.0,0.0,0.7767,0.7089,0.4982,0.0,0.0,0.0,0.0,0.0,0.0,0.0,0.0,0.0,0.0,0.0,0.0,0.0,0.0,0.0,0.0,-0.4784,-0.4784,-0.4784,-0.5186,-0.5992,-0.6789,-0.7587,-0.8382,-0.9179,-0.9579,-0.9575,-0.9441,-0.9589,-1.0012,-1.0714,-1.1486,-1.2235,-1.3157,0.0,-1.4088,-1.4088,-1.4088,-1.413,-1.4201,-1.4423,-1.4694,-1.4914,-1.5133,-1.5397,-1.5619,-1.5807,-1.614,-1.7288,-1.7565,-1.7383,-1.7209,-1.7162,-1.7007,-1.6246,-1.5779,-1.544,-1.5021,-1.49,-1.4863,-1.475,-1.5079,-1.5345,-1.5192,-1.5279,-1.5389,-1.5389,-1.5389,-1.5389,-1.5389,-1.5389,-1.5389,-1.5389,-1.5389,-1.5389,-1.5389,-1.5389,-1.5389,-1.5389,-1.5389,-1.5389,-1.5389,-1.5449,-1.5409,-1.523,-1.5405,-1.5661,-1.6091,-1.6687,-1.7217,-1.7774,-1.8269,-1.8482,-1.8414,-1.8482,-1.8448,-1.8414,-1.8482,-1.8516,0.8022,0.813,0.8194,0.8019,0.7901,0.7892,0.7961,0.7897,0.0,0.0,0.7894,0.7179,0.5084,0.0,0.0,0.0,0.0,0.0,0.0,0.0,0.0,0.0,0.0,0.0,0.0,0.0,0.0,0.0,0.0,0.0,-0.4784,-0.4784,-0.5087,-0.5739,-0.6689,-0.7487,-0.8134,-0.9095,-0.9567,-0.9567,-0.9344,-0.9169,-0.9077,-0.9786,-1.0446,-1.1068,-1.2229,0.0,0.0,-1.409,-1.4215,-1.4275,-1.4275,-1.4552,-1.4936,-1.498,-1.5205,-1.5569,-1.5842,-1.5981,-1.617,-1.6641,-1.6638,-1.6367,-1.6082,-1.5972,-1.5848,-1.5476,-1.5199,-1.5009,-1.5009,-1.5009,-1.5009,-1.5009,-1.5199,-1.5389,-1.5389,-1.5389,-1.5389,-1.5389,-1.5389,-1.5389,-1.5389,-1.5389,-1.5389,-1.5389,-1.5389,-1.5389,-1.5389,-1.5389,-1.5389,-1.5389,-1.5389,-1.5389,-1.5389,-1.5323,-1.517,-1.4922,-1.4835,-1.4866,-1.5104,-1.58,-1.6376,-1.6793,-1.7706,-1.81,-1.7988,-1.8269,-1.8347,-1.8236,-1.8347,-1.8381,0.7992,0.8002,0.8008,0.7992,0.7978,0.7971,0.7985,0.0,0.0,0.7985,0.7978,0.7322,0.518,0.4751,0.4004,0.0,0.0,0.1449,0.0,0.0,0.0,0.0,0.0,0.0,0.0,0.0,0.0,0.0,0.0,0.0,-0.4784,-0.4784,-0.4834,-0.4885,-0.6387,-0.7235,-0.7288,-0.8728,-0.9429,-0.9424,-0.9035,-0.8861,-0.884,-0.9584,-0.9965,-1.0115,-1.1929,0.0,0.0,-1.4122,-1.4636,-1.4928,-1.4928,-1.4948,-1.5013,-1.5191,-1.5301,-1.5366,-1.5575,-1.5982,-1.6464,-1.6538,-1.6458,-1.6404,-1.6382,-1.6133,-1.5848,-1.5476,-1.5367,-1.5345,-1.5345,-1.5345,-1.5345,-1.5345,-1.5367,-1.5389,-1.5389,-1.5389,-1.5389,-1.5389,-1.5389,-1.5389,-1.5389,-1.5389,-1.5389,-1.5389,-1.5389,-1.5389,-1.5389,-1.5389,-1.5389,-1.5389,-1.5389,-1.5389,-1.5389,-1.5119,-1.4936,-1.49,-1.4401,-1.4411,-1.5059,-1.49,-1.51,-1.5807,-1.662,-1.7044,-1.7035,-1.7716,-1.8042,-1.8042,-1.8042,-1.8042,0.8015,0.8106,0.8157,0.8012,0.7988,0.7988,0.7988,0.0,0.7988,0.7988,0.7988,0.7344,0.5194,0.4764,0.4015,0.1856,0.1455,0.0,0.0,0.0,0.0,0.0,0.0,0.0,0.0,0.0,0.0,0.0,0.0,0.0,-0.4784,-0.4784,-0.4784,-0.4784,-0.6267,-0.7064,-0.7064,-0.8519,-0.9202,-0.9198,-0.8942,-0.882,-0.8816,-0.9036,-0.9384,-0.9951,-1.0816,0.0,0.0,-1.3393,-1.3931,-1.4077,-1.4732,-1.5115,-1.5269,-1.5315,-1.5361,-1.5406,-1.5634,-1.5767,-1.5767,-1.5777,-1.5632,-1.5533,-1.5951,-1.587,-1.5513,-1.5185,-1.5236,-1.5389,-1.5389,-1.5389,-1.5389,-1.5389,-1.5389,-1.5389,-1.5389,-1.5389,-1.5389,-1.5389,-1.5389,-1.5389,-1.5389,-1.5389,-1.5389,-1.5389,-1.5389,-1.5389,-1.5389,-1.5389,-1.5389,-1.5389,-1.5389,-1.5389,-1.5389,-1.5272,-1.5031,-1.4684,-1.4421,-1.4244,-1.4132,-1.4436,-1.4744,-1.5029,-1.5772,-1.6411,-1.6897,-1.7182,-1.7579,-1.8008,-1.8008,-1.8008,0.8019,0.8119,0.8177,0.8015,0.7988,0.7988,0.0,0.0,0.7988,0.7988,0.7739,0.6956,0.5136,0.4514,0.367,0.1779,0.1468,0.1445,0.0,0.0,0.0,0.0,0.0,0.0,0.0,0.0,0.0,0.0,0.0,0.0,0.0,-0.4784,-0.4772,-0.4748,-0.6203,-0.6964,-0.6924,-0.8301,-0.9015,-0.9015,-0.8832,-0.8747,-0.8743,-0.8674,-0.8992,-0.961,-1.0074,0.0,0.0,-1.2603,-1.3089,-1.3232,-1.4349,-1.4871,-1.5028,-1.5398,-1.5471,-1.5444,-1.5635,-1.5461,-1.5174,-1.5186,-1.4874,-1.464,-1.5159,-1.5197,-1.5012,-1.4827,-1.4995,-1.5265,-1.536,-1.5389,-1.5389,-1.5389,-1.5389,-1.5389,-1.5389,-1.5389,-1.5389,-1.5389,-1.5389,-1.5389,-1.5389,-1.5389,-1.5389,-1.5389,-1.5389,-1.5389,-1.5389,-1.5389,-1.5389,-1.5389,-1.5389,-1.5389,-1.5389,-1.5389,-1.5196,-1.464,-1.4562,-1.4254,-1.366,-1.4067,-1.4258,-1.4258,-1.5215,-1.5991,-1.655,-1.701,-1.751,-1.8008,-1.8008,-1.8008,0.7942,0.7992,0.7992,0.7988,0.7988,0.7988,0.0,0.7988,0.7988,0.7988,0.7138,0.6084,0.5024,0.3912,0.2822,0.1674,0.15,0.0,0.0,0.0,0.0,0.0,0.0,0.0,0.0,0.0,0.0,0.0,0.0,0.0,0.0,-0.4784,-0.4746,-0.4712,-0.6209,-0.6918,-0.6782,-0.8127,-0.8824,-0.882,-0.8653,-0.8612,-0.862,-0.8743,-0.882,0.0,0.0,0.0,0.0,-1.1905,-1.2371,-1.2623,-1.3844,-1.417,-1.4151,-1.5381,-1.5645,-1.5398,-1.5398,-1.5183,-1.49,-1.4893,-1.4455,-1.3916,-1.3923,-1.408,-1.4237,-1.4433,-1.4699,-1.498,-1.5301,-1.5389,-1.5389,-1.5389,-1.5389,-1.5389,-1.5389,-1.5389,-1.5389,-1.5389,-1.5389,-1.5389,-1.5389,-1.5389,-1.5389,-1.5389,-1.5389,-1.5389,-1.5389,-1.5389,-1.5389,-1.5389,-1.5389,-1.5389,-1.5389,-1.5389,-1.5243,-1.4922,-1.464,-1.4364,-1.4027,-1.3667,-1.3492,-1.3492,-1.4939,-1.571,-1.571,-1.7226,-1.7974,-1.8008,-1.8008,-1.8008,0.7889,0.7842,0.7793,0.7939,0.7842,0.7793,0.7942,0.7842,0.7793,0.7942,0.7138,0.6082,0.4974,0.3871,0.278,0.167,0.1483,0.0,0.0,0.0,0.0,0.0,0.0,0.0,0.0,0.0,0.0,0.0,0.0,0.0,0.0,-0.4689,-0.4671,-0.4708,-0.5554,-0.6264,-0.6651,-0.7507,-0.8203,-0.882,-0.8767,-0.8808,-0.8934,-0.8986,-0.8938,0.0,0.0,0.0,0.0,-1.0686,-1.1157,-1.1301,-1.2406,-1.2812,-1.2842,-1.3199,-1.3163,-1.3007,-1.341,-1.2973,-1.2266,-1.2485,-1.2061,-1.142,-1.1401,-1.2445,-1.3673,-1.3689,-1.4247,-1.472,-1.3981,-1.4248,-1.4615,-1.4153,-1.4033,-1.4033,-1.4033,-1.4033,-1.4033,-1.4033,-1.4033,-1.4033,-1.4033,-1.4033,-1.4201,-1.4657,-1.4699,-1.4873,-1.5347,-1.5389,-1.5389,-1.5389,-1.5389,-1.5389,-1.5389,-1.5389,-1.525,-1.4922,-1.464,-1.4364,-1.3996,-1.3667,-1.3492,-1.3492,-1.3956,-1.4446,-1.4958,-1.5455,-1.6228,-1.726,-1.726,-1.751,0.0,0.7746,0.7596,0.769,0.7643,0.0,0.0,0.7793,0.7793,0.7992,0.6833,0.5567,0.4928,0.3564,0.23,0.1606,0.1477,0.0,0.0,0.0,0.0,0.0,0.0,0.0,0.0,0.0,0.0,0.0,0.0,0.0,0.0,-0.4622,-0.4583,-0.4604,-0.5204,-0.574,-0.6176,-0.7133,-0.7885,-0.8463,-0.8671,-0.8881,-0.8995,-0.8995,-0.893,0.0,0.0,0.0,0.0,-0.9729,-1.0006,-1.0035,-1.1166,-1.1562,-1.1591,-1.2046,-1.2002,-1.174,-1.2109,-1.1587,-1.0759,-1.0975,-1.065,-1.0122,-1.0084,-1.1133,-1.2322,-1.2421,-1.2942,-1.3346,-1.2669,-1.2983,-1.3451,-1.3209,-1.3124,-1.3167,-1.3349,-1.3398,-1.3398,-1.3398,-1.3398,-1.3398,-1.3398,-1.3398,-1.3561,-1.3977,-1.4019,-1.4153,-1.458,-1.4873,-1.5041,-1.5041,-1.5257,-1.5338,-1.5214,-1.5206,-1.5119,-1.4915,-1.4531,-1.4232,-1.4027,-1.3667,-1.3492,-1.3492,-1.3775,-1.4158,-1.4601,-1.4887,-1.5525,-1.6446,-1.6446,-1.6689,0.0,0.7547,0.0,0.0,0.0,0.0,0.7593,0.7786,0.0,0.7872,0.6216,0.4785,0.4696,0.2978,0.1595,0.149,0.0,0.0,0.0,0.0,0.0,0.0,0.0,0.0,0.0,0.0,0.0,0.0,0.0,0.0,0.0,-0.4602,-0.4516,-0.439,-0.5066,-0.543,-0.5484,-0.6904,-0.7717,-0.7919,-0.8448,-0.8783,-0.884,-0.884,-0.8828,0.0,0.0,0.0,0.0,-0.9039,-0.8946,-0.8906,-1.0026,-1.0386,-1.0369,-1.1514,-1.1661,-1.1262,-1.1326,-1.0799,-1.0123,-1.0107,-0.9919,-0.9744,-0.9744,-1.0078,-1.0536,-1.0814,-1.1038,-1.1255,-1.1477,-1.1738,-1.2029,-1.2419,-1.2504,-1.2638,-1.3045,-1.3179,-1.3179,-1.3179,-1.3179,-1.3179,-1.3137,-1.3137,-1.3179,-1.3222,-1.3222,-1.3264,-1.3307,-1.3844,-1.4223,-1.4223,-1.4803,-1.5097,-1.476,-1.486,-1.4893,-1.4871,-1.4326,-1.3982,-1.3982,-1.3667,-1.3492,-1.3492,-1.4186,-1.453,-1.453,-1.5215,-1.5569,-1.5604,-1.5604,-1.564,0.6945,0.0,0.7288,0.7238,0.7165,0.7217,0.0,0.7559,0.7381,0.6887,0.0,0.4547,0.3647,0.2414,0.1498,0.0,0.0,0.0,0.0,0.0,0.0,0.0,0.0,0.0,0.0,0.0,0.0,0.0,0.0,0.0,0.0,-0.4412,-0.4385,-0.4388,-0.4501,-0.4858,-0.5481,-0.585,-0.6651,-0.7919,-0.7989,-0.839,-0.9031,-0.9031,-0.8885,0.0,0.0,0.0,-0.8479,-0.8479,-0.854,-0.8673,-0.8981,-0.8968,-0.8849,-0.9104,-0.9049,-0.8898,-0.9397,-0.9049,-0.8357,-0.8203,-0.8124,-0.805,-0.805,-0.9102,-1.0201,-0.9813,-1.0439,-1.0979,-1.0106,-1.0543,-1.1149,-1.0722,-1.0636,-1.0679,-1.0771,-1.0814,-1.0814,-1.0814,-1.0814,-1.0766,-1.0722,-1.0766,-1.0982,-1.1499,-1.1542,-1.1752,-1.2254,-1.2462,-1.2547,-1.2547,-1.3127,-1.3476,-1.3369,-1.4319,-1.4798,-1.4596,-1.4201,-1.3982,-1.3982,-1.3667,-1.3492,-1.3492,-1.3674,-1.3775,-1.3775,-1.3912,-1.4302,-1.4851,-1.4851,-1.5171,0.6642,0.6789,0.7027,0.6964,0.6993,0.7186,0.7445,0.0,0.0,0.0,0.0,0.0,0.0,0.0,0.0,0.0,0.0,0.0,0.0,0.0,0.0,0.0,0.0,0.0,0.0,0.0,0.0,0.0,0.0,0.0,0.0,-0.4146,-0.4098,-0.4326,-0.4102,-0.4297,-0.4982,-0.5342,-0.5938,-0.6783,-0.7362,-0.7867,-0.8315,-0.8504,-0.8495,0.0,0.0,0.0,-0.8162,-0.8162,-0.8223,-0.8312,-0.8312,-0.8251,-0.8162,-0.8162,-0.8048,-0.7963,-0.8339,-0.809,-0.7657,-0.7555,-0.7484,-0.7484,-0.7484,-0.8199,-0.8879,-0.858,-0.9043,-0.9476,-0.8846,-0.9228,-0.9742,-0.9715,-0.9694,-0.9733,-0.9951,-0.9994,-0.9994,-0.9994,-0.9994,-0.9994,-0.9946,-0.9994,-1.0125,-1.0511,-1.0554,-1.0679,-1.1058,-1.1354,-1.1525,-1.1409,-1.1987,-1.2255,-1.2058,-1.3048,-1.3852,-1.4348,-1.3905,-1.3746,-1.3975,-1.3667,-1.3492,-1.3492,-1.3492,-1.3492,-1.3492,-1.3492,-1.3702,-1.4086,-1.4086,-1.4302,0.6435,0.6435,0.6514,0.6574,0.6896,0.722,0.7321,0.0,0.0,0.0,0.0,0.0,0.0,0.0,0.0,0.0,0.0,0.0,0.0,0.0,0.0,0.0,0.0,0.0,0.0,0.0,0.0,0.0,0.0,0.0,0.0,-0.3912,-0.3748,-0.4055,-0.3691,-0.3717,-0.4235,-0.4933,-0.5338,-0.5466,-0.647,-0.7002,-0.7126,-0.7537,-0.7708,-0.7726,0.0,0.0,-0.7975,-0.7975,-0.7992,-0.8012,-0.8012,-0.7996,-0.7975,-0.7975,-0.7866,-0.7755,-0.7755,-0.7653,-0.7484,-0.7484,-0.7484,-0.7484,-0.7484,-0.7484,-0.7484,-0.7484,-0.7673,-0.7865,-0.7943,-0.815,-0.849,-0.9009,-0.9152,-0.9305,-0.9694,-0.9777,-0.9777,-0.9777,-0.9777,-0.9777,-0.9777,-0.9777,-0.9777,-0.9777,-0.9777,-0.9777,-0.9777,-1.0265,-1.0514,-1.0359,-1.0921,-1.1197,-1.0901,-1.1577,-1.2594,-1.3864,-1.3456,-1.3358,-1.3819,-1.3564,-1.3419,-1.3419,-1.3419,-1.3419,-1.3419,-1.3419,-1.3419,-1.3419,-1.3419,-1.3419,0.614,0.5709,0.5487,0.6386,0.6836,0.7084,0.7224,0.7198,0.0,0.0,0.0,0.0,0.0,0.0,0.0,0.0,0.0,0.0,0.0,0.0,0.0,0.0,0.0,0.0,0.0,0.0,0.0,0.0,0.0,0.0,0.0,-0.3591,-0.3403,-0.3138,-0.3001,-0.3106,-0.3539,-0.4113,-0.4667,-0.5224,-0.5061,-0.5257,-0.5802,-0.628,-0.6494,-0.6498,0.0,-0.7629,-0.7837,-0.7837,-0.7886,-0.8012,-0.8012,-0.7923,-0.7837,-0.7837,-0.7722,-0.7563,-0.7563,-0.7543,-0.7484,-0.7484,-0.7484,-0.7484,-0.7484,-0.7484,-0.7484,-0.7484,-0.772,-0.7947,-0.7869,-0.82,-0.8535,-0.849,-0.8581,-0.874,-0.8784,-0.8828,-0.8828,-0.8828,-0.8828,-0.8828,-0.8828,-0.8828,-0.8828,-0.8828,-0.8828,-0.8828,-0.8828,-0.8772,-0.87,-0.867,-0.9105,-0.9661,-1.0261,-1.0918,-1.1714,-1.2773,-1.2912,-1.2994,-1.308,-1.3031,-1.2973,-1.2973,-1.2973,-1.2973,-1.2973,-1.2973,-1.2973,-1.2973,-1.2973,-1.2973,0.6086,0.5988,0.5857,0.5865,0.5701,0.5572,0.5701,0.5707,0.0,0.0,0.0,0.0,0.0,0.0,0.0,0.0,0.0,0.0,0.0,0.0,0.0,0.0,0.0,0.0,0.0,0.0,0.0,0.0,0.0,0.0,0.0,0.0,-0.2388,-0.2817,-0.2506,-0.2503,-0.2916,-0.3153,-0.3661,-0.4437,-0.4344,-0.444,-0.4763,-0.5079,-0.5209,-0.5275,0.0,-0.6542,-0.6816,-0.7297,-0.758,-0.7728,-0.7728,-0.7679,-0.7649,-0.7649,-0.7596,-0.7484,-0.7484,-0.7484,-0.7484,-0.7484,-0.7484,-0.7484,-0.7484,-0.7484,-0.7484,-0.7484,-0.7598,-0.7732,-0.7792,-0.7988,-0.82,-0.8264,-0.8357,-0.849,-0.8592,-0.8612,-0.8612,-0.8612,-0.8612,-0.8612,-0.8612,-0.8612,-0.8612,-0.8612,-0.8612,-0.8612,-0.8612,-0.8406,-0.8251,-0.815,-0.8271,-0.8457,-0.8734,-0.9395,-1.0619,-1.2489,-1.279,-1.29,-1.29,-1.29,-1.29,-1.29,-1.29,-1.29,-1.29,-1.29,-1.29,-1.29,-1.29,-1.29,0.5912,0.6028,0.5947,0.5155,0.0,0.4849,0.4547,0.4604,0.0,0.0,0.0,0.0,0.0,0.0,0.0,0.0,0.0,0.0,0.0,0.0,0.0,0.0,0.0,0.0,0.0,0.0,0.0,0.0,0.0,0.0,0.0,-0.1219,-0.1289,-0.2195,-0.1749,-0.1798,-0.2354,-0.2353,-0.2744,-0.3489,-0.3561,-0.36,-0.36,-0.383,-0.3984,-0.4062,-0.4882,-0.5348,-0.5613,-0.6475,-0.6907,-0.7096,-0.733,-0.7446,-0.7484,-0.7484,-0.7484,-0.7484,-0.7484,-0.7484,-0.7484,-0.7484,-0.7484,-0.7484,-0.7484,-0.7484,-0.7484,-0.7484,-0.7484,-0.7555,-0.7698,-0.7829,-0.7984,-0.817,-0.8292,-0.8381,-0.8526,-0.858,-0.86,-0.8555,-0.858,-0.8612,-0.8612,-0.8575,-0.8547,-0.8547,-0.8547,-0.8531,-0.8486,-0.8312,-0.8154,-0.7971,-0.7801,-0.7756,-0.7761,-0.8508,-0.9825,-1.1848,-1.2298,-1.2562,-1.2746,-1.2753,-1.2753,-1.2753,-1.2753,-1.2753,-1.2753,-1.2753,-1.2753,-1.2753,-1.2753,-1.2753,0.5328,0.5104,0.4597,0.4418,0.5662,0.6453,0.4701,0.4893,0.0,0.4216,0.0,0.0,0.0,0.0,0.0,0.0,0.0,0.0,0.0,0.0,0.0,0.0,0.0,0.0,0.0,0.0,0.0,0.0,0.0,0.0,-0.0531,-0.0285,-0.0282,-0.0474,-0.0433,-0.0904,-0.1921,-0.196,-0.2156,-0.2588,-0.2234,-0.2078,-0.2078,-0.2469,-0.2741,-0.2973,-0.3832,-0.4338,-0.4567,-0.5386,-0.5738,-0.5815,-0.683,-0.733,-0.7484,-0.7484,-0.7484,-0.7484,-0.7484,-0.7484,-0.7484,-0.7484,-0.7484,-0.7484,-0.7484,-0.7484,-0.7484,-0.7484,-0.7484,-0.7484,-0.75,-0.7878,-0.8215,-0.8069,-0.8296,-0.8547,-0.8345,-0.849,-0.8559,-0.8345,-0.8494,-0.8612,-0.8612,-0.8426,-0.8308,-0.8308,-0.8308,-0.8247,-0.8073,-0.804,-0.7967,-0.7837,-0.7653,-0.7804,-0.8551,-0.9334,-0.9895,-1.0083,-1.0801,-1.1558,-1.2305,-1.2342,-1.2342,-1.2342,-1.2342,-1.2342,-1.2342,-1.2342,-1.2342,-1.2342,-1.2342,-1.2342,0.4547,0.4375,0.3898,0.3907,0.5004,0.0,0.0,0.3401,0.3466,0.2602,0.2112,0.0,0.0,0.0,0.0,0.0,0.0,0.0,0.0,0.0,0.0,0.0,0.0,0.0,0.0,0.0,0.0,0.0,0.0,0.0,0.0,0.0834,0.0752,0.0275,-0.0118,-0.051,-0.0903,-0.1334,-0.1609,-0.1766,-0.1844,-0.1882,-0.1882,-0.1804,-0.1805,-0.1922,-0.2743,-0.321,-0.3478,-0.43,-0.4727,-0.488,-0.5306,-0.55,-0.5616,-0.5854,-0.5931,-0.597,-0.624,-0.6321,-0.6321,-0.6321,-0.6321,-0.6321,-0.6321,-0.6321,-0.6321,-0.6321,-0.6321,-0.6514,-0.7288,-0.7634,-0.7801,-0.7845,-0.8004,-0.8114,-0.8109,-0.8174,-0.8235,-0.828,-0.8349,-0.8473,-0.8592,-0.8414,-0.8292,-0.8292,-0.8292,-0.8264,-0.8195,-0.8085,-0.7988,-0.7923,-0.7659,-0.7638,-0.794,-0.8237,-0.8618,-0.9112,-0.99,-1.0726,-1.1521,-1.1558,-1.1781,-1.2298,-1.2305,-1.2305,-1.2305,-1.2305,-1.2305,-1.2305,-1.2305,-1.2305,0.3696,0.3694,0.3436,0.3494,0.0,0.0,0.2666,0.2665,0.2737,0.1621,0.1389,0.0,0.0,0.0,0.0,0.0,0.0,0.0,0.0,0.0,0.0,0.0,0.0,0.0,0.0,0.0,0.0,0.0,0.0,0.0,0.0,0.1764,0.1568,0.0942,0.051,0.0196,0.0,-0.0668,-0.0982,-0.0982,-0.1491,-0.1726,-0.1687,-0.1414,-0.1296,-0.1335,-0.1884,-0.2196,-0.239,-0.3249,-0.3871,-0.4297,-0.4297,-0.4334,-0.445,-0.4727,-0.4805,-0.4844,-0.5115,-0.5231,-0.5231,-0.5351,-0.5428,-0.5428,-0.5544,-0.5583,-0.5583,-0.5583,-0.5583,-0.5806,-0.6645,-0.6938,-0.7086,-0.7406,-0.7516,-0.7656,-0.7878,-0.7975,-0.8036,-0.8109,-0.8166,-0.8243,-0.8369,-0.8243,-0.8122,-0.8122,-0.8122,-0.8101,-0.8044,-0.7975,-0.791,-0.7854,-0.7581,-0.7403,-0.7403,-0.735,-0.7601,-0.819,-0.8745,-0.9558,-1.0651,-1.0726,-1.0993,-1.1545,-1.1545,-1.1663,-1.1929,-1.1929,-1.204,-1.2305,-1.2305,-1.2251,0.2757,0.3123,0.3268,0.0,0.0,0.0,0.2384,0.3193,0.3575,0.1785,0.0,0.0,0.0,0.0,0.0,0.0,0.0,0.0,0.0,0.0,0.0,0.0,0.0,0.0,0.0,0.0,0.0,0.0,0.0,0.0,0.0,0.2392,0.2235,0.1646,0.1607,0.1294,0.0628,0.0,-0.0275,-0.0314,-0.0982,-0.1296,-0.1296,-0.1296,-0.1296,-0.1296,-0.1296,-0.1296,-0.1375,-0.2158,-0.3134,-0.4068,-0.4068,-0.4181,-0.437,-0.437,-0.437,-0.437,-0.437,-0.437,-0.4448,-0.4844,-0.4963,-0.504,-0.5467,-0.5583,-0.558,-0.558,-0.558,-0.555,-0.5491,-0.5661,-0.6024,-0.6661,-0.6946,-0.7226,-0.7673,-0.789,-0.7959,-0.7833,-0.7894,-0.8012,-0.8012,-0.787,-0.78,-0.78,-0.78,-0.7735,-0.7547,-0.7686,-0.7726,-0.75,-0.733,-0.7187,-0.7187,-0.7098,-0.7069,-0.7179,-0.7191,-0.8003,-0.9809,-0.9895,-0.9895,-0.9895,-0.9895,-1.0314,-1.1111,-1.1111,-1.1521,-1.2305,-1.2305,-1.2144,0.1941,0.1942,0.0,0.2514,0.0,0.0,0.0,0.2786,0.0,0.0,0.0,0.0,0.0,0.0,0.0,0.0,0.0,0.0,0.0,0.0,0.0,0.0,0.0,0.0,0.0,0.0,0.0,0.0,0.0,0.0,0.0,0.247,0.2431,0.2235,0.1803,0.1489,0.1294,0.0667,0.0314,0.0314,-0.0314,-0.0825,-0.1296,-0.1296,-0.1296,-0.1296,-0.1296,-0.1296,-0.1335,-0.1571,-0.1845,-0.2118,-0.2118,-0.2156,-0.2273,-0.2545,-0.266,-0.2694,-0.2956,-0.3054,-0.3092,-0.3206,-0.3246,-0.3255,-0.3389,-0.3403,-0.3434,-0.3434,-0.358,-0.3749,-0.3758,-0.3993,-0.4548,-0.5616,-0.5954,-0.6087,-0.6201,-0.6663,-0.7032,-0.7096,-0.7512,-0.7874,-0.7992,-0.787,-0.78,-0.78,-0.78,-0.778,-0.7726,-0.7767,-0.7682,-0.7334,-0.7219,-0.7187,-0.7187,-0.7175,-0.722,-0.7395,-0.7407,-0.7922,-0.8998,-0.9074,-0.9334,-0.9895,-1.0464,-1.0844,-1.1111,-1.1669,-1.2077,-1.2305,-1.2305,-1.2258,0.1295,0.1295,0.0,0.1845,0.2041,0.2048,0.2075,0.0,0.0,0.0,0.0,0.0,0.0,0.0,0.0,0.0,0.0,0.0,0.0,0.0,0.0,0.0,0.0,0.0,0.0,0.0,0.0,0.0,0.0,0.0,0.0,0.2511,0.2511,0.2511,0.2156,0.1951,0.1932,0.1277,0.0963,0.0916,0.0267,-0.0229,-0.0649,-0.108,-0.1278,-0.1279,-0.1291,-0.1296,-0.1296,-0.1296,-0.1296,-0.1296,-0.1296,-0.1296,-0.1334,-0.1553,-0.1624,-0.1657,-0.1917,-0.1975,-0.2012,-0.2161,-0.2237,-0.2243,-0.2428,-0.245,-0.2457,-0.2457,-0.2616,-0.2761,-0.2735,-0.2947,-0.3511,-0.4822,-0.5184,-0.5315,-0.5544,-0.5935,-0.6232,-0.632,-0.6656,-0.6964,-0.7016,-0.72,-0.7336,-0.7336,-0.7533,-0.769,-0.769,-0.7629,-0.7464,-0.7133,-0.6985,-0.6869,-0.6797,-0.6734,-0.6793,-0.7029,-0.7045,-0.733,-0.797,-0.8127,-0.847,-0.8955,-0.941,-0.983,-1.0132,-1.0547,-1.1052,-1.1651,-1.1571,-1.1634,0.0864,0.0,0.0,0.1296,0.0,0.0,0.0,0.0,0.0,0.0,0.0,0.0,0.0,0.0,0.0,0.0,0.0,0.0,0.0,0.0,0.0,0.0,0.0,0.0,0.0,0.0,0.0,0.0,0.0,0.0,0.0,0.2501,0.25,0.2495,0.2499,0.2473,0.2375,0.1848,0.153,0.1459,0.0802,0.0473,0.0472,-0.0634,-0.1169,-0.1209,-0.1279,-0.1292,-0.1293,-0.1295,-0.1296,-0.1296,-0.1296,-0.1295,-0.1289,-0.1222,-0.121,-0.1203,-0.1209,-0.1198,-0.1235,-0.1635,-0.1747,-0.1823,-0.2184,-0.2293,-0.2291,-0.2285,-0.2316,-0.2303,-0.2256,-0.2361,-0.2817,-0.4098,-0.4449,-0.4644,-0.5217,-0.5372,-0.541,-0.541,-0.5458,-0.5506,-0.5506,-0.6012,-0.6405,-0.6405,-0.6942,-0.7322,-0.7306,-0.7209,-0.7101,-0.6954,-0.6596,-0.6344,-0.6211,-0.6034,-0.6052,-0.6416,-0.6435,-0.6573,-0.6888,-0.7249,-0.7446,-0.7446,-0.7518,-0.7902,-0.8661,-0.8523,-0.9181,-1.0569,-1.0365,-1.0455,0.0864,0.11,0.0,0.0,0.0,0.0,0.0,0.0,0.0,0.0,0.0,0.0,0.0,0.0,0.0,0.0,0.0,0.0,0.0,0.0,0.0,0.0,0.0,0.0,0.0,0.0,0.0,0.0,0.0,0.0,0.2439,0.2439,0.2381,0.2338,0.2378,0.2374,0.2318,0.2207,0.2128,0.0,0.1495,0.119,0.1132,-0.0036,-0.0808,-0.1215,-0.1209,-0.1221,-0.1224,-0.1286,-0.1296,-0.1296,-0.1296,-0.1281,-0.1221,-0.1214,-0.1197,-0.1208,-0.1141,-0.1131,-0.1131,-0.1237,-0.1291,-0.1348,-0.1421,-0.1458,-0.1451,-0.1386,-0.1566,-0.1786,-0.1816,-0.2086,-0.2436,-0.2737,-0.2879,-0.3009,-0.3121,-0.3537,-0.388,-0.388,-0.4282,-0.4644,-0.4644,-0.4763,-0.488,-0.488,-0.5503,-0.5966,-0.5852,-0.638,-0.6639,-0.6381,-0.6287,-0.6245,-0.6214,-0.6146,-0.6262,-0.6552,-0.6574,-0.666,-0.6892,-0.698,-0.7019,-0.7019,-0.7663,-0.8046,-0.8237,-0.8704,-0.9108,-0.9431,-0.9221,-0.9187,0.1021,0.0,0.0,0.0,0.0,0.0,0.0,0.0,0.0,0.0,0.0,0.0,0.0,0.0,0.0,0.0,0.0,0.0,0.0,0.0,0.0,0.0,0.0,0.0,0.0,0.0,0.0,0.0,0.0,0.2382,0.2382,0.2356,0.2328,0.23,0.2327,0.2314,0.2257,0.2256,0.2242,0.2249,0.1932,0.1637,0.1307,0.0424,-0.0107,-0.0394,-0.0699,-0.0818,-0.0856,-0.1132,-0.1252,-0.1252,-0.1252,-0.1242,-0.1188,-0.1174,-0.1158,-0.114,-0.111,-0.1099,-0.1099,-0.1099,-0.111,-0.1158,-0.1158,-0.1158,-0.1155,-0.1104,-0.1224,-0.1383,-0.1403,-0.1562,-0.1724,-0.171,-0.2114,-0.245,-0.245,-0.271,-0.2932,-0.2932,-0.3215,-0.3484,-0.3443,-0.3699,-0.4037,-0.4295,-0.471,-0.4949,-0.4882,-0.5156,-0.539,-0.5523,-0.5484,-0.5545,-0.5786,-0.5819,-0.5889,-0.6093,-0.6108,-0.6212,-0.6362,-0.6369,-0.648,-0.6749,-0.7116,-0.7294,-0.729,-0.7582,-0.7877,-0.8186,-0.8,-0.8064,0.1218,0.0,0.0,0.0,0.0,0.0,0.0,0.0,0.0,0.0,0.0,0.0,0.0,0.0,0.0,0.0,0.0,0.0,0.0,0.0,0.0,0.0,0.0,0.0,0.0,0.0,0.0,0.0,0.0,0.2367,0.2367,0.2314,0.2279,0.2269,0.2279,0.2255,0.2194,0.2194,0.2203,0.2188,0.2188,0.1951,0.1447,0.0998,0.0696,0.0487,-0.0036,-0.0253,-0.029,-0.0727,-0.0911,-0.0911,-0.0911,-0.0909,-0.0903,-0.0848,-0.0873,-0.097,-0.0949,-0.1008,-0.1109,-0.1109,-0.1113,-0.1116,-0.1111,-0.1113,-0.1116,-0.1111,-0.1109,-0.1111,-0.1116,-0.1098,-0.1114,-0.1084,-0.1668,-0.2193,-0.2166,-0.2169,-0.2169,-0.2169,-0.2215,-0.2277,-0.2192,-0.2655,-0.3197,-0.3698,-0.3876,-0.3979,-0.3925,-0.3923,-0.4072,-0.4468,-0.4414,-0.4522,-0.499,-0.5024,-0.5121,-0.5403,-0.5416,-0.551,-0.5796,-0.5779,-0.5971,-0.643,-0.6324,-0.6305,-0.6305,-0.615,-0.6379,-0.6916,-0.6722,-0.6975,0.0,0.0,0.0,0.0,0.0,0.0,0.0,0.0,0.0,0.0,0.0,0.0,0.0,0.0,0.0,0.0,0.0,0.0,0.0,0.0,0.0,0.0,0.0,0.0,0.0,0.0,0.0,0.0,0.2371,0.231,0.231,0.2253,0.2198,0.2214,0.2229,0.2193,0.22,0.22,0.2196,0.2188,0.2188,0.2154,0.2087,0.1992,0.142,0.0507,0.0417,0.0387,0.0353,0.0253,0.0182,0.0182,0.0182,0.0216,0.0282,0.0281,0.0,-0.0405,-0.0404,-0.0706,-0.1109,-0.1109,-0.1093,-0.111,-0.1084,-0.1094,-0.111,-0.1117,-0.1109,-0.1116,-0.1108,-0.1098,-0.1088,-0.1114,-0.1173,-0.1266,-0.1261,-0.1268,-0.1268,-0.1268,-0.1331,-0.1354,-0.1349,-0.1421,-0.153,-0.1601,-0.2219,-0.2596,-0.2501,-0.3079,-0.3459,-0.341,-0.3391,-0.3416,-0.3482,-0.3482,-0.383,-0.4602,-0.4645,-0.4979,-0.576,-0.5684,-0.5661,-0.5717,-0.582,-0.5875,-0.5871,-0.5731,-0.5728,-0.5828,-0.5665,-0.5732,0.1257,0.0,0.0,0.0,0.0,0.0,0.0,0.0,0.0,0.0,0.0,0.0,0.0,0.0,0.0,0.0,0.0,0.0,0.0,0.0,0.0,0.0,0.0,0.0,0.0,0.0,0.0,0.0,0.2346,0.2284,0.225,0.2228,0.2215,0.2188,0.2214,0.2215,0.2188,0.2188,0.2188,0.2188,0.2188,0.2188,0.2188,0.2188,0.1918,0.1447,0.109,0.0959,0.0925,0.059,0.0453,0.0453,0.0453,0.0484,0.0513,0.0513,0.034,0.0134,0.0134,0.0,-0.0202,-0.0202,-0.0203,-0.0205,-0.0202,-0.0203,-0.0205,-0.0202,-0.0437,-0.064,-0.0648,-0.0882,-0.1113,-0.1093,-0.1085,-0.1113,-0.1093,-0.1095,-0.1101,-0.1083,-0.1118,-0.1156,-0.1138,-0.1127,-0.115,-0.115,-0.1429,-0.1664,-0.1576,-0.188,-0.2244,-0.2551,-0.2581,-0.2748,-0.3149,-0.3215,-0.3368,-0.375,-0.3789,-0.3944,-0.4335,-0.429,-0.4264,-0.4264,-0.5142,-0.559,-0.559,-0.5525,-0.5494,-0.5494,-0.5515,-0.5559,0.0,0.0,0.0,0.0,0.0,0.0,0.0,0.0,0.0,0.0,0.0,0.0,0.0,0.0,0.0,0.0,0.0,0.0,0.0,0.0,0.0,0.0,0.0,0.0,0.0,0.0,0.0,0.0,0.2308,0.2257,0.2212,0.2187,0.2188,0.2188,0.2188,0.2188,0.2188,0.2188,0.2188,0.2188,0.2188,0.2188,0.2188,0.2287,0.2287,0.2188,0.1715,0.1513,0.1513,0.1109,0.0941,0.0941,0.0941,0.0941,0.0941,0.0941,0.084,0.0706,0.0706,0.0605,0.0504,0.0504,0.0504,0.0504,0.0504,0.0504,0.0504,0.0504,0.0202,-0.0101,-0.0101,-0.0504,-0.0874,-0.0739,-0.0908,-0.1109,-0.1109,-0.1109,-0.1116,-0.1105,-0.1091,-0.1117,-0.1106,-0.1091,-0.1109,-0.1109,-0.1109,-0.1109,-0.1109,-0.1109,-0.1276,-0.1779,-0.1846,-0.208,-0.2616,-0.2681,-0.2748,-0.2915,-0.2915,-0.3015,-0.3182,-0.3215,-0.3215,-0.3215,-0.4287,-0.4924,-0.5126,-0.5296,-0.5395,-0.5399,-0.5552,-0.561,0.0,0.0,0.0,0.0,0.0,0.0,0.0,0.0,0.0,0.0,0.0,0.0,0.0,0.0,0.0,0.0,0.0,0.0,0.0,0.0,0.0,0.0,0.0,0.0,0.0,0.0,0.0,0.0,0.2248,0.2213,0.2209,0.2187,0.2188,0.2188,0.2188,0.2188,0.2188,0.2188,0.2188,0.2188,0.2188,0.2188,0.2221,0.252,0.2487,0.2188,0.2154,0.2154,0.2154,0.212,0.212,0.212,0.212,0.212,0.212,0.212,0.1749,0.1244,0.1244,0.0941,0.0504,0.0504,0.0504,0.0504,0.0504,0.0504,0.0504,0.0504,0.047,0.047,0.047,0.0067,-0.0202,0.0302,-0.037,-0.1109,-0.1109,-0.1109,-0.1109,-0.1111,-0.1111,-0.1109,-0.1111,-0.1111,-0.1109,-0.1109,-0.1109,-0.1109,-0.1109,-0.1109,-0.1109,-0.1143,-0.1143,-0.1176,-0.121,-0.121,-0.1478,-0.2114,-0.2146,-0.248,-0.3182,-0.3215,-0.3215,-0.3215,-0.3282,-0.3651,-0.4353,-0.5057,-0.5395,-0.5399,-0.5552,-0.5661,0.0,0.0,0.0,0.0,0.0,0.0,0.0,0.0,0.0,0.0,0.0,0.0,0.0,0.0,0.0,0.0,0.0,0.0,0.0,0.0,0.0,0.0,0.0,0.0,0.0,0.0,0.0,0.0,0.0,0.288,0.2831,0.2834,0.2653,0.2221,0.2188,0.2188,0.2188,0.2188,0.2188,0.2188,0.2421,0.252,0.252,0.2855,0.2958,0.2859,0.2859,0.2723,0.252,0.2287,0.2321,0.2487,0.2287,0.2188,0.2188,0.2188,0.2052,0.1884,0.1884,0.1749,0.158,0.158,0.158,0.158,0.158,0.158,0.158,0.158,0.1311,0.1008,0.1008,0.0605,0.0269,0.047,0.0202,-0.0168,-0.0504,-0.0874,-0.1109,-0.1109,-0.1109,-0.1109,-0.1109,-0.1109,-0.1109,-0.1109,-0.1109,-0.1109,-0.1109,-0.1109,-0.1109,-0.1109,-0.1109,-0.1109,-0.1109,-0.1109,-0.121,-0.1444,-0.1444,-0.1577,-0.1846,-0.1846,-0.1846,-0.1846,-0.2281,-0.2848,-0.3582,-0.3851,-0.422,-0.4694,-0.4908,-0.5286,0.1296,0.0,0.0,0.0,0.0,0.0,0.0,0.0,0.0,0.0,0.0,0.0,0.0,0.0,0.0,0.0,0.0,0.0,0.0,0.0,0.0,0.0,0.0,0.0,0.0,0.0,0.0,0.0,0.0,0.0,0.3587,0.3585,0.3253,0.2554,0.252,0.242,0.2188,0.2321,0.2354,0.2388,0.2721,0.2855,0.2889,0.3226,0.3326,0.3192,0.3326,0.319,0.2855,0.2622,0.2656,0.2855,0.2622,0.2523,0.2523,0.2421,0.2354,0.2354,0.2255,0.2188,0.2188,0.2188,0.2188,0.2188,0.2188,0.2188,0.2188,0.2188,0.1918,0.1614,0.1614,0.1344,0.0975,0.0605,0.0638,0.0605,0.0101,-0.0437,-0.0874,-0.1076,-0.1109,-0.1109,-0.1109,-0.1109,-0.1109,-0.1109,-0.1109,-0.1109,-0.1109,-0.1109,-0.1109,-0.1109,-0.1109,-0.1109,-0.1109,-0.1109,-0.1109,-0.1109,-0.1109,-0.1109,-0.1109,-0.1109,-0.1109,-0.1109,-0.1545,-0.2013,-0.248,-0.3215,-0.3951,-0.4661,-0.4911,-0.5286,0.0,0.0,0.0,0.0,0.0,0.0,0.0,0.0,0.0,0.0,0.0,0.0,0.0,0.0,0.0,0.0,0.0,0.0,0.0,0.0,0.0,0.0,0.0,0.0,0.0,0.0,0.0,0.0,0.392,0.432,0.432,0.432,0.3984,0.3249,0.3249,0.2919,0.2288,0.2587,0.2753,0.2753,0.309,0.3226,0.3259,0.3658,0.3658,0.3293,0.3692,0.3625,0.3259,0.3226,0.3192,0.3226,0.3192,0.3192,0.3159,0.2822,0.272,0.2653,0.2354,0.2221,0.2221,0.2221,0.2221,0.2221,0.2221,0.2221,0.2221,0.2188,0.2188,0.2188,0.2188,0.2188,0.1918,0.0807,0.0941,0.1176,0.0638,0.0101,-0.0403,-0.0941,-0.1042,-0.1042,-0.1076,-0.1076,-0.1076,-0.1109,-0.1109,-0.1109,-0.1076,-0.1109,-0.1109,-0.1076,-0.1076,-0.1076,-0.1076,-0.1076,-0.1076,-0.1076,-0.1076,-0.1076,-0.1076,-0.1076,-0.1076,-0.1076,-0.1076,-0.1109,-0.1109,-0.3182,-0.4589,-0.5332,-0.5518,-0.5664,0.1296,0.0,0.0,0.0,0.0,0.0,0.0,0.0,0.0,0.0,0.0,0.0,0.0,0.0,0.0,0.0,0.0,0.0,0.0,0.0,0.0,0.0,0.0,0.0,0.0,0.0,0.0,0.0,0.4968,0.508,0.508,0.4586,0.4251,0.4146,0.4146,0.4112,0.4084,0.3785,0.3651,0.3651,0.4023,0.4225,0.4225,0.499,0.5256,0.5156,0.5256,0.5024,0.4489,0.3591,0.336,0.3591,0.3326,0.3192,0.3192,0.3092,0.3058,0.3058,0.2958,0.2924,0.2924,0.2924,0.2924,0.2891,0.2621,0.2554,0.252,0.2255,0.2188,0.2188,0.2188,0.2188,0.212,0.1817,0.185,0.1783,0.121,0.0975,0.0706,0.0168,0.0067,-0.0067,-0.047,-0.0538,-0.0638,-0.1042,-0.1109,-0.1043,-0.0909,-0.1009,-0.1043,-0.0909,-0.0876,-0.0876,-0.0876,-0.0741,-0.0674,-0.0674,-0.0674,-0.0674,-0.0674,-0.0674,-0.0674,-0.0674,-0.0674,-0.0942,-0.1476,-0.1812,-0.2614,-0.3854,-0.5033,-0.561,0.0,0.0,0.0,0.0,0.0,0.0,0.1551,0.1625,0.0,0.0,0.0,0.0,0.0,0.0,0.0,0.0,0.0,0.0,0.0,0.0,0.0,0.0,0.0,0.0,0.0,0.4632,0.5099,0.5472,0.5702,0.5848,0.5943,0.5547,0.5246,0.5074,0.5074,0.5008,0.4815,0.4613,0.4547,0.4547,0.4954,0.516,0.5156,0.5657,0.5888,0.5888,0.5888,0.5723,0.5388,0.4625,0.4192,0.3995,0.3761,0.3663,0.3629,0.3493,0.346,0.3426,0.3259,0.3192,0.3192,0.3192,0.3192,0.3159,0.2956,0.2922,0.2855,0.2656,0.2624,0.2624,0.2624,0.2624,0.2624,0.2624,0.2624,0.2522,0.2185,0.2084,0.1781,0.0706,0.0638,0.0638,0.0336,0.0403,0.0403,0.0067,-0.0235,-0.0403,-0.0269,-0.0606,-0.0707,-0.0303,-0.0505,-0.0438,0.0168,-0.0236,-0.0371,-0.0101,-0.0337,-0.0506,-0.0506,-0.0506,-0.0506,-0.0506,-0.0506,-0.0707,-0.1142,-0.1243,-0.1878,-0.3015,-0.4258,-0.4875,0.0,0.0,0.0,0.0,0.0,0.0,0.1561,0.1701,0.1798,0.0,0.0,0.0,0.0,0.0,0.0,0.0,0.0,0.0,0.0,0.0,0.0,0.0,0.0,0.0,0.3784,0.4868,0.5597,0.5686,0.6153,0.6515,0.6705,0.6738,0.6527,0.6071,0.6038,0.5738,0.511,0.5342,0.5441,0.5474,0.5818,0.5987,0.5987,0.6053,0.6086,0.6086,0.6086,0.6053,0.5987,0.5987,0.5392,0.4467,0.4467,0.4434,0.4364,0.4059,0.3892,0.3792,0.346,0.336,0.3426,0.3426,0.346,0.3493,0.346,0.3393,0.3326,0.3228,0.3192,0.3192,0.3192,0.3192,0.3192,0.3192,0.3192,0.3192,0.3192,0.3192,0.2721,0.1109,0.1075,0.1311,0.1244,0.1477,0.1676,0.1609,0.104,0.0638,0.0638,0.0101,-0.0034,0.0605,0.0135,0.0269,0.1542,0.0504,0.0,0.0538,0.0,-0.0371,-0.0438,-0.0438,-0.0438,-0.0438,-0.0438,-0.0438,-0.0438,-0.1209,-0.1942,-0.2611,-0.3318,-0.3754,0.0,0.0,0.0,0.0,0.0,0.0,0.1934,0.1977,0.1971,0.0,0.0,0.0,0.0,0.0,0.0,0.0,0.0,0.0,0.0,0.0,0.0,0.0,0.0,0.0,0.5005,0.59,0.6389,0.6248,0.6507,0.6707,0.6869,0.6869,0.6899,0.6942,0.6937,0.6966,0.6961,0.6601,0.6441,0.6441,0.6511,0.6544,0.6544,0.7003,0.7195,0.7195,0.7195,0.6937,0.6544,0.6544,0.6152,0.5594,0.5594,0.5326,0.4924,0.4855,0.4561,0.4197,0.4097,0.4361,0.4722,0.4722,0.5024,0.5322,0.4981,0.4619,0.4159,0.3426,0.3192,0.3192,0.3192,0.3192,0.3192,0.3192,0.3192,0.3192,0.3192,0.3192,0.3092,0.2755,0.2721,0.2654,0.2216,0.2214,0.2114,0.1676,0.1475,0.1442,0.161,0.1375,0.1308,0.161,0.1509,0.1543,0.1811,0.1677,0.1411,0.1008,0.0874,0.0538,-0.0067,-0.0101,-0.0101,-0.0101,-0.0101,-0.0101,-0.0101,-0.1108,-0.1676,-0.1843,-0.2579,-0.2945,0.0,0.0,0.0,0.2042,0.0,0.0,0.0,0.2078,0.2131,0.0,0.0,0.0,0.0,0.0,0.0,0.0,0.0,0.0,0.0,0.0,0.0,0.0,0.0,0.0,0.4978,0.594,0.6551,0.6556,0.6635,0.6785,0.702,0.7053,0.7187,0.7488,0.7386,0.7447,0.765,0.7282,0.7097,0.7097,0.7097,0.7097,0.7101,0.7391,0.7489,0.7489,0.7489,0.7358,0.7097,0.7097,0.6937,0.6642,0.6119,0.5723,0.5488,0.5488,0.5326,0.5096,0.5096,0.5259,0.5488,0.5488,0.569,0.5855,0.565,0.5253,0.4755,0.4289,0.3961,0.3763,0.3763,0.3763,0.3763,0.3763,0.3763,0.3763,0.3763,0.3763,0.3763,0.3763,0.3763,0.3594,0.3188,0.3222,0.3255,0.2986,0.2648,0.2445,0.2547,0.2146,0.2045,0.2512,0.2213,0.2315,0.3019,0.2482,0.2114,0.2147,0.1812,0.1444,0.1076,0.074,0.0371,0.0,0.0,0.0,0.0,-0.0538,-0.0806,-0.0807,-0.1543,-0.1944,0.0,0.0,0.0,0.0,0.0,0.2134,0.0,0.0,0.0,0.0,0.0,0.0,0.0,0.0,0.0,0.0,0.0,0.0,0.0,0.0,0.0,0.0,0.0,0.0,0.0,0.5788,0.6531,0.6726,0.6763,0.6928,0.723,0.73,0.7459,0.775,0.7622,0.7617,0.775,0.7579,0.7489,0.7489,0.7489,0.7489,0.7489,0.7489,0.7489,0.7489,0.7489,0.7489,0.7489,0.7489,0.7489,0.7423,0.6544,0.6152,0.6053,0.6053,0.5987,0.5888,0.5888,0.5954,0.6053,0.6053,0.6119,0.6185,0.6086,0.5752,0.5385,0.5286,0.4861,0.4464,0.4464,0.4367,0.4334,0.4434,0.4348,0.4339,0.4558,0.4414,0.4303,0.4425,0.4367,0.42,0.3928,0.4131,0.43,0.43,0.3792,0.3418,0.3418,0.2883,0.275,0.3353,0.2883,0.3019,0.4197,0.3222,0.2716,0.3182,0.2648,0.2248,0.2114,0.1577,0.1008,0.0404,0.0269,0.0202,0.0202,0.0067,0.0,0.0,-0.0605,-0.0941,0.0,0.0,0.0,0.0,0.2389,0.0,0.0,0.0,0.0,0.0,0.0,0.0,0.0,0.0,0.0,0.0,0.0,0.0,0.0,0.0,0.0,0.0,0.0,0.0,0.0,0.6189,0.6714,0.6878,0.7061,0.7231,0.7444,0.7642,0.7681,0.7536,0.7688,0.7698,0.7527,0.7503,0.7489,0.7489,0.7489,0.7489,0.7489,0.7489,0.7489,0.7489,0.7489,0.7489,0.7489,0.7489,0.7489,0.7489,0.7358,0.7036,0.6609,0.6609,0.6317,0.5888,0.5888,0.6218,0.6609,0.6609,0.6933,0.7228,0.6741,0.6576,0.6412,0.5954,0.5425,0.502,0.502,0.4661,0.4431,0.4891,0.454,0.4426,0.5496,0.4866,0.4296,0.4899,0.4628,0.43,0.4267,0.4267,0.43,0.43,0.4233,0.4164,0.4164,0.4097,0.4097,0.4164,0.4097,0.4131,0.43,0.4133,0.3792,0.3249,0.3115,0.2781,0.2114,0.2013,0.1946,0.1879,0.1276,0.0975,0.0975,0.0303,0.0,0.0,-0.0101,-0.0135,0.0,0.0,0.0,0.0,0.0,0.0,0.2347,0.0,0.2206,0.0,0.0,0.0,0.0,0.0,0.0,0.0,0.0,0.0,0.0,0.0,0.0,0.0,0.0,0.0,0.0,0.0,0.0,0.0,0.7161,0.7294,0.7493,0.7577,0.763,0.7679,0.7645,0.7641,0.7679,0.755,0.7489,0.7489,0.7489,0.7489,0.7489,0.7489,0.7489,0.7489,0.7489,0.7489,0.7489,0.7489,0.7489,0.7489,0.7489,0.7358,0.7162,0.7162,0.7036,0.6839,0.6839,0.6966,0.7162,0.7162,0.733,0.7437,0.7095,0.685,0.6621,0.629,0.5879,0.5554,0.5554,0.5392,0.5292,0.5524,0.5272,0.5117,0.5632,0.5336,0.5053,0.5338,0.5065,0.4761,0.4761,0.4498,0.43,0.43,0.43,0.43,0.43,0.43,0.43,0.43,0.43,0.43,0.43,0.43,0.4164,0.3859,0.3825,0.352,0.2781,0.2748,0.2547,0.2114,0.1812,0.1478,0.1109,0.0774,0.0404,0.0,0.0,0.0,0.2511,0.0,0.0,0.0,0.0,0.0,0.0,0.0,0.0,0.0,0.0,0.0,0.0,0.0,0.0,0.0,0.0,0.0,0.0,0.0,0.0,0.0,0.0,0.0,0.0,0.0,0.0,0.7199,0.7265,0.733,0.7489,0.7546,0.765,0.7811,0.7717,0.7712,0.7816,0.766,0.755,0.7489,0.7489,0.7489,0.7489,0.7489,0.7489,0.7489,0.7489,0.7489,0.7489,0.7489,0.7489,0.7489,0.7489,0.7489,0.7489,0.7489,0.7489,0.7489,0.7489,0.7489,0.7489,0.7489,0.7451,0.7389,0.7299,0.7081,0.6808,0.6725,0.6412,0.6119,0.6119,0.602,0.5921,0.6086,0.5821,0.5642,0.5974,0.5786,0.5614,0.5789,0.5542,0.5322,0.5322,0.4761,0.43,0.43,0.43,0.43,0.43,0.43,0.43,0.43,0.43,0.43,0.43,0.43,0.43,0.43,0.43,0.4061,0.352,0.3487,0.3253,0.2716,0.2515,0.2147,0.1679,0.1478,0.1008,0.0303,0.0101,0.0,0.0,0.0,0.0,0.2511,0.0,0.0,0.0,0.0,0.2296,0.0,0.0,0.0,0.0,0.0,0.0,0.2107,0.0,0.0,0.0,0.0,0.0,0.0,0.0,0.0,0.0,0.0,0.0,0.7204,0.7396,0.7489,0.7489,0.7688,0.7807,0.7816,0.7996,0.8006,0.7816,0.7807,0.7698,0.7489,0.7489,0.7489,0.7489,0.7489,0.7489,0.7489,0.7489,0.7489,0.7489,0.7489,0.7489,0.7489,0.7489,0.7489,0.7489,0.7489,0.7489,0.7489,0.7489,0.7489,0.7489,0.7489,0.7356,0.7232,0.7422,0.7351,0.7237,0.7395,0.7092,0.6675,0.6675,0.628,0.602,0.6544,0.601,0.5712,0.6893,0.6221,0.5594,0.6241,0.61,0.5888,0.5888,0.4997,0.43,0.43,0.43,0.43,0.43,0.43,0.43,0.43,0.43,0.43,0.43,0.43,0.43,0.43,0.43,0.43,0.4267,0.4267,0.4267,0.4233,0.352,0.3149,0.3115,0.2414,0.1712,0.1042,0.0337,0.0,0.0,0.0,0.2511,0.2511,0.0,0.0,0.0,0.0,0.0,0.0,0.0,0.0,0.0,0.0,0.2512,0.2488,0.2804,0.0,0.0,0.0,0.0,0.0,0.0,0.0,0.0,0.0,0.0,0.7396,0.7456,0.7489,0.7489,0.756,0.7664,0.7811,0.774,0.7735,0.7816,0.7674,0.7565,0.7489,0.7489,0.7489,0.7521,0.8069,0.8291,0.8323,0.8898,0.9154,0.9122,0.8812,0.8689,0.8624,0.8047,0.7819,0.7787,0.7587,0.7489,0.7489,0.7489,0.7489,0.747,0.7337,0.7247,0.7147,0.6908,0.7024,0.7147,0.6903,0.7015,0.72,0.7072,0.6912,0.6817,0.6972,0.6572,0.624,0.664,0.6527,0.6384,0.6607,0.6531,0.6412,0.6412,0.5822,0.5226,0.4891,0.4531,0.43,0.43,0.43,0.43,0.43,0.43,0.43,0.43,0.43,0.43,0.43,0.43,0.43,0.43,0.43,0.43,0.43,0.4061,0.3689,0.3182,0.2948,0.2447,0.1745,0.1511,0.0875,0.2511,0.2511,0.0,0.2668,0.2707,0.0,0.2707,0.0,0.0,0.0,0.0,0.0,0.0,0.0,0.0,0.3119,0.3288,0.3527,0.0,0.4981,0.0,0.0,0.0,0.0,0.0,0.0,0.7489,0.7489,0.7489,0.7489,0.0,0.0,0.7588,0.7807,0.7679,0.7674,0.7811,0.7745,0.7802,0.7939,0.802,0.8184,0.842,0.893,0.9154,0.9186,0.9761,0.9983,0.999,0.9678,0.955,0.9486,0.8941,0.8716,0.8619,0.7814,0.7652,0.7842,0.7842,0.7797,0.7676,0.7327,0.709,0.6899,0.6675,0.678,0.6908,0.679,0.7071,0.737,0.7313,0.7242,0.719,0.719,0.6837,0.652,0.66,0.6693,0.6875,0.7072,0.7139,0.7199,0.733,0.6905,0.6309,0.5646,0.5253,0.499,0.4891,0.4858,0.4761,0.45,0.4464,0.4464,0.4464,0.4464,0.4464,0.4464,0.4464,0.4464,0.4464,0.4464,0.4464,0.4464,0.4464,0.4228,0.3685,0.3685,0.3284,0.248,0.248,0.1879]}]]